     2.11           OBSERVATION DATA    G (GPS)             RINEX VERSION / TYPE
teqc 2010Oct21 OPUS Account 20111025 18:25:32UTC            PGM / RUN BY / DATE
2962                                                        MARKER NAME
1129                                                        MARKER NUMBER
CSMIDDLETON NGS                                             OBSERVER / AGENCY
4624K01648 TRIMBLE NETR5 4.41                               REC # / TYPE / VERS
60165452 TRM41249.00 NONE                                   ANT # / TYPE
  -739582.6572 -5475262.9388  3176379.9825                  APPROX POSITION XYZ
        2.0000        0.0000        0.0000                  ANTENNA: DELTA H/E/N
     1     1                                                WAVELENGTH FACT L1/2
     5    L1    L2    C1    P1    P2                        # / TYPES OF OBSERV
    15                                                      LEAP SECONDS
  2011     7    26    16    57   30.0000000     GPS         TIME OF FIRST OBS
                                                            END OF HEADER
 11  7 26 16 57 30.0000000  0 10G32G06G07G16G03G19G20G10G13G23
 127551497.17716  99390820.82152  24272243.969                    24272255.211
 115571028.88217  90055377.32855  21992435.469                    21992443.262
 122331127.63416  95322989.28454  23278839.703                    23278847.773
 113246525.35318  88244071.04856  21550097.695                    21550104.375
 109952606.92317  85677387.33856  20923285.625                    20923293.660
 117746847.82117  91750816.55255  22406480.133                    22406486.723
 122490317.63916  95447033.95354  23309132.984                    23309142.613
 126417400.72216  98507099.06653  24056431.758                    24056440.750
 108773483.78918  84758585.71256  20698906.328                    20698913.367
 104879556.11818  81724349.10657  19957916.844                    19957921.992
 11  7 26 16 58  0.0000000  0 10G32G06G07G16G03G19G20G10G13G23
 127645963.585 6  99464430.88143  24290221.195                    24290232.000
 115576319.305 7  90059499.72145  21993442.523                    21993450.621
 122271547.758 6  95276563.43544  23267501.719                    23267509.395
 113323025.665 8  88303681.64146  21564655.406                    21564661.891
 109924690.795 7  85655634.49245  20917973.531                    20917981.020
 117664806.397 7  91686888.20145  22390867.539                    22390874.309
 122578615.613 6  95515837.44744  23325935.469                    23325945.465
 126381529.439 6  98479147.44143  24049606.508                    24049615.500
 108716580.308 8  84714245.33646  20688077.883                    20688084.809
 104877542.600 8  81722780.11247  19957533.555                    19957538.563
 11  7 26 16 58 30.0000000  0 10G32G06G07G16G03G19G20G10G13G23
 127740395.967 6  99538014.30942  24308191.289                    24308203.148
 115582162.682 7  90064053.00245  21994553.992                    21994561.813
 122211989.715 6  95230154.62344  23256168.484                    23256176.527
 113399790.571 8  88363498.42045  21579262.984                    21579269.715
 109897362.061 7  85634339.38945  20912772.883                    20912780.344
 117583039.783 7  91623174.01245  22375308.063                    22375314.297
 122666993.214 6  95584702.96844  23342753.297                    23342762.988
 126346158.999 6  98451586.06243  24042875.344                    24042884.547
 108660054.975 8  84670199.62346  20677321.352                    20677327.973
 104876062.956 8  81721627.13047  19957251.859                    19957256.809
 11  7 26 16 59  0.0000000  0 10G32G06G07G16G03G19G20G10G13G23
 127834792.581 6  99611569.93343  24326154.109                    24326165.895
 115588560.434 7  90069038.25945  21995771.859                    21995779.332
 122152454.389 7  95183763.48744  23244839.188                    23244847.281
 113476818.270 8  88423519.97346  21593921.266                    21593927.594
 109870623.809 7  85613504.38745  20907684.453                    20907692.242
 117501552.015 7  91559677.09845  22359801.242                    22359808.109
 122755448.792 6  95653629.28144  23359586.180                    23359596.020
 126311291.196 6  98424416.33243  24036240.781                    24036249.043
 108603911.219 8  84626451.24746  20666637.516                    20666644.313
 104875119.461 8  81720891.92147  19957072.625                    19957077.898
 11  7 26 16 59 30.0000000  0 10G32G06G07G16G03G19G20G10G13G23
 127929151.095 6  99685095.82242  24344109.352                    24344121.453
 115595512.711 7  90074455.61645  21997094.664                    21997102.840
 122092941.431 7  95137389.77644  23233514.242                    23233522.816
 113554106.016 8  88483744.16745  21608628.672                    21608634.629
 109844476.944 7  85593130.20845  20902708.977                    20902716.840
 117420346.013 7  91496399.74045  22344348.258                    22344355.082
 122843979.147 7  95722613.82244  23376433.477                    23376441.832
 126276926.412 6  98397638.58643  24029701.047                    24029708.922
 108548151.502 8  84583002.12946  20656026.664                    20656033.578
 104874712.581 8  81720574.86047  19956995.406                    19957000.051
 11  7 26 17  0  0.0000000  0 10G32G06G07G16G03G19G20G10G13G23
 128023468.357 5  99758589.63842  24362056.539                    24362070.020
 115603019.616 7  90080305.12745  21998523.586                    21998531.102
 122033450.602 7  95091033.36744  23222193.930                    23222202.012
 113631650.935 8  88544168.74846  21623384.734                    21623391.117
 109818923.004 8  85573218.05146  20897846.234                    20897854.359
 117339425.130 7  91433344.56045  22328949.461                    22328956.637
 122932581.156 6  95791654.26244  23393294.016                    23393302.621
 126243065.054 6  98371253.13043  24023256.773                    24023265.531
 108492777.913 8  84539853.88546  20645489.766                    20645496.586
 104874843.644 8  81720676.97447  19957020.172                    19957025.063
 11  7 26 17  0 30.0000000  0 10G32G06G07G16G03G19G20G10G13G23
 128117742.11216  99832049.45152  24379999.141                    24380010.012
 115611080.885 7  90086586.62845  22000057.211                    22000064.977
 121973981.900 7  95044694.14345  23210876.906                    23210885.395
 113709450.134 8  88604791.44746  21638189.656                    21638196.398
 109793963.463 8  85553769.06646  20893096.781                    20893104.332
 117258792.051 7  91370513.62445  22313605.711                    22313612.457
 123021251.482 6  95860747.91544  23410166.922                    23410175.688
 126209707.666 6  98345260.33843  24016909.445                    24016917.449
 108437792.640 8  84497008.23146  20635026.133                    20635033.188
 104875513.149 8  81721198.65247  19957147.195                    19957152.418
 11  7 26 17  1  0.0000000  0 10G32G06G07G16G03G19G20G10G13G23
 128211969.458 4  99905473.10342  24397925.383                    24397940.473
 115619696.879 7  90093300.39945  22001696.852                    22001705.285
 121914534.661 7  94998371.63145  23199564.953                    23199572.656
 113787500.985 8  88665610.26246  21653042.336                    21653048.730
 109769599.508 8  85534784.17946  20888460.430                    20888468.355
 117178450.048 7  91307909.51845  22298317.125                    22298323.805
 123109987.394 6  95929892.64144  23427053.398                    23427062.617
 126176855.057 6  98319660.87843  24010657.758                    24010666.461
 108383198.226 8  84454467.13746  20624637.195                    20624643.934
 104876721.968 8  81722140.57347  19957377.594                    19957382.523
 11  7 26 17  1 30.0000000  0 10G32G06G07G16G03G19G20G10G13G23
 128306148.38316  99978859.11452  24415851.398                    24415862.742
 115628868.058 7  90100446.77045  22003442.250                    22003450.176
 121855109.299 7  94952066.20944  23188256.328                    23188264.105
 113865801.346 8  88726623.51346  21667942.625                    21667949.035
 109745833.221 8  85516265.00446  20883937.742                    20883945.750
 117098402.836 7  91245535.10845  22283084.461                    22283091.090
 123198786.311 7  95999086.47344  23443951.305                    23443960.156
 126144508.057 6  98294455.40743  24004503.031                    24004511.219
 108328997.633 8  84412232.92346  20614323.063                    20614330.117
 104878471.793 8  81723504.06247  19957710.422                    19957715.813
 11  7 26 17  2  0.0000000  0 10G32G06G07G16G03G19G20G10G13G23
 128400275.869 4 100052204.87842  24433763.578                    24433775.348
 115638593.885 7  90108025.32545  22005292.891                    22005300.676
 121795705.225 6  94905777.35744  23176951.641                    23176960.258
 113944348.170 8  88787828.83946  21682889.180                    21682895.832
 109722665.252 8  85498212.05646  20879529.172                    20879536.906
 117018653.165 7  91183392.54345  22267908.820                    22267915.422
 123287644.807 7  96068326.74544  23460860.789                    23460869.254
 126112666.619 6  98269643.91843  23998443.320                    23998451.891
 108275192.583 8  84370306.90346  20604084.219                    20604091.410
 104880762.723 8  81725289.18047  19958146.648                    19958151.930
 11  7 26 17  2 30.0000000  0 10G32G06G07G16G03G19G20G10G13G23
 128494346.56615                  24451665.313
 115648875.108 7  90116036.66245  22007249.453                    22007257.164
 121736322.839 6  94859505.38144  23165651.680                    23165659.492
 114023139.052 8  88849224.31945  21697882.789                    21697889.570
 109700097.827 8  85480627.04946  20875234.539                    20875242.535
 116939204.733 7  91121484.70345  22252790.320                    22252796.688
 123376560.258 6  96137611.38943  23477780.742                    23477789.848
 126081331.911 6  98245227.23643  23992479.953                    23992488.848
 108221785.953 8  84328691.34046  20593921.180                    20593928.176
 104883596.515 8  81727497.31847  19958685.789                    19958690.934
 11  7 26 17  3  0.0000000  0 10G32G06G07G16G03G19G20G10G13G23
 128588364.040 5                  24469561.672
 115659711.101 7  90124480.28445  22009311.234                    22009319.117
 121676961.209 7  94813249.58044  23154355.500                    23154363.531
 114102170.692 8  88910807.38645  21712921.484                    21712928.512
 109678131.237 8  85463510.24146  20871054.563                    20871062.824
 116860060.235 7  91059813.69445  22237729.414                    22237735.992
 123465529.066 6  96206937.59943  23494711.273                    23494719.723
 126050503.822 6  98221205.33443  23986614.148                    23986622.633
 108168779.601 8  84287387.69346  20583834.664                    20583841.711
 104886973.234 8  81730128.51247  19959328.141                    19959333.586
 11  7 26 17  3 30.0000000  0 10G32G06G07G16G03G19G20G10G13G23
 128682316.47915                  24487434.164
 115671102.831 7  90133356.94945  22011479.273                    22011487.090
 121617621.117 6  94767010.46744  23143063.594                    23143071.797
 114181441.675 8  88972576.96645  21728006.633                    21728013.113
 109656768.049 7  85446863.61946  20866989.227                    20866997.188
 116781223.447 7  90998382.45745  22222727.578                    22222734.117
 123554549.473 6  96276304.02543  23511650.805                    23511659.777
 126020183.938 6  98197579.43943  23980844.453                    23980852.887
 108116176.836 8  84246398.52446  20573824.711                    20573832.176
 104890894.760 8  81733184.23047  19960074.180                    19960079.492
 11  7 26 17  4  0.0000000  0 10G32G06G07G16G03G19G20G10G13G23
 128776214.239 6                  24505306.953
 115683049.803 7  90142666.26345  22013752.570                    22013760.238
 121558302.383 7  94720788.07444  23131775.664                    23131783.711
 114260948.625 8  89034530.41845  21743136.406                    21743143.051
 109636008.980 7  85430687.73346  20863038.977                    20863046.746
 116702697.338 7  90937193.31045  22207784.281                    22207790.984
 123643618.020 6  96345707.94343  23528600.406                    23528609.434
 125990371.985 6  98174349.35443  23975171.813                    23975180.453
 108063979.869 7  84205725.55746  20563891.914                    20563899.258
 104895361.550 8  81736664.82847  19960924.266                    19960929.656
 11  7 26 17  4 30.0000000  0  9G06G07G16G03G19G20G10G13G23
 115695552.171 7  90152408.37345  22016131.461                    22016139.484
 121499004.754 7  94674582.17644  23120491.781                    23120499.613
 114340689.190 8  89096665.90145  21758310.344                    21758316.797
 109615855.446 7  85414983.68346  20859203.914                    20859211.711
 116624485.115 7  90876248.75045  22192900.898                    22192907.375
 123732732.014 7  96415147.31243  23545558.609                    23545567.512
 125961068.689 6  98151515.59143  23969595.172                    23969604.250
 108012191.096 8  84165370.67146  20554036.852                    20554043.961
 104900374.533 8  81740571.02947  19961878.234                    19961883.715
 11  7 26 17  5  0.0000000  0 10G32G06G07G16G03G19G20G10G13G23
 128963815.55015                  24541005.898
 115708610.155 7  90162583.41245  22018616.633                    22018624.727
 121439728.475 7  94628392.95445  23109211.578                    23109219.602
 114420660.840 8  89158981.45845  21773528.305                    21773535.059
 109596308.689 8  85399752.45346  20855484.266                    20855492.164
 116546590.226 7  90815551.46545  22178077.977                    22178084.371
 123821888.596 7  96484619.83143  23562524.242                    23562533.434
 125932274.665 6  98129078.69043  23964115.070                    23964124.949
 107960813.096 8  84125335.86046  20544259.938                    20544266.996
 104905934.478 8  81744903.43647  19962936.484                    19962941.727
 11  7 26 17  5 30.0000000  0 10G32G06G07G16G03G19G20G10G13G23
 129057516.039 4                  24558844.953
 115722223.171 7  90173190.93745  22021207.281                    22021214.660
 121380472.998 7  94582219.91444  23097935.453                    23097943.168
 114500860.751 8  89221474.87245  21788789.844                    21788796.891
 109577369.602 7  85384994.73046  20851880.414                    20851888.328
 116469015.525 7  90755103.67045  22163316.211                    22163322.695
 123911084.348 6  96554122.89844  23579497.813                    23579507.383
 125903989.926 6  98107038.61043  23958732.953                    23958742.234
 107909847.817 8  84085622.65446  20534561.648                    20534568.797
 104912041.932 8  81749662.47347  19964098.516                    19964104.004
 11  7 26 17  6  0.0000000  0  9G06G07G16G03G19G20G10G13G23
 115736391.979 7  90184231.55345  22023903.016                    22023910.957
 121321238.760 7  94536063.46844  23086663.742                    23086671.801
 114581287.293 8  89284144.87445  21804094.742                    21804101.789
 109559040.311 8  85370712.16646  20848392.406                    20848400.063
 116391764.967 7  90694908.47845  22148615.695                    22148622.203
 124000317.442 7  96623655.03544  23596478.461                    23596487.617
 125876215.855 6  98085396.49943  23953447.961                    23953456.719
 107859298.567 8  84046233.63046  20524942.570                    20524949.410
 104918698.748 8  81754849.58047  19965365.406                    19965370.848
 11  7 26 17  6 30.0000000  0 10G32G06G07G16G03G19G20G10G13G23
 129244908.46715                  24594516.641
 115751115.791 7  90195704.63545  22026705.422                    22026713.242
 121262025.523 7  94489923.33645  23075395.422                    23075403.930
 114661936.920 8  89346988.71345  21819441.953                    21819449.121
 109541321.480 8  85356905.28246  20845020.445                    20845028.125
 116314840.926 7  90634967.69045  22133977.516                    22133984.090
 124089584.239 7  96693213.44544  23613464.977                    23613474.645
 125848951.907 6  98064151.84543  23948259.727                    23948268.480
 107809166.931 7  84007170.02046  20515402.641                    20515409.605
 104925904.765 8  81760464.64547  19966736.695                    19966742.320
 11  7 26 17  7  0.0000000  0  9G06G07G16G03G19G20G10G13G23
 115766394.930 7  90207610.46045  22029612.563                    22029620.648
 121202833.462 7  94443799.69345  23064132.117                    23064139.762
 114742807.399 8  89410004.64145  21834830.867                    21834837.816
 109524214.771 8  85343575.37546  20841765.156                    20841773.066
 116238247.070 7  90575284.20845  22119402.023                    22119408.977
 124178882.362 7  96762796.27244  23630458.094                    23630467.180
 125822199.006 6  98043305.43443  23943168.953                    23943177.605
 107759456.082 8  83968434.28946  20505943.219                    20505950.094
 104933661.409 8  81766508.76747  19968212.805                    19968218.262
 11  7 26 17  7 30.0000000  0  9G06G07G16G03G19G20G10G13G23
 115782228.706 7  90219948.44845  22032625.625                    22032633.902
 121143661.743 7  94397691.88545  23052871.836                    23052880.441
 114823895.821 7  89473190.39745  21850261.914                    21850268.688
 109507720.226 8  85330722.47946  20838626.680                    20838634.457
 116161986.057 7  90515860.08245  22104889.969                    22104897.234
 124268208.407 7  96832400.83944  23647457.336                    23647466.098
 125795956.843 6  98022857.02643  23938175.141                    23938184.488
 107710167.139 8  83930027.33246  20496563.961                    20496570.500
 104941968.472 8  81772981.78947  19969793.445                    19969798.574
 11  7 26 17  8  0.0000000  0 10G32G06G07G16G03G19G20G10G13G23
 129525025.50114                  24647818.758
 115798615.123 7  90232717.08445  22035744.461                    22035752.129
 121084508.888 7  94351598.79644  23041615.602                    23041623.535
 114905197.713 8  89536542.50645  21865733.094                    21865739.828
 109491837.523 7  85318346.33845  20835604.234                    20835611.582
 116086059.188 7  90456696.33345  22090442.000                    22090448.695
 124357557.604 7  96902023.46444  23664459.922                    23664468.566
 125770223.909 6  98002805.37043  23933277.875                    23933287.578
 107661300.973 7  83891949.81146  20487264.789                    20487272.078
 104950824.809 8  81779882.81447  19971478.781                    19971483.910
 11  7 26 17  8 30.0000000  0  9G06G07G16G03G19G20G10G13G23
 115815558.094 7  90245919.38745  22038967.930                    22038975.785
 121025378.887 7  94305523.49245  23030363.781                    23030371.133
 114986714.542 8  89600062.08945  21881245.258                    21881252.383
 109476571.644 7  85306450.85946  20832698.836                    20832707.188
 116010473.963 7  90397798.78745  22076058.734                    22076065.059
 124446931.134 7  96971665.03044  23681467.164                    23681476.156
 125745004.734 6  97983154.06543  23928479.172                    23928488.227
 107612864.354 8  83854206.98646  20478047.711                    20478054.980
 104960235.422 8  81787215.74147  19973269.555                    19973275.109
 11  7 26 17  9  0.0000000  0  9G06G07G16G03G19G20G10G13G23
 115833055.788 7  90259553.95245  22042298.055                    22042305.543
 120966269.764 7  94259464.45545  23019115.680                    23019123.160
 115068442.072 8  89663745.85245  21896797.297                    21896804.031
 109461922.268 8  85295035.74845  20829911.117                    20829919.543
 115935231.400 7  90339168.26945  22061740.195                    22061746.949
 124536324.062 6  97041321.70943  23698476.953                    23698487.082
 125720297.948 6  97963902.03743  23923777.336                    23923787.262
 107564857.637 8  83816799.16246  20468912.484                    20468918.926
 104970199.230 8  81794979.73447  19975165.781                    19975170.992
 11  7 26 17  9 30.0000000  0  9G06G07G16G03G19G20G10G13G23
 115851107.632 7  90273620.28845  22045732.789                    22045740.676
 120907181.306 7  94213421.53244  23007870.586                    23007878.844
 115150377.588 8  89727591.67645  21912389.313                    21912396.289
 109447889.372 8  85284101.03146  20827240.383                    20827248.547
 115860334.750 7  90280807.27145  22047487.836                    22047494.387
 124625734.204 6  97110991.76944  23715491.461                    23715501.676
 125696103.378 6  97945049.13543  23919174.234                    23919182.926
 107517283.066 8  83779728.05646  20459858.938                    20459866.082
 104980716.552 8  81803175.03346  19977166.781                    19977172.477
 11  7 26 17 10  0.0000000  0  9G06G07G16G03G19G20G10G13G23
 115869713.054 7  90288118.01745  22049273.188                    22049281.648
 120848113.467 7  94167394.67445  22996630.852                    22996638.539
 115232518.342 8  89791597.42745  21928020.188                    21928026.621
 109434474.549 8  85273647.92646  20824688.328                    20824696.070
 115785786.784 7  90222717.97245  22033301.813                    22033308.195
 124715157.964 7  97180672.46844  23732509.250                    23732518.383
 125672420.966 6  97926595.29043  23914666.820                    23914676.102
 107470142.632 8  83742995.25146  20450888.758                    20450895.449
 104991787.865 8  81811802.01447  19979273.930                    19979279.402
 11  7 26 17 10 30.0000000  0 10G32G06G07G16G03G19G20G10G13G23
 129990036.76014                  24736328.711
 115888871.618 7  90303046.75745  22052919.453                    22052927.133
 120789065.880 7  94121383.58145  22985394.195                    22985402.004
 115314861.578 7  89855760.95645  21943689.719                    21943696.211
 109421678.219 8  85263676.76746  20822253.039                    20822260.832
 115711590.585 7  90164902.77845  22019182.430                    22019188.930
 124804592.390 6  97250361.46044  23749528.070                    23749537.254
 125649251.010 7  97908540.77943  23910258.273                    23910267.535
 107423438.491 8  83706602.41346  20442001.086                    20442008.164
 105003413.566 8  81820860.97947  19981486.195                    19981491.836
 11  7 26 17 11  0.0000000  0 10G32G06G07G16G03G19G20G10G13G23
 130082825.45014                  24753979.258
 115908583.485 7  90318406.64145  22056670.297                    22056678.359
 120730039.609 7  94075389.09845  22974162.086                    22974169.793
 115397405.492 8  89920080.86045  21959396.992                    21959403.879
 109409501.990 8  85254188.79746  20819936.078                    20819943.891
 115637749.809 7  90107364.54945  22005131.156                    22005137.590
 124894035.538 6  97320057.25444  23766548.625                    23766558.078
 125626594.404 6  97890886.27244  23905946.672                    23905955.973
 107377174.246 8  83670552.35246  20433197.273                    20433204.098
 105015595.159 8  81830353.10947  19983804.195                    19983809.781
 11  7 26 17 11 30.0000000  0 10G32G06G07G16G03G19G20G10G13G23
 130175515.28915                  24771622.031
 115928848.794 7  90334197.80645  22060526.602                    22060534.797
 120671034.037 7  94029410.76745  22962933.547                    22962941.254
 115480147.411 8  89984555.05745  21975142.664                    21975149.402
 109397946.783 8  85245184.73446  20817736.945                    20817744.930
 115564267.613 7  90050105.72445  21991147.930                    21991154.488
 124983484.208 6  97389757.35143  23783569.938                    23783579.500
 125604450.842 7  97873631.55344  23901732.969                    23901742.746
 107331351.152 8  83634846.03746  20424477.547                    20424483.996
 105028332.775 8  81840278.49847  19986228.188                    19986233.766
 11  7 26 17 12  0.0000000  0  9G06G07G16G03G19G20G10G13G23
 115949666.383 7  90350419.27945  22064488.492                    22064496.102
 120612049.405 7  93983448.73545  22951709.586                    22951717.363
 115563084.711 7  90049181.49745  21990925.000                    21990931.738
 109387013.207 8  85236665.06546  20815656.367                    20815664.480
 115491146.694 7  89993128.41145  21977233.461                    21977240.316
 125072935.430 6  97459459.42343  23800592.148                    23800601.938
 125582820.415 6  97856776.66244  23897616.539                    23897626.211
 107285971.612 8  83599485.36446  20415842.328                    20415849.035
 105041626.620 8  81850637.31146  19988757.742                    19988763.168
 11  7 26 17 12 30.0000000  0  9G06G07G16G03G19G20G10G13G23
 115971036.427 7  90367071.25445  22068554.688                    22068562.797
 120553085.747 7  93937503.07645  22940488.930                    22940496.656
 115646215.039 7  90113958.35945  22006744.148                    22006750.926
 109376702.174 8  85228630.49246  20813694.422                    20813702.707
 115418390.373 7  89936435.20245  21963388.180                    21963395.047
 125162386.436 6  97529161.31644  23817614.563                    23817623.953
 125561703.334 6  97840321.79643  23893597.992                    23893607.492
 107241038.380 8  83564472.46746  20407291.352                    20407298.398
 105055477.535 8  81861430.20647  19991393.828                    19991398.816
 11  7 26 17 13  0.0000000  0  9G06G07G16G03G19G20G10G13G23
 115992957.976 7  90384152.96645  22072725.922                    22072734.242
 120494142.908 7  93891573.61044  22929272.320                    22929280.145
 115729535.639 7  90178883.47945  22022599.469                    22022605.988
 109367014.229 8  85221081.44046  20811850.883                    20811858.984
 115346001.546 7  89880028.34545  21949612.977                    21949619.809
 125251834.536 6  97598860.96843  23834636.211                    23834645.172
 125541099.809 6  97824267.09143  23889678.266                    23889686.359
 107196553.342 8  83529808.80546  20398826.117                    20398833.172
 105069885.821 8  81872657.41447  19994135.914                    19994140.672
 11  7 26 17 13 30.0000000  0  9G06G07G16G03G19G20G10G13G23
 116015430.779 7  90401664.23745  22077002.922                    22077010.918
 120435220.892 7  93845660.37944  22918059.250                    22918067.836
 115813044.241 7  90243955.09345  22038490.656                    22038497.391
 109357950.286 8  85214018.62946  20810126.242                    20810133.676
 115273983.571 7  89823910.48445  21935908.219                    21935915.277
 125341276.889 6  97668556.14643  23851656.445                    23851665.777
 125521009.732 7  97808612.50844  23885854.492                    23885863.289
 107152518.807 8  83495496.18746  20390446.703                    20390453.664
 105084852.060 8  81884319.38746  19996983.555                    19996988.793
 11  7 26 17 14  0.0000000  0  9G06G07G16G03G19G20G10G13G23
 116038454.605 7  90419604.89645  22081383.555                    22081391.715
 120376319.818 7  93799763.48145  22906851.445                    22906859.547
 115896737.973 7  90309170.94645  22054417.227                    22054423.859
 109349511.541 8  85207442.97846  20808520.656                    20808528.246
 115202339.141 7  89768083.69045  21922275.203                    21922281.910
 125430710.460 7  97738244.44943  23868675.008                    23868684.281
 125501433.499 7  97793358.29443  23882129.641                    23882139.082
 107108937.113 8  83461536.42346  20382153.250                    20382160.250
 105100376.568 8  81896416.38047  19999938.109                    19999943.012
 11  7 26 17 14 30.0000000  0  9G06G07G16G03G19G20G10G13G23
 116062028.529 7  90437974.17545  22085869.953                    22085877.391
 120317439.860 7  93753883.01645  22895646.781                    22895654.727
 115980614.522 7  90374529.26945  22070377.906                    22070384.973
 109341698.424 8  85201354.83446  20807033.797                    20807041.133
 115131071.434 7  89712550.43945  21908713.156                    21908720.234
 125520132.731 6  97807923.93743  23885691.914                    23885701.789
 125482370.738 7  97778504.17643  23878501.555                    23878511.563
 107065810.513 8  83427931.28746  20373946.695                    20373953.684
 105116459.562 8  81908948.54847  20002998.328                    20003003.520
 11  7 26 17 15  0.0000000  0  9G06G07G16G03G19G20G10G13G23
 116086152.396 7  90456771.97245  22090460.617                    22090468.277
 120258581.147 7  93708019.09745  22884445.883                    22884453.867
 116064671.596 7  90440028.25845  22086373.711                    22086380.652
 109334511.962 7  85195754.99346  20805666.094                    20805674.078
 115060183.728 7  89657313.29445  21895223.859                    21895230.563
 125609541.139 7  97877592.66243  23902706.328                    23902715.883
 125463821.744 6  97764050.38943  23874972.586                    23874981.586
 107023141.558 8  83394682.75146  20365827.039                    20365833.609
 105133101.890 8  81921916.57446  20006165.664                    20006170.504
 11  7 26 17 15 30.0000000  0  9G06G07G16G03G19G20G10G13G23
 116110825.665 7  90475997.89145  22095155.992                    22095163.449
 120199743.353 7  93662171.49445  22873249.883                    22873257.699
 116148906.766 7  90505666.01945  22102403.383                    22102410.129
 109327952.212 8  85190643.50346  20804417.602                    20804425.691
 114989678.808 7  89602374.43245  21881807.094                    21881813.969
 125698932.791 6  97947248.31943  23919716.992                    23919726.652
 125445786.110 7  97749996.65043  23871540.406                    23871549.625
 106980932.036 8  83361792.21746  20357795.055                    20357801.781
 105150303.572 8  81935320.46746  20009438.367                    20009443.859
 11  7 26 17 16  0.0000000  0  9G06G07G16G03G19G20G10G13G23
 116136047.763 7  90495651.47545  22099955.648                    22099963.543
 120140926.776 7  93616340.43345  22862056.883                    22862065.266
 116233317.265 8  90571440.39445  22118466.070                    22118473.063
 109322020.019 8  85186021.01146  20803288.898                    20803296.605
 114919559.845 7  89547736.29545  21868464.094                    21868470.605
 125788304.436 7  98016888.35143  23936723.617                    23936734.016
 125428263.770 7  97736342.90043  23868205.500                    23868215.043
 106939184.245 8  83329261.47546  20349850.703                    20349857.344
 105168064.445 8  81949160.08146  20012818.703                    20012823.512
 11  7 26 17 16 30.0000000  0  9G06G07G16G03G19G20G10G13G23
 116161818.074 7  90515732.23245  22104859.180                    22104867.570
 120082131.789 7  93570526.19145  22850869.086                    22850877.551
 116317900.785 7  90637349.59545  22134561.805                    22134568.734
 109316716.303 8  85181888.25246  20802279.195                    20802287.949
 114849830.121 7  89493401.48345  21855195.008                    21855201.109
 125877653.990 6  98086511.20643  23953726.305                    23953737.301
 125411255.385 7  97723089.61444  23864968.625                    23864978.457
 106897900.631 8  83297092.42046  20341994.508                    20342001.500
 105186385.971 8  81963436.56746  20016304.859                    20016310.215
 11  7 26 17 17  0.0000000  0  9G06G07G16G03G19G20G10G13G23
 116188135.536 7  90536239.35745  22109867.289                    22109875.777
 120023357.962 7  93524728.42345  22839684.727                    22839692.949
 116402654.796 7  90703391.63545  22150689.805                    22150696.961
 109312041.197 8  85178245.31846  20801390.180                    20801397.918
 114780492.204 7  89439371.97445  21842000.164                    21842006.598
 125966978.921 6  98156114.85843  23970724.594                    23970734.801
 125394760.341 6  97710236.30644  23861830.102                    23861839.363
 106857083.032 8  83265286.48646  20334227.055                    20334233.953
 105205267.756 8  81978149.61946  20019898.109                    20019903.129
 11  7 26 17 17 30.0000000  0  9G06G07G16G03G19G20G10G13G23
 116215000.327 7  90557172.96545  22114979.570                    22114987.742
 119964605.980 7  93478947.68545  22828504.672                    22828512.984
 116487577.155 7  90769564.87345  22166850.109                    22166856.715
 109307995.373 8  85175092.72346  20800620.008                    20800628.078
 114711549.546 7  89385650.44245  21828880.563                    21828887.176
 126056275.935 6  98225696.73143  23987717.195                    23987727.664
 125378778.849 7  97697783.20144  23858788.875                    23858798.141
 106816734.085 8  83233845.73746  20326549.008                    20326556.172
 105224710.516 8  81993299.78946  20023597.867                    20023603.078
 11  7 26 17 18  0.0000000  0 10G08G06G07G16G03G19G20G10G13G23
 131168319.02115 102209161.39153  24960511.883                    24960521.445
 116242411.501 7  90578532.32045  22120195.703                    22120203.496
 119905875.416 7  93433183.64445  22817328.703                    22817336.969
 116572665.117 7  90835867.13545  22183042.250                    22183048.785
 109304579.350 8  85172430.89146  20799970.016                    20799978.082
 114643004.618 7  89332238.85045  21815836.992                    21815843.641
 126145542.077 6  98295254.56043  24004704.258                    24004714.512
 125363310.605 7  97685729.98843  23855846.477                    23855854.379
 106776855.417 8  83202771.44546  20318960.609                    20318967.465
 105244714.030 8  82008886.91646  20027404.602                    20027409.785
 11  7 26 17 18 30.0000000  0 10G08G06G07G16G03G19G20G10G13G23
 131102559.897 6 102157920.57343  24947997.992                    24948007.430
 116270368.144 7  90600316.71145  22125515.898                    22125523.953
 119847166.628 7  93387436.56445  22806156.531                    22806164.828
 116657916.458 7  90902296.72245  22199264.617                    22199271.055
 109301794.054 8  85170260.53946  20799439.977                    20799447.832
 114574860.497 7  89279139.55545  21802869.336                    21802876.234
 126234775.037 6  98364786.55243  24021685.211                    24021695.031
 125348355.514 7  97674076.68944  23852999.281                    23853009.016
 106737449.492 8  83172065.52246  20311461.758                    20311468.512
 105265278.357 8  82024911.05146  20031318.141                    20031323.094
 11  7 26 17 19  0.0000000  0 10G08G06G07G16G03G19G20G10G13G23
 131036757.036 6 102106645.67943  24935475.727                    24935485.676
 116298869.625 7  90622525.66345  22130939.227                    22130946.848
 119788479.668 7  93341706.49245  22794988.305                    22794996.805
 116743328.688 7  90968851.66945  22215518.070                    22215524.742
 109299639.364 8  85168581.57046  20799029.859                    20799038.125
 114507120.357 7  89226355.05545  21789978.844                    21789985.422
 126323971.921 6  98434290.42843  24038657.609                    24038668.906
 125333912.905 7  97662822.70143  23850251.336                    23850260.969
 106698518.133 8  83141729.41046  20304053.555                    20304060.145
 105286403.900 8  82041372.48646  20035337.578                    20035343.152
 11  7 26 17 19 30.0000000  0 10G08G06G07G16G03G19G20G10G13G23
 130970910.530 6 102055336.77243  24922946.188                    24922955.645
 116327915.503 7  90645158.81745  22136467.102                    22136474.922
 119729815.078 7  93295993.85145  22783825.711                    22783833.465
 116828899.497 7  91035530.19945  22231801.695                    22231808.238
 109298116.109 8  85167394.60946  20798740.039                    20798748.508
 114439787.398 7  89173887.84245  21777166.070                    21777173.031
 126413130.518 6  98503764.46943  24055625.266                    24055635.441
 125319983.283 7  97651968.41543  23847600.688                    23847609.828
 106660064.200 8  83111765.28546  20296735.844                    20296742.277
 105308091.327 8  82058271.75446  20039464.750                    20039470.238
 11  7 26 17 20  0.0000000  0 10G08G06G07G16G03G19G20G10G13G23
 130905019.835 6 102003993.46543  24910407.281                    24910417.348
 116357504.959 7  90668215.53445  22142097.047                    22142105.711
 119671172.656 7  93250298.48445  22772666.086                    22772674.258
 116914626.503 7  91102330.44245  22248115.109                    22248121.797
 109297224.494 8  85166699.85346  20798570.250                    20798578.559
 114372864.356 7  89121740.03645  21764431.070                    21764437.539
 126502247.630 6  98573206.16543  24072584.148                    24072593.895
 125306566.155 7  97641513.51243  23845047.609                    23845056.609
 106622089.491 8  83082174.58746  20289509.242                    20289516.219
 105330340.347 8  82075608.62346  20043698.625                    20043703.836
 11  7 26 17 20 30.0000000  0 10G08G06G07G16G03G19G20G10G13G23
 130839084.285 6 101952615.19043  24897860.125                    24897870.008
 116387637.296 7  90691695.28145  22147831.688                    22147839.586
 119612552.083 7  93204620.14445  22761510.648                    22761518.781
 117000507.089 7  91169250.34445  22264457.891                    22264464.313
 109296964.862 8  85166497.54345  20798521.008                    20798529.074
 114306353.775 7  89069913.64345  21751774.539                    21751781.059
 126591320.559 6  98642613.41543  24089534.336                    24089544.344
 125293661.389 7  97631457.85243  23842592.242                    23842600.438
 106584596.176 8  83052959.02146  20282374.703                    20282381.668
 105353150.709 8  82093382.90746  20048039.492                    20048044.727
 11  7 26 17 21  0.0000000  0 10G08G06G07G16G03G19G20G10G13G23
 130773103.727 6 101901201.76643  24885304.180                    24885315.016
 116418311.455 7  90715597.21445  22153668.313                    22153676.574
 119553954.071 7  93158959.39245  22750359.938                    22750367.918
 117086539.238 7  91236288.35745  22280829.320                    22280836.082
 109297337.741 8  85166788.10246  20798591.914                    20798599.934
 114240258.983 7  89018411.22545  21739197.109                    21739203.156
 126680346.862 6  98711984.38743  24106474.617                    24106485.758
 125281268.447 7  97621801.01743  23840233.133                    23840242.723
 106547586.014 8  83024119.93046  20275332.164                    20275338.875
 105376523.276 8  82111595.27646  20052487.227                    20052492.148
 11  7 26 17 21 30.0000000  0 10G08G06G07G16G03G19G20G10G13G23
 130707078.046 6 101849753.23543  24872739.484                    24872750.410
 116449526.980 7  90739920.99945  22159608.570                    22159616.426
 119495379.389 7  93113316.79945  22739213.156                    22739221.449
 117172720.525 7  91303442.56045  22297229.234                    22297236.254
 109298343.608 8  85167571.88546  20798783.102                    20798791.121
 114174583.242 7  88967235.34545  21726699.742                    21726705.848
 126769324.177 6  98781317.15343  24123407.211                    24123417.586
 125269387.173 7  97612542.86943  23837972.500                    23837981.875
 106511061.769 8  82995659.48146  20268381.594                    20268388.477
 105400458.164 8  82130245.80946  20057041.961                    20057046.813
 11  7 26 17 22  0.0000000  0 10G08G06G07G16G03G19G20G10G13G23
 130641006.552 6 101798268.98343  24860166.766                    24860177.094
 116481282.806 7  90764665.80345  22165651.328                    22165659.289
 119436827.320 7  93067691.83344  22728071.055                    22728079.168
 117259048.384 7  91370710.98945  22313656.742                    22313663.230
 109299982.645 8  85168849.06046  20799094.883                    20799103.184
 114109329.002 7  88916387.90945  21714282.016                    21714288.238
 126858249.328 6  98850609.29643  24140328.531                    24140339.141
 125258017.067 7  97603683.02243  23835808.906                    23835818.195
 106475025.096 8  82967578.94746  20261523.969                    20261530.895
 105424954.853 8  82149334.11746  20061703.508                    20061708.461
 11  7 26 17 22 30.0000000  0 10G08G06G07G16G03G19G20G10G13G23
 130574889.344 6 101746749.16843  24847585.188                    24847595.656
 116513577.823 7  90789830.74745  22171796.680                    22171805.457
 119378298.135 7  93022084.70745  22716933.625                    22716940.973
 117345520.651 7  91438091.94545  22330112.031                    22330118.758
 109302255.059 8  85170619.77346  20799527.438                    20799535.531
 114044499.336 8  88865871.30445  21701945.070                    21701951.523
 126947119.817 6  98919858.83443  24157241.688                    24157250.977
 125247158.200 7  97595221.56643  23833742.766                    23833751.605
 106439478.168 8  82939880.04246  20254759.664                    20254766.563
 105450013.638 8  82168860.42446  20066471.758                    20066477.426
 11  7 26 17 23  0.0000000  0 10G08G06G07G16G03G19G20G10G13G23
 130508725.520 6 101695192.97343  24834993.961                    24835005.473
 116546411.621 7  90815415.51945  22178045.414                    22178053.805
 119319792.254 7  92976495.74045  22705800.086                    22705807.984
 117432134.945 7  91505583.57845  22346593.867                    22346600.938
 109305160.931 8  85172884.09346  20800080.367                    20800088.559
 113980096.757 7  88815687.49545  21689690.031                    21689696.125
 127035933.133 6  98989063.83143  24174141.727                    24174151.434
 125236809.888 7  97587157.91743  23831773.398                    23831781.977
 106404422.951 8  82912564.28246  20248088.938                    20248095.770
 105475634.514 8  82188824.71446  20071347.328                    20071352.637
 11  7 26 17 23 30.0000000  0 10G08G06G07G16G03G19G20G10G13G23
 130442515.079 6 101643600.47043  24822394.664                    24822405.137
 116579783.166 7  90841419.29745  22184395.984                    22184403.887
 119261309.909 7  92930925.11445  22694672.055                    22694679.488
 117518888.912 7  91573184.04345  22363102.789                    22363109.363
 109308700.981 8  85175642.57745  20800754.242                    20800762.176
 113916124.379 7  88765838.90645  21677515.805                    21677522.328
 127124686.084 6  99058221.82343  24191030.273                    24191040.902
 125226972.200 7  97579492.20143  23829901.375                    23829910.508
 106369861.545 8  82885633.30646  20241512.227                    20241518.762
 105501817.445 8  82209226.96646  20076330.078                    20076335.250
 11  7 26 17 24  0.0000000  0 10G08G06G07G16G03G19G20G10G13G23
 130376257.675 6 101591971.39643  24809786.406                    24809796.535
 116613691.287 7  90867841.19145  22190847.617                    22190855.875
 119202851.192 7  92885372.89145  22683547.328                    22683555.094
 117605780.034 7  91640891.37645  22379637.883                    22379644.895
 109312874.808 8  85178894.92045  20801548.641                    20801555.820
 113852585.060 7  88716327.76845  21665424.961                    21665431.527
 127213376.683 6  99127331.20143  24207908.266                    24207918.625
 125217644.453 7  97572223.78143  23828126.242                    23828135.941
 106335795.833 8  82859088.60346  20235029.563                    20235036.418
 105528562.425 8  82230067.19246  20081419.258                    20081424.816
 11  7 26 17 24 30.0000000  0 10G08G06G07G16G03G19G20G10G13G23
 130309952.755 6 101540305.26643  24797169.609                    24797179.238
 116648135.202 7  90894680.59445  22197402.523                    22197411.012
 119144416.289 7  92839839.22545  22672427.266                    22672435.105
 117692806.048 7  91708703.82945  22396197.883                    22396204.781
 109317682.446 8  85182641.13346  20802463.484                    20802471.180
 113789481.695 7  88667156.33745  21653416.750                    21653423.348
 127302002.013 6  99196389.69543  24224773.445                    24224783.711
 125208826.148 6  97565352.36743  23826448.531                    23826456.953
 106302227.842 8  82832931.72446  20228642.039                    20228649.020
 105555869.148 8  82251345.12246  20086615.648                    20086621.145
 11  7 26 17 25  0.0000000  0 10G08G06G07G16G03G19G20G10G13G23
 130243600.194 6 101488601.95143  24784542.703                    24784552.508
 116683113.934 7  90921936.73745  22204058.273                    22204067.395
 119086005.370 7  92794324.24845  22661311.898                    22661320.113
 117779964.790 7  91776619.70045  22412783.945                    22412790.730
 109323124.239 8  85186881.50345  20803498.852                    20803506.809
 113726816.983 7  88618326.71745  21641492.133                    21641498.379
 127390559.423 6  99265395.31143  24241624.273                    24241635.973
 125200516.844 7  97558877.54643  23824866.734                    23824875.379
 106269159.611 8  82807164.27346  20222349.094                    20222356.035
 105583737.613 8  82273060.78346  20091918.758                    20091924.109
 11  7 26 17 25 30.0000000  0 10G08G06G07G16G03G19G20G10G13G23
 130177199.920 6 101436861.56443  24771908.094                    24771916.852
 116718626.655 7  90949608.97045  22210816.305                    22210824.617
 119027618.697 7  92748828.17145  22650201.422                    22650209.320
 117867253.968 7  91844637.20845  22429394.547                    22429400.895
 109329200.337 8  85191616.13045  20804655.313                    20804662.883
 113664593.661 7  88569841.02545  21629651.313                    21629657.590
 127479046.411 6  99334346.04343  24258463.531                    24258474.785
 125192716.170 7  97552799.08143  23823382.570                    23823390.594
 106236593.142 8  82781787.80446  20216151.922                    20216158.629
 105612167.821 8  82295214.16946  20097328.547                    20097334.168
 11  7 26 17 26  0.0000000  0 10G08G06G07G16G03G19G20G10G13G23
 130110751.351 6 101385083.51643  24759262.977                    24759271.996
 116754671.912 7  90977696.17745  22217675.555                    22217684.188
 118969256.391 7  92703351.05945  22639095.453                    22639103.328
 117954671.133 7  91912754.44845  22446029.008                    22446035.961
 109335910.782 8  85196845.03946  20805932.172                    20805940.012
 113602814.614 7  88521701.52645  21617894.898                    21617901.133
 127567460.408 5  99403239.77742  24275288.625                    24275299.664
 125185423.443 6  97547116.40543  23821995.422                    23822002.949
 106204530.151 8  82756803.65146  20210050.469                    20210057.395
 105641159.481 8  82317805.05146  20102845.836                    20102851.105
 11  7 26 17 26 30.0000000  0 10G08G06G07G16G03G19G20G10G13G23
 130044254.246 6 101333267.63142  24746608.961                    24746618.918
 116791249.351 7  91006198.05345  22224636.023                    22224644.285
 118910918.995 7  92657893.38145  22627994.133                    22628002.055
 118042214.254 7  91980969.82445  22462688.320                    22462695.074
 109343255.914 8  85202568.51845  20807329.719                    20807338.082
 113541483.421 7  88473911.01345  21606224.164                    21606230.430
 127655798.92715  99472074.85353  24292098.008                    24292109.813
 125178638.394 7  97541829.33143  23820703.555                    23820712.863
 106172973.124 8  82732213.76046  20204045.414                    20204052.363
 105670713.018 8  82340833.74446  20108469.641                    20108475.051
 11  7 26 17 27  0.0000000  0 10G08G06G07G16G03G19G20G10G13G23
 129977708.321 6 101281413.69442  24733945.695                    24733955.352
 116828357.649 7  91035113.60445  22231697.078                    22231705.848
 118852606.754 7  92612455.27945  22616897.461                    22616905.691
 118129881.015 7  92049281.54745  22479370.570                    22479377.715
 109351235.299 8  85208786.22146  20808848.047                    20808856.281
 113480601.515 7  88426470.57945  21594638.734                    21594645.211
 127744059.303 5  99540848.95443  24308893.961                    24308905.715
 125172360.476 7  97536937.42643  23819508.961                    23819518.910
 106141923.756 8  82708019.44146  20198137.055                    20198144.113
 105700827.645 8  82364299.66246  20114200.625                    20114206.109
 11  7 26 17 27 30.0000000  0 10G08G06G07G16G03G19G20G10G13G23
 129911113.059 6 101229521.36743  24721272.523                    24721282.809
 116865995.508 7  91064441.79745  22238859.703                    22238867.984
 118794320.035 7  92567037.07345  22605806.281                    22605814.555
 118217669.001 7  92117687.73645  22496076.570                    22496083.172
 109359849.111 8  85215498.27846  20810487.430                    20810495.121
 113420172.182 7  88379382.81045  21583139.344                    21583145.699
 127832238.815 5  99609560.05342  24325674.539                    24325686.172
 125166589.074 6  97532440.16843  23818410.961                    23818420.539
 106111383.917 8  82684222.15846  20192325.641                    20192332.270
 105731503.221 8  82388202.68646  20120037.664                    20120042.891
 11  7 26 17 28  0.0000000  0 10G08G06G07G16G03G19G20G10G13G23
 129844468.324 6 101177590.46243  24708590.133                    24708600.777
 116904161.836 7  91094181.78845  22246122.484                    22246130.961
 118736058.642 7  92521638.61145  22594719.273                    22594727.211
 118305575.927 7  92186186.60945  22512804.430                    22512811.531
 109369096.852 8  85222704.30946  20812247.234                    20812255.402
 113360197.900 7  88332649.63045  21571726.695                    21571733.383
 127920334.794 5  99678206.07243  24342439.016                    24342450.238
 125161323.530 7  97528337.14443  23817409.156                    23817417.953
 106081355.308 7  82660823.24146  20186611.109                    20186618.113
 105762739.368 8  82412542.51546  20125981.852                    20125987.234
 11  7 26 17 28 30.0000000  0 10G08G06G07G16G03G19G20G10G13G23
 129777774.049 6 101125620.90742  24695898.477                    24695909.215
 116942855.576 7  91124332.73945  22253485.484                    22253494.324
 118677822.867 7  92476260.09145  22583637.438                    22583644.945
 118393599.362 7  92254776.26945  22529554.961                    22529561.840
 109378978.620 8  85230404.37646  20814127.742                    20814135.480
 113300681.885 7  88286273.54045  21560400.500                    21560407.559
 128008344.548 5  99746784.87943  24359186.914                    24359198.363
 125156563.374 6  97524627.90843  23816503.375                    23816512.262
 106051839.733 8  82637824.08446  20180994.586                    20181002.129
 105794536.085 8  82437319.14546  20132032.711                    20132037.723
 11  7 26 17 29  0.0000000  0 10G08G06G07G16G03G19G20G10G13G23
 129711029.685 6 101073612.41143  24683198.281                    24683207.820
 116982075.379 7  91154893.61145  22260949.344                    22260957.215
 118619613.288 7  92430901.95544  22572560.148                    22572568.426
 118481737.047 7  92323454.94345  22546326.680                    22546334.137
 109389494.473 8  85238598.53346  20816128.789                    20816136.813
 113241626.594 7  88240256.46645  21549163.180                    21549169.766
 128096265.937 6  99815294.84343  24375918.805                    24375929.695
 125152307.690 7  97521311.79644  23815692.711                    23815702.008
 106022839.406 7  82615226.42146  20175476.305                    20175483.250
 105826892.963 8  82462532.27046  20138189.859                    20138195.238
 11  7 26 17 29 30.0000000  0 10G08G06G07G16G03G19G20G10G13G23
 129644235.153 6 101021564.73643  24670487.078                    24670496.777
 117021820.277 7  91185863.63645  22268512.078                    22268520.582
 118561430.239 7  92385564.56645  22561488.758                    22561496.578
 118569987.135 7  92392221.20645  22563120.125                    22563127.246
 109400643.994 8  85247286.47346  20818250.742                    20818258.145
 113183034.511 7  88194600.32545  21538013.547                    21538020.141
 128184096.081 6  99883733.72243  24392631.680                    24392642.785
 125148555.837 7  97518388.25844  23814979.547                    23814988.820
 105994355.935 7  82593031.50046  20170055.875                    20170062.723
 105859809.636 8  82488181.60046  20144453.758                    20144458.723
 11  7 26 17 30  0.0000000  0 10G08G06G07G16G03G19G20G10G13G23
 129577390.051 7 100969477.69443  24657768.242                    24657776.719
 117062089.370 7  91217242.13745  22276175.234                    22276183.844
 118503273.323 7  92340247.49345  22550421.867                    22550429.363
 118658347.219 7  92461073.18745  22579934.930                    22579942.148
 109412427.272 8  85256468.23446  20820492.922                    20820500.719
 113124908.504 7  88149307.36246  21526952.602                    21526959.234
 128271832.545 6  99952099.58943  24409326.469                    24409338.605
 125145307.475 7  97515857.04744  23814361.469                    23814371.141
 105966391.253 8  82571240.82646  20164734.242                    20164741.227
 105893285.850 8  82514266.93646  20150824.039                    20150829.477
 11  7 26 17 30 30.0000000  0 10G08G06G07G16G03G19G20G10G13G23
 129510493.925 6 100917350.90143  24645036.898                    24645046.348
 117102880.973 7  91249027.79745  22283938.008                    22283945.555
 118445143.558 7  92294951.62445  22539359.680                    22539367.797
 118746814.915 7  92530009.02845  22596769.789                    22596776.848
 109424843.766 8  85266143.42546  20822855.523                    20822863.633
 113067251.034 7  88104379.49845  21515980.734                    21515987.039
 128359472.823 6 100020390.48843  24426004.672                    24426016.441
 125142561.658 6  97513717.44643  23813838.477                    23813847.578
 105938946.780 8  82549855.51646  20159511.875                    20159518.918
 105927320.821 8  82540787.66146  20157300.781                    20157305.895
 11  7 26 17 31  0.0000000  0 10G08G06G07G16G03G19G20G10G13G23
 129443546.904 6 100865184.43043  24632296.969                    24632307.695
 117144194.047 7  91281219.77545  22291799.672                    22291807.742
 118387041.287 7  92249677.17745  22528302.914                    22528311.141
 118835388.503 7  92599027.35945  22613624.773                    22613631.773
 109437893.585 8  85276312.10846  20825338.625                    20825346.266
 113010064.969 7  88059818.95745  21505098.461                    21505105.359
 128447014.581 6 100088604.60442  24442664.156                    24442675.199
 125140318.094 6  97511969.18243  23813412.703                    23813420.340
 105912025.062 8  82528877.54446  20154388.906                    20154396.195
 105961914.914 8  82567744.06146  20163883.938                    20163889.281
 11  7 26 17 31 30.0000000  0 10G08G06G07G16G03G19G20G10G13G23
 129376548.447 6 100812977.86743  24619547.633                    24619558.035
 117186027.709 7  91313817.40345  22299760.195                    22299768.059
 118328966.691 7  92204424.25445  22517252.141                    22517260.305
 118924065.553 7  92668126.32345  22630498.953                    22630506.918
 109451576.321 8  85286973.96446  20827942.578                    20827950.238
 112953353.144 7  88015627.96545  21494306.523                    21494313.027
 128534455.193 6 100156739.92643  24459303.500                    24459314.867
 125138575.805 6  97510611.53843  23813080.297                    23813088.133
 105885627.627 8  82508308.10346  20149365.680                    20149372.492
 105997067.486 8  82595135.64646  20170573.219                    20170578.520
 11  7 26 17 32  0.0000000  0 10G08G06G07G16G03G19G20G10G13G23
 129309498.541 6 100760731.22843  24606788.313                    24606798.262
 117228380.173 7  91346819.31745  22307819.250                    22307827.582
 118270920.081 7  92159193.16045  22506205.922                    22506213.785
 119012843.855 7  92737304.17545  22647392.945                    22647400.883
 109465891.743 8  85298128.83046  20830666.836                    20830674.809
 112897117.794 7  87971808.24146  21483605.250                    21483611.914
 128621792.029 6 100224794.41342  24475923.266                    24475934.895
 125137333.842 7  97509643.78943  23812844.391                    23812852.844
 105859756.006 7  82488148.39646  20144442.250                    20144449.266
 106032777.918 8  82622961.91946  20177368.891                    20177374.320
 11  7 26 17 32 30.0000000  0 10G08G06G07G16G03G19G20G10G13G23
 129242396.964 6 100708444.37243  24594019.625                    24594029.707
 117271250.552 7  91380224.79345  22315977.563                    22315985.574
 118212902.158 7  92113984.41345  22495165.359                    22495173.082
 119101721.437 7  92806559.38144  22664306.094                    22664313.563
 109480839.532 8  85309776.45046  20833511.125                    20833518.977
 112841361.787 7  87928362.02446  21472994.875                    21473001.266
 128709022.903 6 100292766.33342  24492523.125                    24492534.977
 125136591.630 6  97509065.41343  23812702.570                    23812711.527
 105834412.516 8  82468400.21246  20139619.672                    20139626.734
 106069046.056 8  82651222.77146  20184270.117                    20184275.516
 11  7 26 17 33  0.0000000  0 10G08G06G07G16G03G19G20G10G13G23
 129175243.333 7 100656116.95443  24581241.055                    24581251.008
 117314637.422 7  91414032.76045  22324233.719                    22324241.645
 118154912.984 7  92068798.06845  22484130.914                    22484138.777
 119190695.760 7  92875889.97045  22681237.438                    22681244.746
 109496419.638 8  85321916.79045  20836476.055                    20836484.129
 112786087.571 7  87885291.24846  21462476.719                    21462483.480
 128796145.194 6 100360653.59742  24509102.141                    24509113.660
 125136348.173 7  97508875.68043  23812656.070                    23812665.164
 105809598.268 8  82449064.43046  20134897.813                    20134904.586
 106105871.280 8  82679917.71446  20191277.883                    20191283.359
 11  7 26 17 33 30.0000000  0 10G08G06G07G16G03G19G20G10G13G23
 129108037.381 7 100603748.71943  24568451.648                    24568461.867
 117358539.203 7  91448241.91745  22332587.977                    22332596.148
 118096952.393 7  92023633.98845  22473101.055                    22473108.984
 119279765.029 7  92945294.54844  22698186.500                    22698193.949
 109512631.219 8  85334549.19245  20839560.914                    20839568.520
 112731297.548 7  87842597.75246  21452050.602                    21452057.242
 128883156.362 5 100428454.30242  24525659.727                    24525672.242
 125136602.537 6  97509073.83143  23812704.664                    23812713.375
 105785315.055 8  82430142.44046  20130276.898                    20130283.742
 106143252.944 8  82709046.24746  20198391.625                    20198396.750
 11  7 26 17 34  0.0000000  0 10G08G06G07G16G03G19G20G10G13G23
 129040779.397 7 100551339.97643  24555653.695                    24555662.813
 117402955.085 7  91482851.68145  22341039.898                    22341048.609
 118039021.578 7  91978493.10045  22462077.359                    22462085.320
 119368927.075 7  93014771.45444  22715153.883                    22715160.484
 109529473.945 8  85347673.38746  20842765.969                    20842773.668
 112676994.638 7  87800283.82746  21441717.289                    21441723.676
 128970053.864 5 100496166.38242  24542196.195                    24542208.672
 125137354.217 6  97509659.52843  23812848.461                    23812856.727
 105761564.977 8  82411635.87146  20125757.313                    20125764.180
 106181190.764 8  82738608.15346  20205610.820                    20205616.281
 11  7 26 17 34 30.0000000  0 10G08G06G07G16G03G19G20G10G13G23
 128973468.580 7 100498890.09943  24542843.922                    24542853.379
 117447883.394 7  91517860.74045  22349589.969                    22349597.703
 117981120.529 7  91933375.43145  22451058.977                    22451067.523
 119458179.538 7  93084318.81544  22732138.430                    22732144.852
 109546947.315 8  85361288.97946  20846090.953                    20846098.742
 112623181.189 8  87758351.29246  21431476.727                    21431483.348
 129056835.454 5 100563788.18052  24558709.609                    24558722.789
 125138602.341 6  97510632.08243  23813085.547                    23813093.348
 105738349.407 8  82393545.80546  20121339.641                    20121346.352
 106219683.992 8  82768602.83546  20212935.563                    20212941.148
 11  7 26 17 35  0.0000000  0 10G08G06G07G16G03G19G20G10G13G23
 128906105.274 6 100446399.30943  24530025.156                    24530034.945
 117493322.970 7  91553268.18545  22358236.531                    22358244.707
 117923250.173 7  91888281.68245  22440047.477                    22440055.340
 119547520.796 7  93153935.34244  22749138.898                    22749145.699
 109565051.372 8  85375396.03445  20849536.234                    20849543.953
 112569859.893 7  87716802.26246  21421330.109                    21421336.477
 129143498.899 5 100631317.93642  24575201.758                    24575214.016
 125140346.459 6  97511991.09243  23813417.813                    23813425.828
 105715670.911 8  82375874.24646  20117024.219                    20117030.863
 106258732.492 8  82799030.20146  20220366.305                    20220372.172
 11  7 26 17 35 30.0000000  0 10G08G06G07G16G03G19G20G10G13G23
 128838688.651 6 100393866.90043  24517196.836                    24517205.977
 117539271.879 7  91589072.51145  22366980.461                    22366988.406
 117865410.029 7  91843211.45545  22429040.430                    22429048.086
 119636947.784 7  93223618.69244  22766156.211                    22766163.523
 109583784.875 8  85389993.55146  20853101.273                    20853109.176
 112517032.622 7  87675638.18046  21411277.570                    21411283.715
 129230041.088 6 100698753.19042  24591669.375                    24591682.727
 125142584.392 6  97513734.91843  23813843.602                    23813852.621
 105693529.420 7  82358621.12546  20112810.609                    20112817.402
 106298334.942 8  82829889.21546  20227902.781                    20227908.102
 11  7 26 17 36  0.0000000  0 10G08G06G07G16G03G19G20G10G13G23
 128771218.638 6 100341292.93943  24504357.539                    24504366.906
 117585728.859 7  91625272.73745  22375820.891                    22375829.734
 117807600.722 7  91798165.26345  22418039.172                    22418047.199
 119726458.869 7  93293367.54144  22783189.922                    22783197.023
 109603147.368 8  85405081.20445  20856785.445                    20856793.402
 112464702.103 7  87634861.17846  21401319.117                    21401325.668
 129316459.742 6 100766092.13642  24608115.367                    24608127.758
 125145315.782 7  97515863.25243  23814363.008                    23814371.859
 105671926.948 7  82341788.01746  20108699.523                    20108706.598
 106338491.085 8  82861179.67846  20235544.047                    20235549.328
 11  7 26 17 36 30.0000000  0 10G08G06G07G16G03G19G20G10G13G23
 128703694.983 6 100288677.15843  24491508.070                    24491517.465
 117632692.769 7  91661867.97545  22384757.508                    22384766.207
 117749822.921 7  91753143.60945  22407044.781                    22407052.480
 119816052.112 7  93363180.41444  22800238.914                    22800246.121
 109623138.218 8  85420658.48045  20860589.375                    20860597.328
 112412870.804 7  87594473.16446  21391456.211                    21391462.207
 129402752.610 6 100833333.10142  24624536.656                    24624548.590
 125148539.689 6  97518375.32943  23814976.891                    23814985.602
 105650865.467 8  82325376.45646  20104691.719                    20104698.766
 106379199.983 8  82892900.86446  20243290.625                    20243295.801
 11  7 26 17 37  0.0000000  0 10G08G06G07G16G03G19G20G10G13G23
 128636118.190 6 100236019.95743  24478647.594                    24478658.434
 117680161.840 7  91698856.84145  22393791.555                    22393799.246
 117692077.130 7  91708146.87945  22396055.984                    22396063.809
 119905725.475 7  93433055.72245  22817303.141                    22817310.727
 109643757.406 8  85436725.36245  20864513.289                    20864521.438
 112361541.417 7  87554476.26946  21381688.344                    21381694.715
 129488917.382 6 100900474.25542  24640932.984                    24640945.305
 125152255.324 6  97521270.59143  23815683.836                    23815692.887
 105630346.942 8  82309387.99146  20100787.664                    20100793.977
 106420461.529 8  82925052.68046  20251142.633                    20251148.047
 11  7 26 17 37 30.0000000  0 10G08G06G07G16G03G19G20G10G13G23
 128568487.348 6 100183320.68643  24465778.883                    24465788.012
 117728134.751 7  91736238.31145  22402919.516                    22402927.898
 117634363.699 7  91663175.40045  22385073.734                    22385080.688
 119995476.768 7  93502991.75144  22834382.117                    22834389.547
 109665003.701 8  85453280.90045  20868556.484                    20868564.508
 112310716.026 7  87514872.09446  21372016.891                    21372023.043
 129574951.620 6 100967513.70042  24657305.625                    24657317.035
 125156461.699 6  97524548.28043  23816483.758                    23816493.418
 105610372.494 8  82293823.47146  20096986.352                    20096993.582
 106462274.491 8  82957634.17746  20259099.336                    20259104.641
 11  7 26 17 38  0.0000000  0 10G08G06G07G16G03G19G20G10G13G23
 128500802.743 6 100130579.54743  24452898.102                    24452907.992
 117776610.115 7  91774011.31845  22412144.328                    22412152.703
 117576683.144 7  91618229.55245  22374096.984                    22374104.949
 120085304.241 7  93572987.15044  22851475.586                    22851483.316
 109686876.922 8  85470324.97545  20872718.508                    20872726.234
 112260397.195 7  87475662.63346  21362441.141                    21362447.391
 129660853.066 6 101034449.63043  24673651.930                    24673664.359
 125161157.967 6  97528207.68243  23817377.266                    23817387.066
 105590944.293 7  82278684.60246  20093289.320                    20093296.082
 106504638.690 8  82990645.19846  20267161.148                    20267166.668
 11  7 26 17 38 30.0000000  0 10G08G06G07G16G03G19G20G10G13G23
 128433063.968 6 100077796.12443  24440008.094                    24440017.840
 117825586.114 7  91812174.39645  22421464.422                    22421472.844
 117519035.617 7  91573309.40845  22363127.383                    22363134.379
 120175205.216 7  93643039.80844  22868584.039                    22868590.809
 109709376.024 8  85487856.72745  20877000.063                    20877008.133
 112210587.234 7  87436849.69946  21352962.688                    21352968.863
 129746619.014 6 101101280.07343  24689972.742                    24689984.934
 125166342.562 6  97532247.58943  23818364.703                    23818374.039
 105572062.919 8  82263971.83046  20089696.336                    20089703.051
 106547553.012 8  83024084.89546  20275327.508                    20275332.918
 11  7 26 17 39  0.0000000  0 10G08G06G07G16G03G19G20G10G13G23
 128365270.881 6 100024970.39243  24427107.852                    24427116.707
 117875061.372 7  91850726.52945  22430879.344                    22430887.344
 117461421.678 7  91528415.44745  22352163.742                    22352171.383
 120265177.803 7  93713148.27944  22885704.547                    22885712.320
 109732500.751 8  85505875.98545  20881400.648                    20881408.918
 112161288.415 8  87398435.05846  21343581.008                    21343587.605
 129832247.120 6 101168003.04842  24706267.727                    24706279.129
 125172014.522 6  97536667.22843  23819444.188                    23819453.336
 105553730.007 8  82249686.42846  20086207.734                    20086214.555
 106591016.648 8  83057952.62546  20283598.266                    20283603.402
 11  7 26 17 39 30.0000000  0 10G08G06G07G16G03G19G20G10G13G23
 128297423.360 6  99972102.28343  24414196.281                    24414205.586
 117925034.308 7  91889666.46045  22440388.703                    22440396.785
 117403841.972 7  91483548.16545  22341206.102                    22341213.980
 120355220.204 7  93783311.14344  22902839.563                    22902846.434
 109756250.262 8  85524382.07745  20885920.188                    20885928.660
 112112503.308 8  87360420.71446  21334297.555                    21334303.848
 129917735.089 6 101234616.75342  24722535.141                    24722547.426
 125178173.130 7  97541466.12743  23820615.484                    23820625.027
 105535947.555 8  82235829.96146  20082823.930                    20082830.629
 106635028.806 8  83092247.77346  20291973.734                    20291979.348
 11  7 26 17 40  0.0000000  0 10G08G06G07G16G03G19G20G10G13G23
 128229521.355 6  99919191.72643  24401274.828                    24401284.289
 117975503.469 7  91928993.06745  22449992.438                    22450000.879
 117346296.781 7  91438707.77645  22330256.023                    22330263.781
 120445330.130 7  93853526.64545  22919987.055                    22919994.414
 109780623.581 8  85543374.25745  20890557.922                    20890566.078
 112064234.013 7  87322808.29746  21325112.234                    21325118.559
 130003080.373 6 101301119.39043  24738775.984                    24738788.387
 125184817.033 6  97546643.13343  23821881.078                    23821888.766
 105518716.572 8  82222403.20646  20079544.992                    20079551.777
 106679588.656 8  83126969.68546  20300453.117                    20300458.734
 11  7 26 17 40 30.0000000  0 10G08G06G07G16G03G19G20G10G13G23
 128161564.657 7  99866238.48643  24388343.242                    24388352.492
 118026467.008 7  91968704.88945  22459690.609                    22459699.016
 117288786.439 7  91393894.54445  22319311.867                    22319319.586
 120535505.988 7  93923793.51144  22937146.555                    22937154.156
 109805620.190 8  85562852.12146  20895314.773                    20895323.105
 112016482.918 7  87285599.67546  21316025.766                    21316031.895
 130088280.806 6 101367509.08043  24754989.531                    24755002.258
 125191945.086 7  97552197.44043  23823236.609                    23823245.879
 105502038.674 8  82209407.42146  20076371.313                    20076377.891
 106724695.793 8  83162118.06546  20309036.617                    20309042.016
 11  7 26 17 41  0.0000000  0 10G08G06G07G16G03G19G20G10G13G23
 128093552.982 6  99813242.39843  24375400.969                    24375410.273
 118077923.744 7  92008801.02444  22469482.602                    22469490.766
 117231311.924 7  91349109.23045  22308375.508                    22308382.891
 120625745.670 7  93994110.10944  22954318.703                    22954326.176
 109831239.101 8  85582814.89645  20900189.719                    20900198.078
 111969252.299 8  87248796.62146  21307037.969                    21307044.188
 130173334.181 6 101433784.16942  24771175.352                    24771187.879
 125199556.142 6  97558128.09143  23824684.930                    23824693.563
 105485915.412 8  82196843.82746  20073303.133                    20073310.020
 106770349.206 8  83197692.10846  20317724.297                    20317729.602
 11  7 26 17 41 30.0000000  0  9G08G06G07G16G03G19G10G13G23
 128025487.790 6  99760204.64343  24362449.117                    24362458.051
 118129872.853 7  92049280.82945  22479367.797                    22479376.406
 117173874.715 7  91304352.98145  22297445.258                    22297453.160
 120716048.387 7  94064475.82044  22971502.266                    22971510.102
 109857480.720 8  85603262.88645  20905183.227                    20905191.957
 111922545.565 8  87212401.78546  21298150.039                    21298156.152
 125207650.268 6  97564435.19843  23826225.305                    23826233.414
 105470349.309 8  82184714.38946  20070341.383                    20070347.750
 106816549.100 8  83233691.98546  20326515.625                    20326521.191
 11  7 26 17 42  0.0000000  0  9G08G06G07G16G03G19G10G13G23
 127957367.969 6  99707124.33143  24349486.133                    24349494.801
 118182312.142 7  92090142.59645  22489346.766                    22489355.570
 117116474.665 7  91259625.67645  22286522.039                    22286529.707
 120806411.236 7  94134888.40344  22988697.688                    22988705.527
 109884343.271 8  85624194.72345  20910295.656                    20910303.711
 111876363.970 7  87176416.15446  21289361.805                    21289368.070
 125216225.719 6  97571117.30743  23827857.805                    23827865.422
 105455340.919 8  82173019.52946  20067484.813                    20067491.984
 106863293.727 8  83270116.32946  20335411.156                    20335416.535
 11  7 26 17 42 30.0000000  0  9G08G06G07G16G03G19G10G13G23
 127889192.910 6  99654000.91643  24336512.656                    24336522.063
 118235239.088 7  92131384.35045  22499418.664                    22499427.215
 117059111.633 7  91214927.22845  22275606.758                    22275614.063
 120896831.621 7  94205345.80244  23005904.508                    23005912.242
 109911825.698 8  85645609.58545  20915524.953                    20915533.195
 111830709.379 7  87140841.16646  21280673.992                    21280680.230
 125225280.541 7  97578173.00343  23829579.914                    23829588.195
 105440890.999 8  82161759.83146  20064735.102                    20064742.055
 106910581.245 8  83306963.70546  20344409.398                    20344415.488
 11  7 26 17 43  0.0000000  0  9G08G06G07G16G03G19G10G13G23
 127820962.404 6  99600834.37243  24323528.945                    24323538.527
 118288652.081 7  92173004.84444  22509582.734                    22509590.988
 117001785.651 7  91170257.63645  22264697.758                    22264705.957
 120987307.152 7  94275846.18244  23023121.930                    23023128.500
 109939926.069 8  85667505.96545  20920872.297                    20920880.531
 111785583.857 7  87105678.42946  21272086.703                    21272093.527
 125234812.840 7  97585600.69143  23831394.461                    23831402.668
 105427000.612 8  82150936.13846  20062091.930                    20062098.715
 106958410.950 8  83344233.56846  20353511.586                    20353517.668
 11  7 26 17 43 30.0000000  0  9G08G06G07G16G03G19G10G13G23
 127752676.746 6  99547624.82743  24310534.273                    24310543.570
 118342549.659 7  92215002.94145  22519839.094                    22519847.711
 116944497.912 7  91125617.86745  22253796.445                    22253803.633
 121077836.535 7  94346388.50644  23040349.438                    23040356.043
 109968644.327 8  85689883.79545  20926337.352                    20926345.254
 111740989.745 8  87070929.79046  21263600.734                    21263607.230
 125244822.190 7  97593400.15743  23833298.914                    23833308.016
 105413671.660 8  82140549.92946  20059555.516                    20059562.520
 107006782.179 8  83381925.38846  20362716.102                    20362721.785
 11  7 26 17 44  0.0000000  0  9G08G06G07G16G03G19G10G13G23
 127684335.391 6  99494371.88743  24297529.414                    24297538.340
 118396930.058 7  92257377.25645  22530187.289                    22530195.512
 116887248.617 7  91081008.04145  22242902.391                    22242909.930
 121168417.660 7  94416971.18644  23057586.055                    23057593.262
 109997979.213 8  85712742.14046  20931919.602                    20931927.551
 111696929.110 8  87036596.84546  21255216.367                    21255222.414
 125255306.887 7  97601570.02243  23835294.188                    23835303.508
 105400905.005 8  82130601.87146  20057126.172                    20057133.133
 107055693.774 8  83420038.27646  20372023.813                    20372029.453
 11  7 26 17 44 30.0000000  0  9G08G06G07G16G03G19G10G13G23
 127615938.481 6  99441075.61143  24284513.914                    24284522.938
 118451791.395 7  92300126.32845  22540627.281                    22540635.531
 116830038.636 7  91036428.85645  22232015.492                    22232022.320
 121259048.962 7  94487592.94244  23074832.641                    23074839.656
 110027929.845 8  85736080.28245  20937618.938                    20937627.336
 111653403.848 7  87002681.07046  21246933.773                    21246940.211
 125266265.877 7  97610109.48643  23837379.172                    23837389.094
 105388701.944 8  82121092.98146  20054804.172                    20054810.977
 107105144.528 8  83458571.28846  20381433.633                    20381439.492
 11  7 26 17 45  0.0000000  0  9G08G06G07G16G03G19G10G13G23
 127547485.902 6  99387735.98943  24271487.570                    24271496.613
 118507132.161 7  92343248.98245  22551158.109                    22551166.715
 116772868.335 7  90991880.57345  22221135.977                    22221143.672
 121349728.105 7  94558251.98644  23092088.352                    23092095.895
 110058495.027 8  85759897.29345  20943435.695                    20943443.398
 111610416.380 8  86969184.35846  21238753.688                    21238760.102
 125277697.841 7  97619017.45343  23839555.344                    23839564.781
 105377063.835 8  82112024.30846  20052589.398                    20052596.395
 107155133.487 8  83497523.68346  20390946.570                    20390952.246
 11  7 26 17 45 30.0000000  0  9G08G06G07G16G03G19G10G13G23
 127478977.600 6  99334352.93443  24258451.664                    24258459.902
 118562950.637 7  92386743.89145  22561780.031                    22561788.652
 116715738.654 7  90947363.96745  22210264.906                    22210272.391
 121440453.438 7  94628947.01844  23109352.813                    23109360.566
 110089674.060 7  85784192.62145  20949368.961                    20949376.574
 111567969.039 7  86936108.51246  21230676.500                    21230682.496
 125289601.745 6  97628293.20243  23841820.078                    23841829.781
 105365992.392 8  82103397.19146  20050482.469                    20050489.375
 107205660.107 8  83536895.03746  20400561.602                    20400567.211
 11  7 26 17 46  0.0000000  0  9G08G06G07G16G03G19G10G13G23
 127410413.443 6  99280926.38343  24245403.992                    24245412.895
 118619244.875 7  92430609.52345  22572492.422                    22572501.375
 116658649.832 7  90902879.16845  22199400.977                    22199408.449
 121531222.681 7  94699676.24344  23126625.523                    23126632.941
 110121465.503 8  85808965.18645  20955418.516                    20955426.313
 111526063.485 7  86903454.85146  21222701.766                    21222707.930
 125301975.882 7  97637935.38343  23844174.742                    23844184.629
 105355488.144 8  82095212.04146  20048483.586                    20048490.703
 107256722.805 8  83576684.11246  20410278.555                    20410284.082
 11  7 26 17 46 30.0000000  0  9G08G06G07G16G03G19G10G13G23
 127341793.375 6  99227456.26244  24232345.922                    24232354.484
 118676012.833 7  92474844.27745  22583295.023                    22583303.508
 116601602.431 7  90858426.67045  22188545.773                    22188552.270
 121622034.172 7  94770438.41144  23143906.641                    23143913.840
 110153868.331 8  85834214.13145  20961584.617                    20961592.395
 111484701.615 7  86871224.83646  21214831.273                    21214837.344
 125314818.870 7  97647942.87243  23846619.109                    23846628.512
 105345552.178 8  82087469.70946  20046593.023                    20046599.711
 107308320.424 8  83616890.00146  20420097.273                    20420102.926
 11  7 26 17 47  0.0000000  0  9G08G06G07G16G03G19G10G13G23
 127273117.911 6  99173942.93343  24219277.109                    24219286.082
 118733253.682 7  92519447.50845  22594188.383                    22594196.145
 116544597.714 7  90814007.41045  22177697.539                    22177704.996
 121712886.526 7  94841232.39544  23161195.352                    23161202.902
 110186881.822 8  85859938.92945  20967866.734                    20967874.793
 111443886.260 7  86839420.67446  21207064.125                    21207070.492
 125328129.807 7  97658314.99143  23849152.359                    23849162.090
 105336186.950 8  82080172.11346  20044810.836                    20044817.586
 107360452.508 8  83657512.35946  20430017.828                    20430023.668
 11  7 26 17 47 30.0000000  0  9G08G06G07G16G03G19G10G13G23
 127204386.339 6  99120385.96943  24206197.711                    24206207.430
 118790964.661 7  92564417.08845  22605170.141                    22605178.176
 116487635.681 7  90769621.41845  22166858.344                    22166865.602
 121803777.615 7  94912056.57744  23178491.547                    23178498.945
 110220504.552 8  85886138.44646  20974265.008                    20974273.121
 111403618.607 8  86808043.29446  21199401.078                    21199407.719
 125341906.855 7  97669050.31644  23851773.945                    23851783.926
 105327392.216 8  82073319.05646  20043137.117                    20043143.949
 107413117.118 8  83698549.67646  20440039.531                    20440045.258
 11  7 26 17 48  0.0000000  0  9G08G06G07G16G03G19G10G13G23
 127135598.544 6  99066785.15343  24193107.055                    24193117.195
 118849144.025 7  92609751.64145  22616241.508                    22616250.109
 116430716.749 7  90725269.02445  22156026.836                    22156034.020
 121894705.182 7  94982909.17544  23195794.313                    23195801.531
 110254734.982 8  85912811.50445  20980778.781                    20980786.918
 111363900.573 7  86777094.18846  21191842.945                    21191849.145
 125356148.402 7  97680147.59843  23854483.406                    23854493.277
 105319169.080 8  82066911.40046  20041572.375                    20041578.770
 107466313.040 8  83740000.99946  20450162.336                    20450167.828
 11  7 26 17 48 30.0000000  0  9G08G06G07G16G03G19G10G13G23
 127066754.915 6  99013140.83943  24180006.828                    24180016.059
 118907790.186 7  92655449.92445  22627400.984                    22627409.969
 116373841.927 7  90680950.99745  22145203.945                    22145211.547
 121985667.686 7  95053788.99544  23213104.336                    23213111.371
 110289572.258 8  85939957.43145  20987408.258                    20987416.246
 111324734.676 8  86746575.32446  21184389.977                    21184396.469
 125370853.297 7  97691605.90143  23857282.063                    23857291.570
 105311519.283 8  82060950.50446  20040116.844                    20040123.406
 107520039.498 8  83781865.72346  20460385.883                    20460391.922
 11  7 26 17 49  0.0000000  0  9G08G06G07G16G03G19G10G13G23
 126997855.699 6  98959453.20043  24166895.609                    24166904.805
 118966901.317 7  92701510.52045  22638649.773                    22638658.641
 116317011.909 7  90636667.88145  22134389.359                    22134397.121
 122076663.204 7  95124694.55344  23230419.594                    23230426.934
 110325015.348 8  85967575.41645  20994152.617                    20994160.387
 111286122.655 8  86716488.04146  21177042.672                    21177048.906
 125386019.881 7  97703423.97843  23860168.102                    23860177.734
 105304443.794 8  82055437.12146  20038770.172                    20038777.262
 107574295.230 8  83824142.87446  20470710.750                    20470716.449
 11  7 26 17 49 30.0000000  0  9G08G06G07G16G03G19G10G13G23
 126928900.589 6  98905722.01643  24153774.281                    24153783.457
 119026475.502 7  92747931.93845  22649986.398                    22649995.176
 116260227.330 7  90592420.16445  22123583.992                    22123591.203
 122167690.082 7  95195624.53544  23247741.164                    23247749.207
 110361062.581 8  85995664.15445  21001012.281                    21001020.109
 111248066.147 7  86686833.63946  21169801.023                    21169807.051
 125401646.753 6  97715600.72643  23863142.555                    23863151.480
 105297943.442 8  82050371.89046  20037533.594                    20037540.219
 107629078.966 8  83866831.45446  20481135.617                    20481141.418
 11  7 26 17 50  0.0000000  0  9G08G06G07G16G03G19G10G13G23
 126859889.593 6  98851947.26343  24140642.008                    24140651.012
 119086510.702 7  92794712.59745  22661410.328                    22661418.863
 116203488.764 7  90548208.30845  22112786.531                    22112794.371
 122258746.347 7  95266577.42044  23265069.133                    23265076.359
 110397712.822 8  86024222.77945  21007986.461                    21007994.445
 111210567.304 7  86657613.77346  21162665.266                    21162670.938
 125417732.365 6  97728134.92743  23866203.094                    23866211.672
 105292019.345 8  82045755.69346  20036406.328                    20036413.344
 107684389.328 8  83909930.37746  20491661.047                    20491666.828
 11  7 26 17 50 30.0000000  0  9G08G06G07G16G03G19G10G13G23
 126790822.666 6  98798128.93843  24127499.172                    24127508.316
 119147005.168 7  92841851.11345  22672922.234                    22672930.828
 116146796.863 7  90504032.81345  22101998.891                    22102006.469
 122349830.341 7  95337551.91644  23282401.953                    23282408.949
 110434964.427 8  86053249.99845  21015075.383                    21015083.109
 111173627.820 7  86628829.77746  21155635.695                    21155641.680
 125434275.109 6  97741025.33343  23869351.180                    23869359.406
 105286672.464 8  82041589.28046  20035388.703                    20035395.617
 107740225.191 8  83953438.78946  20502286.141                    20502292.281
 11  7 26 17 51  0.0000000  0  9G08G06G07G16G03G19G10G13G23
 126721699.654 6  98744266.90643  24114345.305                    24114355.035
 119207956.617 7  92889345.72244  22684520.758                    22684528.977
 116090152.186 7  90459894.10945  22091219.281                    22091226.973
 122440940.366 7  95408546.69444  23299739.719                    23299746.898
 110472816.423 8  86082745.05845  21022278.273                    21022285.953
 111137249.553 7  86600483.08646  21148713.297                    21148719.688
 125451273.435 7  97754270.74243  23872585.875                    23872595.059
 105281903.600 8  82037873.25846  20034481.156                    20034488.211
 107796584.913 8  83997355.40746  20513010.953                    20513016.770
 11  7 26 17 51 30.0000000  0  9G08G06G07G16G03G19G10G13G23
 126652520.937 7  98690361.45644  24101181.508                    24101190.004
 119269363.398 7  92937195.13744  22696206.070                    22696214.301
 116033555.531 7  90415792.84345  22080449.438                    22080457.176
 122532074.267 7  95479560.09544  23317082.125                    23317089.391
 110511267.428 8  86112706.87645  21029595.383                    21029602.848
 111101434.257 8  86572575.07846  21141897.852                    21141903.531
 125468725.964 7  97767870.05543  23875907.281                    23875916.859
 105277714.011 8  82034608.62346  20033684.195                    20033690.848
 107853467.604 8  84041679.52846  20523835.781                    20523841.793
 11  7 26 17 52  0.0000000  0  9G08G06G07G16G03G19G10G13G23
 126583286.361 7  98636412.50744  24088006.195                    24088015.293
 119331223.320 7  92985397.65245  22707977.594                    22707986.297
 115977007.748 7  90371729.64845  22069688.977                    22069696.230
 122623230.360 7  95550590.76944  23334428.273                    23334435.914
 110550315.837 8  86143134.20445  21037025.914                    21037034.043
 111066183.592 7  86545107.05446  21135189.516                    21135196.043
 125486631.108 7  97781822.08843  23879313.852                    23879323.617
 105274104.287 7  82031795.83546  20032996.805                    20033004.008
 107910871.695 8  84086409.94246  20534759.258                    20534765.020
 11  7 26 17 52 30.0000000  0  9G08G06G07G16G03G19G10G13G23
 126513996.289 7  98582420.26843  24074820.766                    24074829.703
 119393534.762 7  93033952.00044  22719834.930                    22719843.734
 115920509.533 7  90327705.07345  22058938.016                    22058944.770
 122714407.029 6  95621637.47744  23351779.102                    23351785.816
 110589960.383 8  86174026.04245  21044570.164                    21044577.945
 111031499.648 7  86518080.61746  21128589.531                    21128595.871
 125504987.433 7  97796125.65443  23882807.547                    23882815.891
 105271075.903 8  82029436.03946  20032420.961                    20032427.797
 107968795.800 8  84131545.55346  20545782.008                    20545787.930
 11  7 26 17 53  0.0000000  0  9G08G06G07G16G03G19G10G13G23
 126444650.194 7  98528384.42543  24061624.156                    24061633.762
 119456295.323 7  93082856.29644  22731778.313                    22731786.867
 115864061.246 8  90283719.41445  22048195.984                    22048203.121
 122805602.327 6  95692698.71644  23369132.844                    23369140.020
 110630199.315 8  86205381.04945  21052227.227                    21052235.668
 110997383.990 8  86491497.00846  21122097.516                    21122103.398
 125523792.945 7  97810779.25643  23886386.156                    23886395.168
 105268629.009 8  82027529.33946  20031955.250                    20031962.262
 108027238.190 8  84177085.02546  20556903.328                    20556908.555
 11  7 26 17 53 30.0000000  0  9G08G06G07G16G03G19G10G13G23
 126375248.626 7  98474305.33543  24048417.258                    24048426.910
 119519503.373 7  93132109.29544  22743806.258                    22743814.707
 115807663.948 7  90239773.49745  22037463.813                    22037470.941
 122896814.957 6  95763773.44743  23386490.055                    23386497.301
 110671031.553 8  86237198.37745  21059997.195                    21060005.258
 110963838.180 7  86465357.43846  21115713.984                    21115720.199
 125543046.301 7  97825781.81943  23890050.188                    23890059.609
 105266765.021 8  82026076.86946  20031600.727                    20031607.434
 108086197.929 8  84223027.63046  20568122.938                    20568128.590
 11  7 26 17 54  0.0000000  0  9G08G06G07G16G03G19G10G13G23
 126305791.279 7  98420182.77543  24035199.516                    24035209.125
 119583156.682 7  93181709.24744  22755919.063                    22755928.156
 115751317.964 8  90195867.55245  22026741.734                    22026749.121
 122988042.843 6  95834860.08144  23403849.961                    23403857.695
 110712455.200 8  86269476.53945  21067879.852                    21067888.336
 110930864.184 7  86439663.44346  21109439.273                    21109445.250
 125562745.386 7  97841131.71143  23893798.695                    23893808.281
 105265484.321 7  82025078.89946  20031356.469                    20031363.164
 108145673.124 8  84269371.89746  20579440.430                    20579446.621
 11  7 26 17 54 30.0000000  0  9G08G06G07G16G03G19G10G13G23
 126236278.884 7  98366017.29043  24021972.391                    24021981.348
 119647253.697 7  93231654.94844  22768116.727                    22768125.344
 115695025.292 7  90152003.15345  22016029.055                    22016036.574
 123079284.957 6  95905957.78944  23421213.203                    23421220.203
 110754469.317 8  86302214.79445  21075875.203                    21075883.270
 110898463.872 7  86414416.45846  21103273.688                    21103279.508
 125582889.263 7  97856828.20843  23897631.570                    23897641.508
 105264788.652 8  82024536.79346  20031224.563                    20031231.352
 108205663.127 8  84316117.29346  20590856.344                    20590862.465
 11  7 26 17 55  0.0000000  0 10G08G28G06G07G16G03G19G10G13G23
 126166710.041 7  98311807.85843  24008734.148                    24008743.059
 129597311.15516 100984975.71853  24661552.617                    24661564.496
 119711791.258 7  93281943.94445  22780397.430                    22780406.367
 115638785.102 7  90108179.64945  22005327.297                    22005334.664
 123170538.295 7  95977064.25644  23438577.883                    23438585.652
 110797071.623 8  86335411.39445  21083982.281                    21083990.141
 110866637.490 7  86389616.70346  21097217.063                    21097223.328
 125603474.853 6  97872868.85043  23901549.414                    23901558.309
 105264676.992 7  82024449.76646  20031202.977                    20031210.023
 108266165.356 8  84363261.83946  20602369.656                    20602375.645
 11  7 26 17 55 30.0000000  0 10G08G28G06G07G16G03G19G10G13G23
 126097085.418 7  98257554.97443  23995485.484                    23995493.559
 129522423.567 6 100926621.83743  24647301.938                    24647313.609
 119776767.312 7  93332574.60544  22792762.367                    22792770.676
 115582597.789 7  90064397.34646  21994635.023                    21994642.570
 123261801.542 7  96048178.41244  23455944.117                    23455952.402
 110840260.225 8  86369064.84245  21092200.922                    21092208.906
 110835387.079 7  86365265.75946  21091270.313                    21091276.500
 125624500.578 7  97889252.49943  23905550.328                    23905559.273
 105265150.506 8  82024818.72046  20031292.945                    20031300.277
 108327178.278 8  84410804.32246  20613979.953                    20613985.824
 11  7 26 17 56  0.0000000  0 10G08G28G06G07G16G03G19G10G13G23
 126027406.220 7  98203259.56243  23982224.961                    23982233.703
 129447741.358 6 100868428.02043  24633089.977                    24633101.695
 119842181.241 7  93383546.46644  22805209.898                    22805218.863
 115526465.780 7  90020658.11645  21983953.414                    21983960.715
 123353073.533 7  96119299.41644  23473312.820                    23473320.789
 110884034.919 8  86403174.99245  21100530.578                    21100538.832
 110804715.315 7  86341365.71946  21085433.711                    21085440.285
 125645966.183 7  97905978.89943  23909634.648                    23909643.934
 105266211.697 7  82025645.60246  20031495.188                    20031502.297
 108388701.431 8  84458744.38646  20625687.367                    20625693.320
 11  7 26 17 56 30.0000000  0 10G08G28G06G07G16G03G19G10G13G23
 125957672.132 7  98148921.33243  23968955.141                    23968964.531
 129373264.359 6 100810394.15643  24618917.078                    24618929.605
 119908030.238 7  93434857.35045  22817740.523                    22817749.164
 115470389.381 7  89976962.21945  21973282.328                    21973289.824
 123444352.791 6  96190426.05743  23490682.984                    23490690.355
 110928393.519 8  86437740.12545  21108971.836                    21108979.738
 110774623.258 7  86317917.38446  21079707.594                    21079713.492
 125667869.422 7  97923046.29343  23913803.063                    23913812.773
 105267860.133 8  82026930.06846  20031808.602                    20031816.316
 108450733.007 8  84507080.61546  20637491.797                    20637497.637
 11  7 26 17 57  0.0000000  0 10G08G28G06G07G16G03G19G10G13G23
 125887882.714 7  98094540.06843  23955674.484                    23955683.145
 129298993.120 7 100752520.52043  24604784.180                    24604796.523
 119974312.161 7  93486505.58345  22830353.781                    22830362.527
 115414368.948 7  89933309.94645  21962621.938                    21962629.844
 123535637.046 6  96261556.60344  23508053.508                    23508061.121
 110973333.943 8  86472758.61645  21117523.914                    21117531.637
 110745112.205 7  86294921.78446  21074091.266                    21074097.668
 125690208.346 7  97940453.18543  23918054.508                    23918063.656
 105270096.070 8  82028672.33346  20032234.359                    20032241.203
 108513271.349 8  84555811.74146  20649392.172                    20649398.816
 11  7 26 17 57 30.0000000  0 10G08G28G06G07G16G03G19G10G13G23
 125818038.596 7  98040116.15543  23942383.313                    23942392.355
 129224928.169 6 100694807.67443  24590690.078                    24590701.793
 120041025.165 7  93538489.71444  22843048.648                    22843057.570
 115358405.962 7  89889702.43246  21951973.070                    21951980.520
 123626925.251 6  96332690.21544  23525425.625                    23525432.809
 111018855.296 8  86508229.79745  21126186.109                    21126193.746
 110716184.244 7  86272380.53446  21068586.711                    21068593.262
 125712981.308 7  97958198.33944  23922387.578                    23922397.102
 105272920.925 8  82030873.50346  20032772.141                    20032779.117
 108576315.036 8  84604936.62946  20661389.242                    20661395.184
 11  7 26 17 58  0.0000000  0 10G08G28G06G07G16G03G19G10G13G23
 125748139.802 7  97985649.59343  23929082.516                    23929091.625
 129151070.199 6 100637256.11143  24576635.031                    24576646.090
 120108167.240 7  93590808.19444  22855825.305                    22855834.520
 115302501.259 7  89846140.33845  21941334.586                    21941342.480
 123718215.861 6  96403825.72844  23542797.164                    23542804.762
 111064955.809 8  86544152.26845  21134958.766                    21134966.887
 110687840.718 7  86250294.68946  21063193.398                    21063199.402
 125736186.375 7  97976280.14643  23926803.219                    23926813.070
 105276335.469 8  82033534.15946  20033421.734                    20033428.391
 108639862.393 8  84654454.00746  20673482.125                    20673488.367
 11  7 26 17 58 30.0000000  0 10G08G28G06G07G16G03G19G10G13G23
 125678186.644 7  97931140.69643  23915770.367                    23915779.637
 129077419.535 6 100579866.07543  24562619.875                    24562631.473
 120175736.160 6  93643459.25844  22868683.164                    22868691.922
 115246655.240 7  89802623.96845  21930707.000                    21930715.176
 123809507.000 7  96474961.63544  23560169.250                    23560177.086
 111111633.817 8  86580524.73545  21143841.078                    21143849.078
 110660082.713 7  86228665.09846  21057910.719                    21057917.133
 125759821.978 6  97994697.43643  23931300.672                    23931310.875
 105280340.173 8  82036654.67746  20034184.117                    20034191.367
 108703911.941 8  84704362.69346  20685670.430                    20685675.848
 11  7 26 17 59  0.0000000  0 10G08G28G06G07G16G03G19G10G13G23
 125608179.060 6  97876589.37943  23902448.680                    23902457.371
 129003976.280 6 100522637.64243  24548643.961                    24548655.621
 120243729.388 7  93696440.95644  22881622.547                    22881630.895
 115190868.590 7  89759153.86546  21920091.164                    21920098.813
 123900796.831 6  96546096.53344  23577541.313                    23577549.309
 111158887.007 8  86617345.37145  21152833.195                    21152840.977
 110632911.772 7  86207492.96046  21052740.766                    21052746.074
 125783886.101 7  98013448.61143  23935879.758                    23935889.359
 105284935.036 8  82040235.06846  20035058.281                    20035065.074
 108768461.487 8  84754660.97946  20697953.555                    20697959.836
 11  7 26 17 59 30.0000000  0 10G08G28G06G07G16G03G19G10G13G23
 125538117.220 6  97821995.80244  23889116.367                    23889125.645
 128930741.237 6 100465571.50443  24534707.055                    24534719.816
 120312145.130 7  93749751.89544  22894641.211                    22894650.059
 115135142.436 7  89715730.89245  21909486.875                    21909494.984
 123992083.985 6  96617229.31144  23594913.398                    23594920.457
 111206714.191 8  86654613.29945  21161934.523                    21161942.441
 110606329.430 7  86186779.47046  21047681.789                    21047688.117
 125808376.848 7  98032532.32143  23940540.164                    23940550.168
 105290121.089 8  82044276.12546  20036045.398                    20036052.492
 108833509.717 8  84805347.85446  20710331.852                    20710337.871
 11  7 26 18  0  0.0000000  0 10G08G28G06G07G16G03G19G10G13G23
 125468001.408 7  97767360.15343  23875773.852                    23875782.898
 128857714.482 6 100408667.63142  24520809.984                    24520823.016
 120380981.079 7  93803390.26044  22907740.430                    22907749.383
 115079477.615 7  89672355.71445  21898894.188                    21898901.695
 124083366.862 7  96688358.80743  23612283.500                    23612290.484
 111255113.317 8  86692326.89545  21171144.711                    21171152.297
 110580337.039 8  86166525.68446  21042735.867                    21042741.918
 125833292.340 6  98051946.89643  23945282.461                    23945291.637
 105295898.628 8  82048778.07946  20037144.523                    20037151.844
 108899054.996 8  84856422.02046  20722804.641                    20722811.234
 11  7 26 18  0 30.0000000  0 11G08G28G06G07G16G11G03G19G10G13G23
 125397831.627 7  97712682.43243  23862420.734                    23862429.719
 128784896.639 6 100351926.59142  24506954.797                    24506966.363
 120450234.947 6  93857354.30444  22920918.836                    22920927.613
 115023874.800 7  89629028.85945  21888313.742                    21888321.148
 124174643.719 6  96759483.61244  23629652.102                    23629660.277
 129970687.66216 101275958.67253  24732612.922                    24732624.684
 111304082.624 8  86730484.79845  21180463.078                    21180471.145
 110554935.892 7  86146732.60546  21037902.383                    21037908.988
 125858630.170 7  98071690.59043  23950103.008                    23950114.160
 105302268.091 7  82053741.27446  20038356.602                    20038363.504
 108965095.226 8  84907881.88146  20735372.078                    20735378.230
 11  7 26 18  1  0.0000000  0 11G08G28G06G07G16G11G03G19G10G13G23
 125327608.067 7  97657962.83544  23849058.461                    23849066.590
 128712288.008 5 100295348.59242  24493137.070                    24493149.266
 120519904.579 7  93911642.30244  22934176.813                    22934185.109
 114968335.101 7  89585751.17145  21877744.516                    21877751.887
 124265913.143 7  96830602.58044  23647020.594                    23647028.125
 129894089.430 6 101216271.88543  24718036.289                    24718049.242
 111353620.356 8  86769085.61445  21189889.695                    21189897.723
 110530127.155 7  86127401.14146  21033181.117                    21033187.211
 125884388.992 7  98091762.34343  23955005.695                    23955014.797
 105309230.118 8  82059166.20546  20039681.773                    20039688.645
 109031629.167 8  84959726.44946  20748032.898                    20748039.406
 11  7 26 18  1 30.0000000  0 11G08G28G06G07G16G11G03G19G10G13G23
 125257330.972 7  97603201.49644  23835684.180                    23835693.188
 128639889.126 6 100238933.96942  24479358.633                    24479371.777
 120589988.060 7  93966252.76344  22947513.297                    22947521.820
 114912859.273 7  89542523.27545  21867188.000                    21867196.000
 124357173.460 7  96901714.48843  23664387.352                    23664395.008
 129817357.558 6 101156480.95842  24703434.422                    24703447.406
 111403724.637 8  86808127.89345  21199424.375                    21199432.363
 110505912.094 7  86108532.28446  21028572.844                    21028579.172
 125910566.948 6  98112160.70043  23959987.070                    23959996.301
 105316785.127 8  82065053.20646  20041118.828                    20041125.926
 109098654.995 8  85011954.29946  20760787.609                    20760793.441
 11  7 26 18  2  0.0000000  0 11G08G28G06G07G16G11G03G19G10G13G23
 125187000.398 7  97548398.51844  23822300.680                    23822309.355
 128567700.442 6 100182683.17242  24465622.289                    24465634.531
 120660483.143 7  94021183.96944  22960928.398                    22960936.078
 114857448.425 7  89499346.00645  21856643.664                    21856651.254
 124448423.410 7  96972818.30943  23681751.750                    23681759.070
 129740494.538 6 101096587.82343  24688808.055                    24688820.973
 111454393.549 8  86847610.15845  21209066.172                    21209074.637
 110482292.131 8  86090127.15346  21024078.313                    21024085.035
 125937162.014 7  98132884.04543  23965048.656                    23965057.449
 105324933.826 8  82071402.82346  20042669.820                    20042677.047
 109166171.104 8  85064564.18646  20773635.688                    20773641.516
 11  7 26 18  2 30.0000000  0 11G08G28G06G07G16G11G03G19G10G13G23
 125116616.843 7  97493554.23044  23808906.984                    23808915.898
 128495722.285 6 100126596.44943  24451925.367                    24451937.230
 120731387.594 6  94076434.16844  22974420.922                    22974428.719
 114802103.354 7  89456219.99645  21846111.758                    21846119.344
 124539661.299 6  97043912.72544  23699113.711                    23699121.129
 129663502.276 6 101036594.00543  24674157.219                    24674169.688
 111505625.418 8  86887531.07945  21218815.617                    21218823.730
 110459268.520 7  86072186.70346  21019697.258                    21019703.461
 125964172.042 6  98153930.73243  23970188.063                    23970196.910
 105333676.290 8  82078215.10946  20044333.594                    20044340.461
 109234175.293 8  85117554.39146  20786576.336                    20786582.840
 11  7 26 18  3  0.0000000  0 11G08G28G06G07G16G11G03G19G10G13G23
 125046180.225 7  97438668.58344  23795503.586                    23795512.938
 128423954.852 6 100070673.88942  24438269.406                    24438280.137
 120802698.930 6  94132001.41444  22987990.477                    22987999.492
 114746824.641 7  89413145.68446  21835592.656                    21835599.883
 124630885.631 7  97114996.54944  23716473.336                    23716480.555
 129586383.327 6 100976501.51543  24659481.164                    24659493.246
 111557418.559 8  86927889.36545  21228671.148                    21228679.297
 110436842.360 8  86054711.80346  21015429.359                    21015435.582
 125991595.176 6  98175299.38143  23975406.570                    23975416.020
 105343012.800 8  82085490.29246  20046110.477                    20046117.816
 109302666.008 8  85170923.71746  20799609.992                    20799616.066
 11  7 26 18  3 30.0000000  0 11G08G28G06G07G16G11G03G19G10G13G23
 124975691.020 7  97383741.97944  23782089.594                    23782098.840
 128352398.523 7 100014915.76743  24424653.094                    24424661.984
 120874415.023 6  94187884.05944  23001637.969                    23001646.223
 114691613.368 7  89370123.93146  21825086.094                    21825093.480
 124722094.867 6  97186068.63343  23733829.953                    23733836.590
 129509140.055 6 100916312.11843  24644782.023                    24644794.984
 111609770.534 8  86968683.09945  21238633.672                    21238641.703
 110415014.657 8  86037703.21346  21011275.930                    21011282.113
 126019429.544 6  98196988.42443  23980702.648                    23980712.793
 105352943.857 8  82093228.75346  20048000.305                    20048007.348
 109371641.320 8  85224670.63946  20812735.500                    20812741.668
 11  7 26 18  4  0.0000000  0 11G08G28G06G07G16G11G03G19G10G13G23
 124905149.380 7  97328774.52044  23768666.148                    23768674.770
 128281053.782 7  99959322.62243  24411075.922                    24411086.738
 120946533.670 6  94244080.39344  23015361.422                    23015370.168
 114636470.335 7  89327155.35045  21814592.797                    21814600.039
 124813287.381 6  97257127.68443  23751182.891                    23751190.676
 129431774.727 6 100856027.58043  24630059.758                    24630072.266
 111662679.535 8  87009910.88045  21248701.969                    21248710.488
 110393786.794 8  86021162.04046  21007236.609                    21007242.352
 126047673.120 6  98218996.29843  23986077.820                    23986087.531
 105363469.751 8  82101430.72446  20050003.211                    20050010.344
 109441099.377 8  85278793.73846  20825952.734                    20825959.449
 11  7 26 18  4 30.0000000  0 11G08G28G06G07G16G11G03G19G10G13G23
 124834555.799 7  97273766.57344  23755232.922                    23755241.629
 128209920.893 6  99903894.53143  24397539.320                    24397550.133
 121019052.575 7  94300588.59044  23029161.430                    23029170.234
 114581396.821 8  89284240.93546  21804112.602                    21804119.938
 124904461.785 6  97328172.61343  23768532.961                    23768540.824
 129354289.756 6 100795649.85943  24615314.641                    24615327.387
 111716143.688 8  87051571.23945  21258875.742                    21258884.324
 110373159.897 8  86005089.15946  21003310.914                    21003317.258
 126076323.949 6  98241321.59043  23991530.102                    23991540.074
 105374590.736 8  82110096.40846  20052119.281                    20052126.926
 109511038.385 8  85333291.59346  20839262.070                    20839268.273
 11  7 26 18  5  0.0000000  0 11G08G28G06G07G16G11G03G19G10G13G23
 124763910.030 7  97218717.98944  23741789.906                    23741798.492
 128139000.289 7  99848631.83243  24384043.648                    24384055.160
 121091969.461 6  94357406.91544  23043037.445                    23043045.461
 114526393.534 8  89241381.25246  21793645.750                    21793653.094
 124995616.643 6  97399202.33143  23785879.102                    23785886.781
 129276687.773 6 100735180.91443  24600547.609                    24600560.598
 111770160.734 7  87093662.43645  21269154.969                    21269163.188
 110353135.087 8  85989485.43346  20999500.703                    20999506.801
 126105379.587 6  98263962.29543  23997059.391                    23997069.090
 105386307.085 8  82119226.01446  20054348.758                    20054356.293
 109581456.508 8  85388162.78146  20852662.031                    20852668.293
 11  7 26 18  5 30.0000000  0 11G08G28G06G07G16G11G03G19G10G13G23
 124693212.533 7  97163629.07744  23728335.742                    23728344.945
 128068292.237 7  99793534.74943  24370588.211                    24370599.547
 121165282.248 7  94414533.74444  23056987.742                    23056996.668
 114471461.777 8  89198577.30146  21783192.641                    21783200.188
 125086750.562 6  97470215.74943  23803221.273                    23803228.891
 129198971.349 6 100674622.77543  24585758.523                    24585771.355
 111824728.762 8  87136182.95845  21279538.766                    21279546.902
 110333713.438 8  85974351.69146  20995804.945                    20995810.648
 126134838.432 6  98286917.17243  24002664.383                    24002674.742
 105398619.226 7  82128819.86846  20056692.070                    20056699.371
 109652352.092 8  85443406.02946  20866153.250                    20866159.527
 11  7 26 18  6  0.0000000  0 11G08G28G06G07G16G11G03G19G10G13G23
 124622463.733 7  97108500.15644  23714872.703                    23714881.605
 127997796.866 7  99738603.43343  24357173.172                    24357184.461
 121238988.154 7  94471966.88644  23071013.695                    23071022.992
 114416601.913 8  89155829.38046  21772753.289                    21772760.781
 125177861.754 6  97541211.43843  23820559.109                    23820566.434
 129121142.538 6 100613977.11743  24570947.930                    24570960.535
 111879845.837 8  87179131.30945  21290027.461                    21290035.371
 110314895.666 8  85959688.51446  20992223.688                    20992229.883
 126164698.052 6  98310184.31843  24008347.016                    24008356.953
 105411526.922 8  82138877.79246  20059147.922                    20059155.375
 109723722.636 8  85499019.35846  20879734.461                    20879740.578
 11  7 26 18  6 30.0000000  0 11G08G28G06G07G16G11G03G19G10G13G23
 124551663.939 7  97053331.52643  23701399.500                    23701408.715
 127927514.559 7  99683838.13343  24343798.898                    24343809.926
 121313085.482 7  94529705.02544  23085114.320                    23085123.195
 114361815.347 8  89113138.56345  21762327.625                    21762334.711
 125268949.122 7  97612188.57243  23837892.367                    23837900.078
 129043203.976 6 100553245.91543  24556116.484                    24556129.172
 111935510.333 8  87222506.22845  21300620.406                    21300628.414
 110296683.363 8  85945497.12446  20988757.609                    20988763.902
 126194956.757 6  98333762.46643  24014104.398                    24014115.633
 105425031.153 8  82149400.54946  20061717.930                    20061725.141
 109795566.795 8  85555001.74246  20893406.867                    20893412.293
 11  7 26 18  7  0.0000000  0 11G08G28G06G07G16G11G03G19G10G13G23
 124480812.889 7  96998122.95043  23687917.492                    23687926.121
 127857445.795 7  99629239.26143  24330465.305                    24330476.258
 121387571.535 7  94587746.08144  23099288.586                    23099297.453
 114307102.730 8  89070505.36746  21751916.250                    21751923.309
 125360011.183 7  97683146.00743  23855221.797                    23855228.082
 128965157.859 6 100492430.87943  24541264.852                    24541277.199
 111991719.500 8  87266305.56245  21311316.242                    21311324.520
 110279076.974 8  85931777.87046  20985407.430                    20985413.418
 126225612.454 6  98357649.95043  24019938.117                    24019949.266
 105439131.330 8  82160387.67746  20064401.531                    20064408.070
 109867882.108 8  85611351.26846  20907167.445                    20907173.336
 11  7 26 18  7 30.0000000  0 11G08G28G06G07G16G11G03G19G10G13G23
 124409911.480 7  96942875.11543  23674425.336                    23674433.637
 127787590.755 6  99574806.85743  24317171.992                    24317183.680
 121462444.095 7  94646088.30644  23113536.164                    23113544.563
 114252465.198 8  89027930.67345  21741519.234                    21741525.996
 125451046.334 7  97754082.43343  23872544.711                    23872551.941
 128887006.755 6 100431534.10243  24526393.406                    24526406.172
 112048471.715 8  87310528.04345  21322116.133                    21322123.844
 110262077.665 8  85918531.67646  20982172.766                    20982178.945
 126256662.539 6  98381844.70543  24025847.336                    24025857.977
 105453827.700 7  82171839.37446  20067197.750                    20067204.828
 109940666.977 8  85668066.67846  20921017.906                    20921023.637
 11  7 26 18  8  0.0000000  0 11G08G28G06G07G16G11G03G19G10G13G23
 124338960.149 7  96887588.41243  23660923.203                    23660931.121
 127717949.630 6  99520541.18943  24303919.625                    24303931.105
 121537700.893 7  94704729.94844  23127857.242                    23127865.988
 114197903.948 8  88985415.42845  21731136.477                    21731143.527
 125542053.444 6  97824997.00843  23889862.969                    23889870.016
 128808753.156 6 100370557.43743  24511501.508                    24511514.570
 112105764.887 8  87355172.05545  21333018.375                    21333026.121
 110245686.875 8  85905759.64246  20979053.508                    20979059.473
 126288105.268 6  98406345.47343  24031830.680                    24031841.375
 105469120.809 8  82183756.05046  20070108.031                    20070115.297
 110013919.483 8  85725146.48646  20934957.203                    20934963.172
 11  7 26 18  8 30.0000000  0 11G08G28G06G07G16G11G03G19G10G13G23
 124267958.801 7  96832262.72643  23647412.164                    23647420.969
 127648522.659 6  99466442.37343  24290707.297                    24290719.172
 121613339.565 6  94763669.14344  23142251.055                    23142259.363
 114143419.902 8  88942960.33046  21720768.297                    21720775.191
 125633030.800 6  97895888.42443  23907175.641                    23907182.637
 128730399.836 6 100309503.04243  24496591.391                    24496603.840
 112163596.551 7  87400235.66745  21344023.266                    21344031.605
 110229904.405 8  85893461.62346  20976050.320                    20976056.828
 126319938.415 6  98431150.46743  24037888.641                    24037898.816
 105485010.421 8  82196137.54546  20073131.742                    20073139.293
 110087637.397 8  85782588.93546  20948985.602                    20948992.199
 11  7 26 18  9  0.0000000  0 11G08G28G06G07G16G11G03G19G10G13G23
 124196907.875 6  96776898.41643  23633891.906                    23633900.102
 127579310.221 6  99412510.78443  24277536.258                    24277548.277
 121689357.826 7  94822904.15144  23156716.398                    23156725.109
 114089013.952 8  88900566.10146  21710415.023                    21710422.820
 125723977.163 6  97966755.66143  23924481.008                    23924489.387
 128651948.861 6 100248372.52842  24481662.406                    24481674.848
 112221964.773 7  87445717.36345  21355130.539                    21355138.449
 110214731.701 8  85881638.75046  20973163.297                    20973168.523
 126352159.732 6  98456257.92843  24044020.141                    24044029.859
 105501496.508 8  82208983.83246  20076268.500                    20076275.980
 110161818.920 8  85840392.64146  20963101.680                    20963108.344
 11  7 26 18  9 30.0000000  0 11G08G28G06G07G16G11G03G19G10G13G23
 124125807.887 7  96721495.87144  23620361.805                    23620370.445
 127510312.399 6  99358746.36243  24264407.500                    24264418.289
 121765753.171 7  94882432.95544  23171253.648                    23171262.645
 114034687.159 8  88858233.55546  21700076.969                    21700084.332
 125814891.487 6  98037597.91743  23941781.781                    23941789.594
 128573402.676 6 100187167.84542  24466714.180                    24466727.895
 112280867.553 8  87491615.63145  21366339.570                    21366347.109
 110200169.757 8  85870291.79446  20970391.977                    20970397.980
 126384766.998 6  98481666.06443  24050225.352                    24050234.875
 105518579.318 8  82222295.08446  20079520.102                    20079527.313
 110236462.047 8  85898556.04346  20977305.859                    20977312.359
 11  7 26 18 10  0.0000000  0 11G08G28G06G07G16G11G03G19G10G13G23
 124054659.279 6  96666055.42344  23606823.047                    23606831.383
 127441529.620 6  99305149.50843  24251318.828                    24251329.766
 121842523.340 7  94942253.83444  23185862.633                    23185872.066
 113980440.570 8  88815963.48546  21689754.406                    21689761.598
 125905772.011 6  98108413.85843  23959075.953                    23959084.117
 128494764.113 6 100125891.20342  24451750.039                    24451763.844
 112340302.740 8  87537928.75145  21377649.586                    21377657.328
 110186219.335 7  85859421.33946  20967737.469                    20967743.371
 126417758.328 6  98507373.52543  24056503.219                    24056514.609
 105536258.836 8  82236071.31546  20082883.930                    20082891.172
 110311564.578 8  85957077.43446  20991597.781                    20991604.105
 11  7 26 18 10 30.0000000  0 11G08G28G06G07G16G11G03G19G10G13G23
 123983462.106 6  96610577.15544  23593274.516                    23593283.324
 127372961.962 6  99251720.31743  24238269.766                    24238281.520
 121919666.102 6  95002365.06244  23200542.523                    23200551.105
 113926275.347 8  88773756.82246  21679446.922                    21679454.469
 125996617.327 6  98179202.36443  23976363.359                    23976371.660
 128416035.429 6 100064544.29242  24436769.500                    24436781.754
 112400268.169 7  87584655.04445  21389060.867                    21389068.531
 110172881.112 7  85849027.92746  20965199.000                    20965205.078
 126451131.393 6  98533378.42243  24062854.164                    24062864.465
 105554534.788 7  82250312.28946  20086361.523                    20086369.055
 110387124.224 8  86015955.00746  21005976.242                    21005982.887
 11  7 26 18 11  0.0000000  0 11G08G28G06G07G16G11G03G19G10G13G23
 123912216.527 7  96555061.16444  23579716.953                    23579726.090
 127304609.606 7  99198458.93943  24225263.000                    24225274.223
 121997178.697 6  95062764.45844  23215293.328                    23215301.703
 113872192.457 8  88731614.30946  21669155.328                    21669162.645
 126087426.382 6  98249962.61543  23993643.594                    23993651.938
 128337219.117 6 100003129.05842  24421770.711                    24421783.035
 112460761.102 8  87631792.36545  21400572.156                    21400579.766
 110160155.622 8  85839111.97646  20962777.336                    20962783.676
 126484883.947 6  98559679.02343  24069276.977                    24069287.035
 105573407.134 8  82265017.99946  20089953.172                    20089960.391
 110463139.261 8  86075187.43246  21020441.344                    21020448.063
 11  7 26 18 11 30.0000000  0 11G08G28G06G07G16G11G03G19G10G13G23
 123840923.274 7  96499508.01844  23566150.523                    23566159.203
 127236472.975 6  99145365.60243  24212297.086                    24212307.590
 122075059.234 7  95123450.57244  23230113.148                    23230121.938
 113818193.139 8  88689536.93346  21658879.477                    21658886.766
 126178197.663 7  98320693.44343  24010917.375                    24010925.188
 128258317.639 6  99941647.47443  24406756.398                    24406768.379
 112521779.806 8  87679339.38645  21412183.594                    21412191.551
 110148044.176 7  85829674.50146  20960473.016                    20960479.195
 126519013.989 6  98586273.79543  24075771.523                    24075782.070
 105592876.061 8  82280188.56646  20093658.055                    20093665.070
 110539607.499 8  86134772.99946  21034993.055                    21034999.383
 11  7 26 18 12  0.0000000  0 11G08G28G06G07G16G11G03G19G10G13G23
 123769582.347 7  96443917.73244  23552574.063                    23552583.727
 127168551.787 6  99092440.14743  24199372.219                    24199381.887
 122153304.874 6  95184421.21144  23245003.102                    23245011.758
 113764278.148 8  88647525.25546  21648620.141                    21648627.340
 126268929.885 7  98391393.85443  24028183.281                    24028190.867
 128179333.998 7  99880101.88243  24391726.672                    24391738.980
 112583321.928 7  87727294.26945  21423894.648                    21423902.848
 110136547.018 7  85820715.68446  20958284.602                    20958291.078
 126553518.787 6  98613160.53843  24082337.320                    24082348.531
 105612941.207 7  82295823.72346  20097476.352                    20097483.637
 110616526.707 8  86194709.96946  21049630.359                    21049636.594
 11  7 26 18 12 30.0000000  0 11G08G28G06G07G16G11G03G19G10G13G23
 123698194.408 7  96388290.80444  23538990.172                    23538998.922
 127100846.804 6  99039683.15443  24186487.609                    24186498.863
 122231913.597 6  95245674.72544  23259961.469                    23259970.508
 113710448.730 8  88605580.27046  21638376.875                    21638383.996
 126359621.717 6  98462062.76443  24045441.242                    24045448.703
 128100270.616 7  99818494.13043  24376681.297                    24376693.203
 112645385.406 7  87775655.39145  21435705.039                    21435713.242
 110125664.824 7  85812236.06146  20956214.414                    20956220.172
 126588396.314 6  98640337.73643  24088974.406                    24088985.559
 105633602.875 7  82311923.70046  20101408.234                    20101415.426
 110693895.118 8  86254996.96146  21064353.172                    21064359.652
 11  7 26 18 13  0.0000000  0 11G08G28G06G07G16G11G03G19G10G13G23
 123626760.028 7  96332627.69544  23525396.031                    23525405.480
 127033357.638 6  98987094.34843  24173644.453                    24173655.297
 122310882.740 6  95307209.09544  23274988.953                    23274997.836
 113656705.837 8  88563702.68946  21628149.602                    21628156.488
 126450271.852 6  98532699.16943  24062691.609                    24062699.020
 128021129.840 6  99756826.10943  24361620.922                    24361632.895
 112707967.647 7  87824420.76545  21447614.102                    21447621.754
 110115398.542 8  85804236.37446  20954260.750                    20954266.609
 126623644.439 6  98667803.74343  24095682.242                    24095693.391
 105654860.517 8  82328488.05846  20105453.344                    20105460.066
 110771710.087 8  86315631.93746  21079160.875                    21079167.359
 11  7 26 18 13 30.0000000  0 11G08G28G06G07G16G11G03G19G10G13G23
 123555279.671 7  96276928.73944  23511794.625                    23511802.445
 126966084.548 6  98934673.93743  24160842.414                    24160853.758
 122390210.023 6  95369022.53544  23290084.227                    23290093.277
 113603050.798 8  88521893.57046  21617939.078                    21617946.395
 126540878.823 6  98603301.97943  24079933.453                    24079940.582
 127941914.357 6  99695099.87943  24346547.664                    24346559.250
 112771066.342 7  87873588.54945  21459621.578                    21459629.602
 110105748.515 8  85796716.88946  20952424.055                    20952430.559
 126659260.918 6  98695556.73043  24102460.141                    24102470.516
 105676713.902 8  82345516.65046  20109611.828                    20109619.176
 110849969.673 8  86376613.35046  21094053.164                    21094059.828
 11  7 26 18 14  0.0000000  0 11G08G28G06G07G16G11G03G19G10G13G23
 123483753.155 7  96221193.83444  23498183.063                    23498191.453
 126899028.001 6  98882422.23043  24148082.250                    24148093.559
 122469892.904 6  95431113.05744  23305247.625                    23305256.598
 113549484.397 8  88480153.52946  21607745.945                    21607753.645
 126631441.669 6  98673870.40843  24097166.023                    24097175.207
 127862626.518 6  99633317.26943  24331458.953                    24331471.168
 112834679.652 7  87923157.34745  21471726.695                    21471734.719
 110096715.207 8  85789677.96946  20950705.023                    20950711.066
 126695243.242 6  98723594.83043  24109307.109                    24109316.652
 105699162.908 8  82363009.35046  20113883.641                    20113891.051
 110928671.701 8  86437939.53245  21109029.719                    21109036.266
 11  7 26 18 14 30.0000000  0 11G08G28G06G07G16G11G03G19G10G13G23
 123412181.377 7  96165423.65144  23484563.453                    23484572.164
 126832188.055 6  98830339.29043  24135363.523                    24135373.488
 122549929.145 6  95493478.91144  23320478.195                    23320486.965
 113496008.238 8  88438483.80546  21597569.836                    21597576.969
 126721959.337 6  98744403.60243  24114391.125                    24114399.461
 127783268.904 6  99571480.28443  24316357.758                    24316369.828
 112898804.745 7  87973124.92445  21483929.164                    21483936.938
 110088299.414 7  85783120.22246  20949103.859                    20949109.816
 126731589.404 6  98751916.40043  24116224.016                    24116233.965
 105722207.589 8  82380966.21246  20118268.852                    20118276.527
 111007814.210 8  86499608.93945  21124090.188                    21124096.664
 11  7 26 18 15  0.0000000  0 11G08G28G06G07G16G11G03G19G10G13G23
 123340564.654 7  96109618.45044  23470935.070                    23470943.965
 126765564.884 7  98778425.28943  24122685.469                    24122695.594
 122630316.248 6  95556118.22044  23335775.461                    23335783.387
 113442623.210 8  88396885.09846  21587411.359                    21587418.887
 126812430.233 6  98814900.36343  24131607.891                    24131615.418
 127703844.409 6  99509591.15742  24301243.805                    24301255.391
 112963439.667 7  88023489.79145  21496228.719                    21496236.984
 110080501.766 8  85777044.14646  20947619.945                    20947625.902
 126768296.848 6  98780519.53543  24123208.203                    24123220.352
 105745847.468 8  82399386.86346  20122767.664                    20122775.082
 111087394.871 8  86561619.77346  21139233.984                    21139240.117
 11  7 26 18 15 30.0000000  0 11G08G28G06G07G16G11G03G19G10G13G23
 123268903.665 7  96053778.75444  23457298.500                    23457307.129
 126699158.399 6  98726680.15643  24110047.898                    24110059.391
 122711051.714 6  95619028.96344  23351138.523                    23351147.242
 113389330.197 8  88355358.09246  21577269.641                    21577276.992
 126902853.027 6  98885359.65043  24148813.906                    24148822.875
 127624355.420 6  99447651.81643  24286117.281                    24286129.180
 113028581.726 7  88074249.80945  21508624.625                    21508633.164
 110073322.538 7  85771449.94646  20946253.555                    20946259.363
 126805363.258 6  98809402.34943  24130262.852                    24130274.043
 105770082.156 8  82418271.01746  20127379.398                    20127386.543
 111167411.363 8  86623970.20945  21154460.586                    21154467.191
 11  7 26 18 16  0.0000000  0 11G08G28G06G07G16G11G03G19G10G13G23
 123197198.789 7  95997904.85244  23443653.266                    23443662.070
 126632968.848 6  98675103.98143  24097452.828                    24097464.145
 122792133.235 7  95682209.34244  23366568.203                    23366576.684
 113336130.745 8  88313903.98446  21567146.148                    21567153.570
 126993226.872 6  98955780.77743  24166011.984                    24166020.352
 127544804.738 6  99385664.40643  24270979.258                    24270991.063
 113094228.560 8  88125403.16745  21521117.500                    21521125.371
 110066762.458 8  85766338.21746  20945005.273                    20945011.426
 126842786.444 6  98838563.12643  24137383.719                    24137395.332
 105794911.768 8  82437618.74546  20132104.164                    20132111.285
 111247861.899 8  86686658.87145  21169769.984                    21169776.328
 11  7 26 18 16 30.0000000  0 11G08G28G06G07G16G11G03G19G10G13G23
 123125450.591 7  95941997.19944  23430000.156                    23430008.516
 126566996.153 6  98623696.84743  24084897.313                    24084910.051
 122873558.291 7  95745657.42544  23382062.328                    23382072.016
 113283025.978 8  88272523.65046  21557040.594                    21557047.891
 127083550.196 6  99026162.53843  24183200.203                    24183208.844
 127465194.940 6  99323630.92643  24255829.625                    24255841.496
 113160378.085 8  88176948.22345  21533705.086                    21533712.617
 110060821.724 8  85761709.08346  20943874.719                    20943880.992
 126880563.811 6  98867999.96843  24144572.227                    24144583.988
 105820335.515 8  82457429.43146  20136942.234                    20136949.770
 111328743.825 8  86749683.67146  21185160.914                    21185168.082
 11  7 26 18 17  0.0000000  0 11G08G28G06G07G16G11G03G19G10G13G23
 123053659.363 7  95886056.03144  23416338.477                    23416347.406
 126501240.598 6  98572458.94243  24072384.828                    24072396.305
 122955324.396 7  95809371.23444  23397622.789                    23397631.313
 113230017.016 8  88231217.97446  21546953.547                    21546960.266
 127173822.029 6  99096504.20543  24200378.055                    24200387.328
 127385528.671 6  99261553.46143  24240669.875                    24240681.395
 113227027.973 8  88228883.17145  21546388.023                    21546395.871
 110055501.056 8  85757563.11546  20942862.188                    20942868.336
 126918693.149 6  98897711.02743  24151828.969                    24151839.781
 105846353.255 8  82477702.96346  20141893.102                    20141900.555
 111410054.759 8  86813042.75245  21200634.078                    21200640.895
 11  7 26 18 17 30.0000000  0 11G08G28G06G07G16G11G03G19G10G13G23
 122981825.360 7  95830081.49744  23402668.813                    23402677.207
 126435701.914 6  98521389.92243  24059913.797                    24059924.324
 123037428.943 7  95873348.77544  23413246.461                    23413254.957
 113177104.574 8  88189987.50146  21536884.758                    21536891.828
 127264041.127 6  99166804.74843  24217547.031                    24217554.980
 127305808.365 6  99199433.84343  24225499.516                    24225511.227
 113294175.303 8  88281205.73745  21559165.648                    21559174.039
 110050800.234 7  85753900.14746  20941968.148                    20941973.922
 126957172.089 6  98927694.51543  24159151.594                    24159161.727
 105872963.992 8  82498438.57546  20146957.078                    20146964.102
 111491792.176 8  86876734.16045  21216188.016                    21216195.305
 11  7 26 18 18  0.0000000  0 11G08G28G06G07G16G11G03G19G10G13G23
 122909949.336 7  95774074.21544  23388991.102                    23388999.977
 126370380.472 6  98470490.27343  24047483.242                    24047494.500
 123119869.623 7  95937588.22644  23428934.297                    23428943.320
 113124290.181 8  88148833.44746  21526834.039                    21526841.887
 127354206.014 6  99237063.05543  24234704.531                    24234712.238
 127226036.664 6  99137274.20043  24210319.867                    24210331.098
 113361817.873 8  88333914.20545  21572037.836                    21572045.758
 110046719.711 8  85750720.52846  20941191.344                    20941197.445
 126995998.367 6  98957948.66244  24166539.383                    24166551.309
 105900167.906 8  82519636.40646  20152133.547                    20152141.250
 111573954.082 8  86940756.35145  21231823.445                    21231829.949
 11  7 26 18 18 30.0000000  0 11G08G28G06G07G16G11G03G19G10G13G23
 122838032.062 7  95718034.80344  23375306.008                    23375314.547
 126305276.471 6  98419760.01443  24035093.891                    24035104.898
 123202644.259 7  96002087.91344  23444685.867                    23444694.316
 113071575.352 8  88107756.97446  21516802.766                    21516810.480
 127444315.897 6  99307278.46343  24251851.547                    24251860.309
 127146216.177 6  99075076.58343  24195129.164                    24195141.766
 113429953.476 7  88387006.86445  21585003.664                    21585011.371
 110043260.326 8  85748024.90346  20940533.172                    20940539.191
 127035169.552 6  98988471.60843  24173993.844                    24174004.414
 105927964.632 8  82541296.16946  20157423.445                    20157430.715
 111656538.331 8  87005107.63145  21247538.477                    21247545.328
 11  7 26 18 19  0.0000000  0 11G08G28G06G07G16G11G03G19G10G13G23
 122766073.612 7  95661963.31544  23361613.031                    23361620.926
 126240389.673 6  98369198.99743  24022747.016                    24022757.543
 123285750.083 7  96066845.68344  23460500.516                    23460508.906
 113018960.892 8  88066758.70446  21506791.094                    21506797.559
 127534369.392 6  99377449.99743  24268988.859                    24268996.156
 127066349.787 6  99012843.14943  24179930.813                    24179943.125
 113498579.726 7  88440481.83845  21598062.703                    21598070.930
 110040422.309 8  85745813.46446  20939993.188                    20939999.094
 127074683.183 6  99019261.36543  24181512.945                    24181523.129
 105956353.512 8  82563417.34146  20162826.047                    20162833.203
 111739543.122 8  87069786.60445  21263333.992                    21263340.543
 11  7 26 18 19 30.0000000  0 11G08G28G06G07G16G11G03G19G10G13G23
 122694074.438 7  95605860.08444  23347911.625                    23347919.699
 126175720.244 6  98318807.32343  24010440.906                    24010451.125
 123369184.590 6  96131859.52144  23476377.430                    23476386.504
 112966448.251 8  88025839.75246  21496798.148                    21496805.016
 127624365.651 6  99447576.91143  24286114.523                    24286122.133
 126986440.023 6  98950575.95942  24164724.484                    24164736.699
 113567693.884 7  88494337.00745  21611214.617                    21611222.773
 110038205.588 7  85744086.16246  20939570.984                    20939577.363
 127114536.963 6  99050316.14243  24189097.438                    24189106.906
 105985334.129 8  82585999.61246  20168340.461                    20168347.711
 111822965.452 8  87134790.93545  21279209.031                    21279215.727
 11  7 26 18 20  0.0000000  0 11G08G28G06G07G16G11G03G19G10G13G23
 122622035.545 7  95549725.90344  23334203.070                    23334211.609
 126111268.035 6  98268584.92843  23998175.570                    23998185.508
 123452945.520 7  96197127.77344  23492316.828                    23492325.230
 112914038.434 8  87985000.93946  21486824.367                    21486831.602
 127714303.121 6  99517658.03043  24303229.531                    24303236.297
 126906489.732 6  98888277.19843  24149511.117                    24149522.691
 113637293.663 7  88548570.59645  21624459.039                    21624467.703
 110036610.614 8  85742843.33346  20939267.477                    20939273.781
 127154728.298 6  99081633.99343  24196746.281                    24196755.832
 106014905.811 8  82609042.44846  20173967.805                    20173974.797
 111906802.938 8  87200118.76245  21295162.359                    21295169.246
 11  7 26 18 20 30.0000000  0 11G08G28G06G07G16G11G03G19G10G13G23
 122549957.569 7  95493561.29444  23320487.422                    23320496.426
 126047033.382 6  98218532.05744  23985952.156                    23985962.402
 123537030.162 6  96262648.25544  23508316.484                    23508325.359
 112861732.845 8  87944243.34446  21476871.156                    21476878.605
 127804180.912 6  99587692.61543  24320332.016                    24320339.563
 126826501.345 6  98825948.71243  24134290.133                    24134301.168
 113707376.357 7  88603180.46145  21637794.820                    21637804.164
 110035637.571 8  85742085.11946  20939082.547                    20939088.340
 127195254.747 7  99113212.92643  24204458.063                    24204467.801
 106045068.148 8  82632545.54246  20179707.656                    20179714.973
 111991053.627 8  87265768.56345  21311194.789                    21311201.438
 11  7 26 18 21  0.0000000  0 11G08G28G06G07G16G11G03G19G10G13G23
 122477841.067 7  95437366.64344  23306763.688                    23306772.027
 125983016.273 7  98168648.66643  23973769.734                    23973780.566
 123621435.994 7  96328419.00943  23524379.172                    23524388.004
 112809532.578 8  87903567.82346  21466937.672                    21466945.305
 127893997.636 6  99657679.61643  24337424.375                    24337431.512
 126746477.689 6  98763592.75643  24119060.734                    24119072.668
 113777939.516 7  88658164.72645  21651222.914                    21651231.344
 110035286.466 8  85741811.55046  20939015.594                    20939021.949
 127236113.707 6  99145050.98543  24212232.289                    24212243.574
 106075820.510 8  82656508.39446  20185559.156                    20185567.055
 112075714.531 8  87331738.01746  21327305.594                    21327312.137
 11  7 26 18 21 30.0000000  0 11G08G28G06G07G16G11G03G19G10G13G23
 122405686.518 7  95381142.33444  23293033.555                    23293041.840
 125919216.555 6  98118934.72243  23961629.195                    23961639.574
 123706160.581 7  96394438.14544  23540502.156                    23540510.535
 112757438.906 8  87862975.36346  21457024.891                    21457031.906
 127983752.437 6  99727618.36943  24354504.141                    24354511.594
 126666421.340 6  98701211.29743  24103827.313                    24103838.492
 113848980.648 7  88713521.44045  21664741.641                    21664750.160
 110035557.564 8  85742022.81746  20939067.234                    20939073.035
 127277302.776 6  99177146.28443  24220071.094                    24220081.453
 106107162.159 8  82680930.41946  20191523.617                    20191530.891
 112160783.620 8  87398025.54145  21343493.555                    21343500.625
 11  7 26 18 22  0.0000000  0 11G08G28G06G07G16G11G03G19G10G13G23
 122333494.071 7  95324888.51044  23279295.383                    23279303.922
 125855634.351 6  98069390.22043  23949529.125                    23949540.227
 123791201.598 7  96460703.84044  23556684.680                    23556693.832
 112705453.325 8  87822467.11546  21447132.352                    21447139.309
 128073444.333 6  99797508.13243  24371572.195                    24371579.121
 126586335.283 6  98638806.69943  24088587.453                    24088598.223
 113920497.249 7  88769248.64545  21678350.508                    21678359.117
 110036451.024 8  85742719.03646  20939237.422                    20939243.250
 127318819.645 6  99209496.98143  24227971.492                    24227981.754
 106139092.762 8  82705811.37646  20197599.813                    20197607.215
 112246258.666 8  87464629.38645  21359758.797                    21359765.809
 11  7 26 18 22 30.0000000  0 11G08G28G06G07G16G11G03G19G10G13G23
 122261264.672 7  95268605.87044  23265550.188                    23265559.078
 125792269.313 6  98020014.93043  23937471.711                    23937482.590
 123876556.349 7  96527213.98544  23572927.711                    23572935.777
 112653576.947 8  87782043.96746  21437260.508                    21437267.664
 128163072.247 6  99867348.01043  24388627.313                    24388634.535
 126506221.992 6  98576380.82842  24073342.547                    24073352.852
 113992486.531 7  88825344.16645  21692049.797                    21692057.734
 110037966.910 7  85743900.26346  20939525.867                    20939531.445
 127360661.714 7  99242101.11843  24235933.758                    24235943.813
 106171611.278 8  82731150.45046  20203788.172                    20203795.359
 112332136.989 8  87531547.47445  21376101.172                    21376108.422
 11  7 26 18 23  0.0000000  0 11G08G28G06G07G16G11G03G19G10G13G23
 122188999.019 7  95212295.00744  23251799.016                    23251806.855
 125729121.582 7  97970809.00043  23925455.773                    23925465.504
 123962222.276 7  96593966.63544  23589228.563                    23589237.035
 112601810.808 8  87741706.71646  21427409.688                    21427417.082
 128252634.762 6  99937136.95543  24405670.445                    24405678.012
 126426084.262 6  98513935.97043  24058092.477                    24058103.297
 114064946.177 7  88881806.21145  21705838.625                    21705847.074
 110040105.240 8  85745566.50046  20939932.469                    20939938.012
 127402826.600 7  99274956.74443  24243957.750                    24243968.281
 106204717.064 8  82756947.13246  20210087.977                    20210095.344
 112418416.092 8  87598777.86445  21392519.641                    21392526.379
 11  7 26 18 23 30.0000000  0 11G08G28G06G07G16G11G03G19G10G13G23
 122116697.498 7  95155956.20244  23238040.438                    23238049.039
 125666191.335 7  97921772.48943  23913479.750                    23913489.391
 124048197.059 7  96660959.96144  23605589.477                    23605597.816
 112550156.349 8  87701456.49346  21417580.102                    21417587.551
 128342131.135 5 100006874.26143  24422700.664                    24422708.965
 126345924.862 7  98451474.21643  24042838.234                    24042849.027
 114137873.833 7  88938632.92645  21719716.313                    21719724.574
 110042866.112 8  85747717.84846  20940457.945                    20940464.313
 127445311.706 6  99308061.99043  24252042.445                    24252053.336
 106238409.876 8  82783201.23046  20216499.180                    20216506.711
 112505093.909 8  87666318.92945  21409013.781                    21409021.043
 11  7 26 18 24  0.0000000  0 11G08G28G06G07G16G11G03G19G10G13G23
 122044360.787 7  95099589.97544  23224275.313                    23224283.363
 125603478.322 6  97872905.28343  23901546.211                    23901555.891
 124134478.029 7  96728191.87344  23622008.555                    23622016.891
 112498614.811 8  87661294.26546  21407772.344                    21407779.492
 128431560.062 5 100076559.13243  24439717.703                    24439727.336
 126265746.459 6  98388997.63243  24027580.797                    24027591.871
 114211266.685 7  88995822.15245  21733682.750                    21733690.734
 110046249.412 8  85750354.20346  20941101.430                    20941107.734
 127488114.518 6  99341414.68443  24260187.727                    24260198.879
 106272688.584 8  82809911.88246  20223022.453                    20223029.965
 112592168.138 8  87734168.89545  21425583.375                    21425590.695
 11  7 26 18 24 30.0000000  0 11G08G28G06G07G16G11G03G19G10G13G23
 121971989.790 7  95043197.01644  23210503.250                    23210512.047
 125540982.728 6  97824207.52843  23889652.953                    23889662.820
 124221062.897 7  96795660.60043  23638484.461                    23638493.156
 112447187.758 8  87621221.24046  21397985.445                    21397993.520
 128520920.684 6 100146190.72043  24456723.898                    24456732.027
 126185551.726 6  98326508.34443  24012320.297                    24012331.258
 114285122.279 7  89053371.93445  21747736.938                    21747745.348
 110050255.469 7  85753475.82546  20941864.141                    20941869.902
 127531232.673 6  99375013.16643  24268391.844                    24268404.645
 106307552.595 8  82837078.60346  20229656.938                    20229664.492
 112679635.975 8  87802325.56245  21442228.266                    21442235.270
 11  7 26 18 25  0.0000000  0 11G08G28G06G07G16G11G03G19G10G13G23
 121899584.850 7  94986777.62244  23196725.047                    23196733.461
 125478704.292 7  97775678.96843  23877801.961                    23877812.531
 124307949.067 6  96863364.09444  23655018.617                    23655027.340
 112395876.540 8  87581238.46946  21388221.578                    21388228.973
 128610211.973 6 100215768.28442  24473715.633                    24473723.180
 126105343.677 6  98264008.70143  23997056.859                    23997068.086
 114359437.814 7  89111280.13044  21761878.844                    21761887.055
 110054884.023 8  85757082.50146  20942744.773                    20942750.805
 127574663.503 6  99408855.30343  24276657.609                    24276668.301
 106343001.029 8  82864700.72846  20236402.703                    20236410.027
 112767494.825 8  87870786.91745  21458947.422                    21458954.297
 11  7 26 18 25 30.0000000  0 11G08G28G06G07G16G11G03G19G10G13G23
 121827146.408 7  94930332.08344  23182940.352                    23182948.898
 125416642.975 6  97727319.58143  23865992.500                    23866002.180
 124395133.903 6  96931300.27744  23671608.969                    23671618.520
 112344682.175 8  87541346.75646  21378479.734                    21378487.152
 128699432.855 6 100285290.96043  24490692.836                    24490701.184
 126025125.043 6  98201500.81043  23981791.766                    23981803.352
 114434210.563 7  89169544.58645  21776107.016                    21776115.852
 110060134.792 8  85761174.02646  20943744.109                    20943750.262
 127618404.548 6  99442939.08743  24284981.242                    24284992.176
 106379033.086 8  82892777.61346  20243259.477                    20243266.594
 112855742.346 8  87939551.12845  21475740.500                    21475747.070
 11  7 26 18 26  0.0000000  0 11G08G28G06G07G16G11G03G19G10G13G23
 121754675.590 7  94873861.34144  23169149.883                    23169158.727
 125354798.922 6  97679129.57043  23854222.977                    23854234.215
 124482614.835 6  96999467.20244  23688256.383                    23688265.152
 112293606.014 7  87501547.16446  21368760.445                    21368767.613
 128788582.280 6 100354758.00343  24507658.750                    24507664.980
 125944898.336 6  98138986.61943  23966524.961                    23966536.828
 114509437.938 7  89228163.31545  21790422.734                    21790430.777
 110066007.880 8  85765750.47446  20944861.586                    20944867.582
 127662453.194 6  99477262.56343  24293363.570                    24293374.254
 106415647.964 8  82921308.66246  20250226.617                    20250234.379
 112944376.046 8  88008616.27545  21492606.922                    21492614.172
 11  7 26 18 26 30.0000000  0 11G08G28G06G07G16G11G03G19G10G13G23
 121682173.163 7  94817365.98644  23155352.891                    23155361.551
 125293171.812 6  97631108.56343  23842495.617                    23842505.980
 124570389.695 6  97067863.15744  23704959.445                    23704968.727
 112242649.774 8  87461841.00546  21359063.633                    21359070.949
 128877659.526 6 100424168.78843  24524608.727                    24524617.020
 125864666.420 6  98076468.38343  23951257.617                    23951269.180
 114585117.576 7  89287134.44045  21804824.273                    21804832.227
 110072503.229 8  85770811.79346  20946097.281                    20946103.426
 127706806.974 6  99511823.90843  24301803.586                    24301814.012
 106452844.982 8  82950293.31346  20257305.133                    20257312.336
 113033393.626 8  88077980.55045  21509546.250                    21509553.316
 11  7 26 18 27  0.0000000  0 11G08G28G06G07G16G11G03G19G10G13G23
 121609639.644 7  94760846.39044  23141550.758                    23141559.184
 125231761.501 6  97583256.50643  23830810.070                    23830819.875
 124658455.489 6  97136485.80944  23721717.602                    23721726.254
 112191814.409 8  87422229.04846  21349389.867                    21349397.074
 128966663.200 6 100493522.25743  24541546.109                    24541552.855
 125784432.273 6  98013948.39043  23935988.578                    23936000.488
 114661246.652 8  89346455.77545  21819310.906                    21819318.914
 110079620.362 8  85776357.62646  20947451.742                    20947458.070
 127751463.005 6  99546620.70643  24310301.633                    24310312.445
 106490623.006 8  82979730.69246  20264494.117                    20264501.617
 113122792.269 8  88147641.74345  21526558.391                    21526566.023
 11  7 26 18 27 30.0000000  0 11G08G28G06G07G16G11G03G19G10G13G23
 121537075.440 7  94704302.88744  23127742.094                    23127751.098
 125170567.663 6  97535573.11244  23819165.117                    23819175.344
 124746809.845 6  97205333.32444  23738531.547                    23738539.488
 112141101.282 8  87382712.33146  21339739.688                    21339746.695
 129055592.445 6 100562817.74243  24558469.625                    24558476.508
 125704198.242 6  97951428.53243  23920721.258                    23920732.293
 114737822.688 7  89406125.39445  21833882.633                    21833891.340
 110087359.188 8  85782387.88846  20948924.531                    20948930.379
 127796419.247 6  99581651.42843  24318856.078                    24318867.035
 106528980.815 8  83009619.86846  20271793.398                    20271800.777
 113212569.425 7  88217597.88845  21543642.750                    21543649.242
 11  7 26 18 28  0.0000000  0 11G08G28G06G07G16G11G03G19G10G13G23
 121464481.359 7  94647736.08244  23113927.320                    23113936.492
 125109590.444 6  97488058.48443  23807561.313                    23807571.730
 124835450.136 6  97274403.62944  23755399.320                    23755407.387
 112090511.729 8  87343291.90946  21330112.797                    21330119.762
 129144446.247 6 100632054.44842  24575376.477                    24575384.504
 125623967.454 6  97888911.15343  23905453.695                    23905464.922
 114814842.987 7  89466141.17545  21848539.172                    21848547.727
 110095719.585 8  85788902.49246  20950515.445                    20950521.367
 127841672.658 6  99616913.69543  24327468.352                    24327478.430
 106567917.613 8  83039960.19446  20279202.773                    20279210.621
 113302722.723 7  88287847.13345  21560798.227                    21560805.051
 11  7 26 18 28 30.0000000  0 11G08G28G06G07G16G11G03G19G10G13G23
 121391858.255 7  94591146.68144  23100107.797                    23100116.078
 125048829.731 6  97440712.62343  23795999.203                    23796009.020
 124924374.034 7  97343694.92343  23772320.734                    23772328.980
 112040047.368 8  87303969.03346  21320509.492                    21320516.543
 129233223.956 6 100701231.84943  24592271.070                    24592278.586
 125543742.805 7  97826398.55843  23890187.516                    23890198.340
 114892304.819 7  89526501.01345  21863280.102                    21863288.785
 110104701.270 8  85795901.21746  20952224.469                    20952230.883
 127887220.730 6  99652405.60243  24336135.156                    24336146.121
 106607432.813 8  83070751.22946  20286722.297                    20286729.887
 113393249.561 8  88358387.43945  21578025.172                    21578031.988
 11  7 26 18 29  0.0000000  0 11G08G28G06G07G16G11G03G19G10G13G23
 121319206.855 7  94534535.21144  23086283.023                    23086291.371
 124988285.322 7  97393535.28444  23784477.453                    23784487.676
 125013578.777 6  97413205.11143  23789295.586                    23789303.613
 111989709.141 8  87264744.44946  21310930.719                    21310937.961
 129321924.460 6 100770349.06943  24609149.547                    24609158.082
 125463526.809 6  97763892.74643  23874922.352                    23874933.258
 114970205.120 7  89587202.52145  21878104.148                    21878112.273
 110114303.791 8  85803383.70846  20954052.172                    20954058.297
 127933060.707 6  99688124.94843  24344858.508                    24344868.934
 106647525.168 8  83101991.99846  20294351.820                    20294359.207
 113484147.605 7  88429216.99345  21595321.930                    21595329.660
 11  7 26 18 29 30.0000000  0 11G08G28G06G07G16G11G03G19G10G13G23
 121246527.852 7  94477902.24944  23072452.492                    23072460.945
 124927957.259 7  97346526.54744  23772997.813                    23773007.480
 125103062.066 6  97482932.30544  23806323.680                    23806332.441
 111939498.593 8  87225619.34946  21301375.813                    21301383.043
 129410546.606 6 100839405.22043  24626015.203                    24626021.664
 125383322.577 6  97701396.06943  23859660.078                    23859672.121
 115048541.781 7  89648244.04845  21893010.977                    21893019.637
 110124527.071 8  85811349.91046  20955997.305                    20956003.258
 127979190.186 6  99724069.86943  24353636.031                    24353648.031
 106688193.912 8  83133681.90046  20302090.828                    20302098.555
 113575413.914 8  88500333.51745  21612689.977                    21612697.113
 11  7 26 18 30  0.0000000  0 11G08G28G06G07G16G11G03G19G10G13G23
 121173822.160 7  94421248.48644  23058616.992                    23058625.051
 124867845.120 7  97299685.99444  23761558.813                    23761568.047
 125192821.215 6  97552874.50143  23823404.336                    23823413.465
 111889417.551 8  87186595.16446  21291845.531                    21291852.578
 129499089.696 6 100908399.80743  24642864.023                    24642871.000
 125303132.854 6  97638910.71343  23844400.445                    23844411.648
 115127311.972 7  89709623.38945  21908000.734                    21908008.652
 110135370.797 8  85819799.57246  20958060.930                    20958066.898
 128025606.635 6  99760238.37043  24362469.219                    24362480.945
 106729437.734 8  83165819.91446  20309939.320                    20309946.977
 113667046.314 8  88571735.28645  21630127.219                    21630134.074
 11  7 26 18 30 30.0000000  0 11G08G28G06G07G16G11G03G19G10G13G23
 121101090.518 7  94364574.50444  23044776.383                    23044784.758
 124807949.189 7  97253013.94644  23750160.695                    23750170.246
 125282853.739 7  97623029.67143  23840537.250                    23840546.637
 111839467.166 7  87147672.79846  21282340.148                    21282347.488
 129587552.811 6 100977332.01943  24659697.555                    24659705.789
 125222960.181 6  97576438.64843  23829143.617                    23829155.133
 115206512.925 7  89771338.40245  21923072.445                    21923080.141
 110146834.423 8  85828732.27546  20960242.422                    20960248.461
 128072307.303 6  99796628.31443  24371356.734                    24371367.363
 106771255.598 8  83198405.22346  20317896.805                    20317904.477
 113759041.984 8  88643420.12845  21647633.258                    21647640.559
 11  7 26 18 31  0.0000000  0 11G08G28G06G07G16G11G03G19G10G13G23
 121028333.758 7  94307880.95744  23030931.133                    23030940.203
 124748268.737 7  97206509.82144  23738804.539                    23738813.703
 125373157.076 7  97693395.84843  23857721.625                    23857730.871
 111789648.745 7  87108853.25446  21272860.508                    21272867.910
 129675935.059 6 101046201.30443  24676516.422                    24676524.313
 125142807.722 6  97513982.32743  23813891.328                    23813902.609
 115286141.910 7  89833386.92645  21938224.922                    21938233.109
 110158917.405 8  85838147.59146  20962541.602                    20962547.496
 128119289.662 6  99833237.84243  24380296.906                    24380308.059
 106813646.543 8  83231437.09946  20325963.461                    20325970.855
 113851398.136 8  88715385.86145  21665207.914                    21665215.559
 11  7 26 18 31 30.0000000  0 11G08G28G06G07G16G11G03G19G10G13G23
 120955552.844 7  94251168.57344  23017081.016                    23017090.109
 124688803.798 6  97160173.62544  23727488.133                    23727497.813
 125463728.649 6  97763971.07543  23874956.641                    23874965.816
 111739963.739 8  87070137.67046  21263405.703                    21263413.109
 129764235.637 6 101115006.83343  24693318.805                    24693326.762
 125062678.260 6  97451543.88343  23798642.781                    23798654.266
 115366196.230 7  89895766.89245  21953458.836                    21953467.168
 110171619.542 8  85848045.36446  20964958.906                    20964964.688
 128166550.777 6  99870064.53843  24389290.242                    24389301.789
 106856609.383 8  83264914.60246  20334139.070                    20334146.414
 113944112.290 8  88787630.55345  21682850.883                    21682858.227
 11  7 26 18 32  0.0000000  0 11G08G28G06G07G16G11G03G19G10G13G23
 120882748.106 7  94194437.61844  23003227.164                    23003235.695
 124629554.302 7  97114005.29644  23716213.258                    23716222.301
 125554566.021 6  97834753.33743  23892242.547                    23892251.348
 111690413.585 8  87031527.17046  21253975.961                    21253983.645
 129852453.790 6 101183748.19943  24710105.633                    24710114.559
 124982574.595 6  97389125.58043  23783399.727                    23783410.602
 115446672.539 7  89958475.67345  21968772.703                    21968781.227
 110184940.506 8  85858425.34846  20967493.656                    20967499.582
 128214088.420 6  99907106.67143  24398336.766                    24398348.363
 106900143.151 8  83298836.98946  20342423.430                    20342430.938
 114037182.080 8  88860152.37145  21700561.844                    21700569.320
 11  7 26 18 32 30.0000000  0 11G08G28G06G07G16G11G03G19G10G13G23
 120809920.442 7  94137688.80744  22989368.609                    22989377.129
 124570519.831 6  97068004.49744  23704979.797                    23704989.285
 125645666.583 6  97905740.77443  23909578.781                    23909587.207
 111640999.746 8  86993022.88746  21244572.773                    21244580.641
 129940588.289 6 101252424.37843  24726877.297                    24726886.320
 124902499.708 7  97326729.69143  23768162.031                    23768172.848
 115527568.715 7  90021511.63145  21984166.914                    21984175.434
 110198879.649 8  85869287.02546  20970146.031                    20970152.297
 128261899.739 6  99944362.16043  24407435.539                    24407445.934
 106944246.392 8  83333203.11746  20350815.766                    20350822.875
 114130604.771 8  88932949.16645  21718339.617                    21718346.340
 11  7 26 18 33  0.0000000  0 11G08G28G06G07G16G11G03G19G10G13G23
 120737070.776 7  94080922.86044  22975505.414                    22975514.352
 124511700.311 7  97022171.21744  23693786.273                    23693795.367
 125737027.788 6  97976931.30943  23926963.656                    23926971.953
 111591723.593 8  86954625.89046  21235196.219                    21235203.832
 130028638.392 6 101321034.73542  24743633.109                    24743641.273
 124822456.317 6  97264358.33543  23752930.125                    23752941.125
 115608882.162 7  90084872.73344  21999640.102                    21999649.016
 110213436.528 8  85880630.05546  20972916.156                    20972922.770
 128309982.091 6  99981828.78043  24416585.055                    24416596.152
 106988918.114 8  83368012.21746  20359316.469                    20359324.402
 114224377.656 8  89006018.85145  21736184.188                    21736191.527
 11  7 26 18 33 30.0000000  0 11G08G28G06G07G16G11G03G19G10G13G23
 120664200.288 7  94024140.69544  22961638.641                    22961647.828
 124453095.635 6  96976505.32543  23682633.563                    23682643.453
 125828647.092 6  98048322.93243  23944398.313                    23944407.145
 111542586.692 8  86916337.39946  21225845.906                    21225853.313
 130116603.366 5 101389578.80143  24760371.602                    24760381.238
 124742447.241 6  97202013.69243  23737705.172                    23737715.535
 115690610.113 7  90148556.82545  22015192.461                    22015200.773
 110228610.760 8  85892454.13846  20975803.648                    20975809.805
 128358332.788 6 100019504.46143  24425786.258                    24425797.039
 107034157.202 8  83403263.41346  20367925.633                    20367932.953
 114318498.137 8  89079359.39545  21754094.977                    21754101.621
 11  7 26 18 34  0.0000000  0 11G08G28G06G07G16G11G03G19G10G13G23
 120591309.530 7  93967342.71345  22947768.430                    22947776.961
 124394705.411 7  96931006.54043  23671522.203                    23671531.680
 125920521.889 6  98119913.62143  23961881.672                    23961890.680
 111493590.473 8  86878158.54046  21216522.102                    21216529.441
 130204482.154 6 101458055.64242  24777096.008                    24777103.727
 124662475.511 7  97139698.18943  23722486.625                    23722497.457
 115772749.572 7  90212561.57844  22030823.000                    22030831.348
 110244401.647 8  85904758.73846  20978809.063                    20978814.770
 128406949.246 6 100057387.31043  24435037.891                    24435048.859
 107079962.394 8  83438955.73446  20376641.906                    20376649.516
 114412963.809 8  89152968.91245  21772071.195                    21772078.434
 11  7 26 18 34 30.0000000  0 11G08G28G06G07G16G11G03G19G10G13G23
 120518398.916 7  93910529.28445  22933894.211                    22933902.176
 124336529.299 7  96885674.58043  23660452.055                    23660461.242
 126012649.470 6  98191701.29743  23979412.875                    23979421.887
 111444736.331 8  86840090.37246  21207225.547                    21207232.590
 130292273.851 5 101526464.70442  24793802.125                    24793809.492
 124582543.637 7  97077413.73143  23707275.641                    23707286.613
 115855297.730 7  90276884.80544  22046531.844                    22046540.105
 110260808.064 8  85917542.97146  20981931.039                    20981937.191
 128455828.798 6 100095475.11043  24444339.555                    24444350.980
 107126331.772 8  83475087.67046  20385465.477                    20385473.086
 114507771.430 8  89226844.87245  21790112.188                    21790119.328
 11  7 26 18 35  0.0000000  0 11G08G28G06G07G16G11G03G19G10G13G23
 120445469.821 7  93853701.42644  22920015.609                    22920024.031
 124278567.217 6  96840509.40143  23649421.883                    23649431.473
 126105027.573 6  98263684.20644  23996991.625                    23997000.754
 111396026.004 8  86802134.27746  21197956.422                    21197963.973
 130379977.904 6 101594805.51042  24810491.172                    24810499.035
 124502654.964 7  97015162.88143  23692073.352                    23692083.840
 115938251.579 7  90341524.13644  22062317.227                    22062325.457
 110277830.097 8  85930806.91146  20985170.250                    20985176.316
 128504968.684 6 100133765.78143  24453690.539                    24453701.582
 107173264.671 8  83511658.72246  20394396.789                    20394404.660
 114602918.831 8  89300985.59745  21808218.500                    21808225.375
 11  7 26 18 35 30.0000000  0 11G08G28G06G07G16G11G03G19G10G13G23
 120372522.648 7  93796859.50444  22906134.570                    22906142.281
 124220818.797 7  96795510.71843  23638432.711                    23638441.699
 126197653.351 6  98335860.06744  24014618.211                    24014626.781
 111347460.389 8  86764290.95446  21188714.578                    21188722.258
 130467593.354 6 101663077.18042  24827163.961                    24827172.059
 124422812.133 6  96952947.79843  23676879.578                    23676890.559
 116021608.518 7  90406477.57344  22078179.648                    22078187.637
 110295466.719 8  85944549.74446  20988526.070                    20988532.109
 128554366.244 6 100172257.24043  24463091.094                    24463102.102
 107220759.610 8  83548667.71946  20403434.766                    20403442.395
 114698402.741 8  89375388.54645  21826388.781                    21826395.938
 11  7 26 18 36  0.0000000  0 11G08G28G06G07G16G11G03G19G10G13G23
 120299558.831 7  93740004.60844  22892250.117                    22892258.598
 124163283.988 7  96750678.49744  23627484.500                    23627494.203
 126290524.432 6  98408227.10244  24032291.172                    24032300.129
 111299041.388 8  86726561.85646  21179500.586                    21179508.059
 130555119.583 6 101731279.39243  24843819.336                    24843828.012
 124343017.971 6  96890770.63943  23661695.656                    23661706.281
 116105365.911 7  90471743.06744  22094117.953                    22094125.934
 110313717.097 8  85958770.83746  20991998.656                    20992004.980
 128604018.508 6 100210947.17743  24472539.063                    24472549.926
 107268815.265 8  83586113.64146  20412579.430                    20412587.297
 114794220.757 8  89450051.83145  21844622.039                    21844629.586
 11  7 26 18 36 30.0000000  0 11G08G28G06G07G16G11G03G19G10G13G23
 120226579.254 7  93683137.41744  22878362.555                    22878370.910
 124105962.391 7  96706012.41443  23616576.016                    23616585.309
 126383638.352 6  98480783.34644  24050010.086                    24050019.027
 111250770.668 8  86688948.31146  21170314.867                    21170322.273
 130642555.870 6 101799411.53143  24860458.211                    24860466.551
 124263275.778 6  96828633.98743  23646520.836                    23646531.516
 116189521.052 7  90537318.47744  22110131.813                    22110140.301
 110332581.095 8  85973470.07246  20995588.555                    20995594.813
 128653923.016 6 100249833.65243  24482036.438                    24482046.508
 107317430.658 8  83623995.71246  20421830.992                    20421838.809
 114890370.422 8  89524973.54245  21862918.938                    21862926.355
 11  7 26 18 37  0.0000000  0 11G08G28G06G07G16G11G03G19G10G13G23
 120153584.337 7  93626258.27644  22864472.023                    22864479.980
 124048853.596 7  96661512.15244  23605708.781                    23605718.398
 126476992.213 6  98553526.59443  24067774.273                    24067782.883
 111202649.289 8  86651451.13746  21161157.977                    21161164.953
 130729901.088 6 101867472.68643  24877080.242                    24877087.730
 124183588.125 6  96766539.81143  23631356.797                    23631367.691
 116274070.742 7  90603201.33944  22126221.492                    22126229.375
 110352057.400 8  85988646.42746  20999294.773                    20999300.691
 128704076.944 6 100288914.47743  24491579.320                    24491591.492
 107366603.759 8  83662312.37546  20431188.297                    20431196.094
 114986848.860 8  89600151.44845  21881278.227                    21881285.824
 11  7 26 18 37 30.0000000  0 10G08G28G06G07G11G03G19G10G13G23
 120080575.266 7  93569368.11744  22850578.664                    22850587.207
 123991957.647 7  96617177.72843  23594881.625                    23594890.574
 126570583.926 7  98626455.14043  24085584.953                    24085593.418
 111154679.248 8  86614071.89046  21152029.633                    21152036.789
 124103958.221 6  96704490.64443  23616203.617                    23616213.969
 116359012.489 7  90669389.67944  22142385.570                    22142394.070
 110372145.747 8  86004299.69446  21003117.961                    21003123.457
 128754477.792 6 100328187.70143  24501170.555                    24501182.246
 107416333.700 8  83701062.92946  20440651.688                    20440659.262
 115083653.417 8  89675583.46945  21899699.234                    21899706.898
 11  7 26 18 38  0.0000000  0 10G08G28G06G07G11G03G19G10G13G23
 120007553.068 7  93512467.73144  22836683.031                    22836691.641
 123935274.087 7  96573008.83443  23584094.500                    23584104.348
 126664410.743 7  98699566.90243  24103438.945                    24103448.070
 111106861.702 8  86576811.46446  21142930.227                    21142937.547
 124024388.732 6  96642488.51943  23601062.969                    23601072.117
 116444343.286 7  90735881.18444  22158623.320                    22158632.234
 110392845.306 8  86020429.23546  21007056.406                    21007061.836
 128805122.619 6 100367651.02943  24510808.688                    24510820.172
 107466618.683 8  83740245.98746  20450220.523                    20450228.676
 115180781.579 8  89751267.63845  21918182.180                    21918190.160
 11  7 26 18 38 30.0000000  0 10G08G28G06G07G11G03G19G10G13G23
 119934518.608 7  93455557.78944  22822784.766                    22822793.203
 123878802.623 7  96529005.19844  23573348.797                    23573357.254
 126758469.980 6  98772859.78443  24121338.109                    24121346.742
 111059198.058 8  86539670.97246  21133860.398                    21133867.281
 123944882.482 6  96580535.70143  23585932.523                    23585942.871
 116530060.497 7  90802673.80244  22174934.680                    22174943.270
 110414154.944 8  86037034.16346  21011111.500                    21011117.488
 128856008.630 7 100407302.31643  24520492.727                    24520503.637
 107517457.486 8  83779860.59246  20459895.000                    20459902.566
 115278230.361 7  89827201.65045  21936726.609                    21936733.883
 11  7 26 18 39  0.0000000  0 10G08G28G06G07G11G03G19G10G13G23
 119861473.040 7  93398639.18844  22808884.758                    22808893.348
 123822542.853 7  96485166.49244  23562642.914                    23562652.051
 126852759.110 6  98846331.78143  24139281.188                    24139289.160
 111011690.123 8  86502651.81346  21124819.688                    21124826.656
 123865442.631 6  96518634.61643  23570815.375                    23570826.734
 116616161.505 7  90869765.46744  22191319.344                    22191327.688
 110436073.902 8  86054113.88546  21015282.547                    21015288.309
 128907133.006 6 100447139.34743  24530220.633                    24530232.352
 107568848.664 8  83819905.62346  20469674.031                    20469681.777
 115375996.981 8  89903383.31245  21955330.820                    21955338.285
 11  7 26 18 39 30.0000000  0 10G08G28G06G07G11G03G19G10G13G23
 119788417.060 7  93341712.47044  22794982.930                    22794991.008
 123766494.619 7  96441492.62944  23551977.852                    23551986.848
 126947275.798 6  98919981.13743  24157266.484                    24157275.563
 110964339.572 8  86465755.27746  21115808.906                    21115816.141
 123786072.108 6  96456787.58343  23555711.484                    23555722.313
 116702643.335 7  90937153.86544  22207776.219                    22207784.598
 110458601.466 8  86071667.83946  21019569.469                    21019575.563
 128958493.337 6 100487160.24643  24539994.781                    24540006.359
 107620790.802 8  83860379.96546  20479558.773                    20479565.910
 115474078.755 8  89979810.56845  21973995.148                    21974003.121
 11  7 26 18 40  0.0000000  0 10G08G28G06G07G11G03G19G10G13G23
 119715351.716 7  93284778.46945  22781078.727                    22781087.148
 123710656.884 7  96397982.79644  23541351.945                    23541360.848
 127042017.285 6  98993805.62843  24175295.727                    24175305.137
 110917147.777 8  86428982.45746  21106828.867                    21106835.965
 123706773.961 7  96394996.96543  23540621.195                    23540632.176
 116789502.757 7  91004836.50444  22224304.844                    22224312.902
 110481736.512 8  86089695.15646  21023972.180                    21023977.898
 129010086.705 6 100527362.67843  24549812.258                    24549824.508
 107673281.836 8  83901282.02846  20489547.242                    20489555.070
 115572472.918 7  90056481.22645  21992719.398                    21992726.820
 11  7 26 18 40 30.0000000  0 10G08G28G06G07G11G03G19G10G13G23
 119642277.839 7  93227837.81145  22767173.445                    22767181.949
 123655030.258 7  96354637.46744  23530765.844                    23530775.551
 127136980.917 6  99067803.19343  24193366.750                    24193376.105
 110870116.236 8  86392334.50246  21097879.141                    21097886.520
 123627550.809 7  96333264.74243  23525546.000                    23525555.738
 116876736.920 7  91072811.14244  22240905.555                    22240913.477
 110505478.180 8  86108195.17546  21028490.078                    21028495.477
 129061910.374 6 100567744.58043  24559674.242                    24559686.211
 107726320.270 8  83942610.62846  20499640.305                    20499648.090
 115671176.825 8  90133393.26745  22011502.195                    22011509.723
 11  7 26 18 41  0.0000000  0 10G08G28G06G07G11G03G19G10G13G23
 119569196.826 7  93170891.59445  22753266.398                    22753274.941
 123599614.265 7  96311456.24044  23520220.711                    23520230.301
 127232164.523 6  99141972.18943  24211478.984                    24211488.926
 110823246.611 8  86355812.71946  21088960.109                    21088967.426
 123548405.717 7  96271593.36444  23510484.891                    23510495.855
 116964343.333 7  91141075.85844  22257575.813                    22257584.453
 110529825.821 8  86127167.37046  21033123.148                    21033128.879
 129113961.673 6 100608303.89843  24569579.828                    24569591.258
 107779905.160 8  83984365.04146  20509837.117                    20509845.023
 115770187.464 7  90210544.31445  22030343.078                    22030350.219
 11  7 26 18 41 30.0000000  0 10G08G28G06G07G11G03G19G10G13G23
 119496109.479 7  93113940.43145  22739358.398                    22739366.637
 123544408.279 7  96268438.65144  23509714.813                    23509724.629
 127327565.322 6  99216310.41843  24229633.422                    24229642.738
 110776540.292 8  86319418.20146  21080072.102                    21080079.316
 123469341.816 7  96209985.26943  23495439.188                    23495450.117
 117052319.006 7  91209628.28444  22274317.539                    22274326.195
 110554778.176 8  86146610.77146  21037871.453                    21037876.840
 129166237.672 6 100649038.28743  24579526.953                    24579539.336
 107834034.600 8  84026543.77046  20520137.633                    20520145.801
 115869502.384 7  90287932.45845  22049242.469                    22049249.672
 11  7 26 18 42  0.0000000  0 10G08G28G06G07G11G03G19G10G13G23
 119423016.730 7  93056985.05044  22725448.820                    22725458.055
 123489412.026 7  96225584.49544  23499249.484                    23499258.816
 127423180.704 6  99290815.86843  24247828.148                    24247837.801
 110729998.954 8  86283152.22146  21071215.500                    21071222.512
 123390361.912 7  96148442.64043  23480410.156                    23480420.363
 117140661.039 7  91278466.21744  22291128.250                    22291137.340
 110580334.101 8  86166524.47446  21042734.180                    21042739.938
 129218735.629 6 100689945.59443  24589516.688                    24589529.594
 107888706.800 8  84069145.44046  20530541.344                    20530549.500
 115969118.607 7  90365555.38145  22068198.820                    22068206.543
 11  7 26 18 42 30.0000000  0 10G08G28G06G07G11G03G19G10G13G23
 119349919.822 7  93000026.45245  22711539.578                    22711547.871
 123434625.199 7  96182893.53944  23488824.023                    23488833.961
 127519008.375 6  99365486.72943  24266064.453                    24266073.277
 110683624.412 8  86247016.21446  21062390.930                    21062398.391
 123311468.946 7  96086967.72343  23465396.789                    23465407.203
 117229366.599 7  91347587.39644  22308008.570                    22308016.895
 110606492.996 8  86186908.03846  21047711.914                    21047717.699
 129271453.075 6 100731023.94542  24599549.688                    24599561.039
 107943920.501 8  84112169.05546  20541048.398                    20541056.418
 116069033.435 7  90443410.98145  22087211.828                    22087219.434
 11  7 26 18 43  0.0000000  0 10G08G28G06G07G11G03G19G10G13G23
 119276819.522 7  92943065.21045  22697628.609                    22697637.527
 123380047.211 7  96140365.28344  23478438.633                    23478448.988
 127615045.481 6  99440320.77243  24284339.281                    24284348.070
 110637418.123 8  86211011.32046  21053598.141                    21053605.320
 123232666.040 7  96025563.00343  23450401.297                    23450411.656
 117318432.948 7  91416989.73144  22324957.258                    22324965.477
 110633253.595 8  86207760.45646  21052804.609                    21052810.480
 129324387.081 6 100772271.04042  24609622.531                    24609634.480
 107999673.723 8  84155613.08046  20551657.891                    20551665.406
 116169243.991 7  90521497.01145  22106281.398                    22106288.906
 11  7 26 18 43 30.0000000  0 10G08G28G06G07G11G03G19G10G13G23
 119203717.180 7  92886102.36445  22683717.867                    22683726.180
 123325678.031 7  96097999.77744  23468092.203                    23468101.875
 127711289.913 6  99515316.36743  24302654.547                    24302663.277
 110591381.692 8  86175138.77946  21044837.586                    21044844.863
 123153955.744 7  95964230.43643  23435423.203                    23435432.918
 117407857.223 7  91486670.95644  22341974.164                    22341982.082
 110660614.912 8  86229080.95746  21058011.180                    21058016.977
 129377534.928 6 100813684.79442  24619736.719                    24619747.230
 108055965.249 8  84199476.56646  20562369.820                    20562377.645
 116269747.826 8  90599811.57245  22125407.070                    22125414.738
 11  7 26 18 44  0.0000000  0 10G08G28G06G07G11G03G19G10G13G23
 119130613.793 7  92829138.70744  22669806.672                    22669814.930
 123271517.077 7  96055796.48644  23457785.898                    23457795.172
 127807738.722 7  99590471.22844  24321008.289                    24321016.422
 110545516.504 8  86139399.67246  21036109.563                    21036116.824
 123075341.548 7  95902972.73743  23420463.352                    23420472.656
 117497636.492 7  91556628.80744  22359058.711                    22359066.797
 110688575.825 8  86250868.69246  21063331.953                    21063337.609
 129430893.299 6 100855262.55442  24629889.883                    24629900.734
 108112792.929 8  84243757.82146  20573183.688                    20573191.895
 116370541.831 8  90678352.25045  22144587.703                    22144595.398
 11  7 26 18 44 30.0000000  0 10G08G28G06G07G11G03G19G10G13G23
 119057510.283 7  92772174.95144  22655895.500                    22655903.469
 123217563.604 7  96013754.88144  23447518.805                    23447527.770
 127904389.453 6  99665783.43143  24339399.742                    24339408.984
 110499824.517 8  86103795.52146  21027414.773                    21027422.230
 122996826.350 7  95841792.16743  23405522.438                    23405531.574
 117587767.659 7  91626860.86544  22376209.961                    22376218.965
 110717134.623 7  86273122.30646  21068766.664                    21068772.102
 129484459.666 6 100897002.45743  24640083.516                    24640095.039
 108170154.732 8  84288455.28446  20584099.289                    20584106.957
 116471623.032 7  90757116.69845  22163822.563                    22163830.516
 11  7 26 18 45  0.0000000  0 10G08G28G06G07G11G03G19G10G13G23
 118984407.475 7  92715211.75244  22641984.977                    22641992.723
 123163817.433 7  95971874.81244  23437290.719                    23437299.965
 128001239.635 6  99741251.02343  24357829.695                    24357838.469
 110454306.986 8  86068327.31946  21018752.852                    21018760.332
 122918413.028 7  95780690.97943  23390601.234                    23390610.293
 117678248.007 7  91697364.99844  22393428.180                    22393436.672
 110746290.792 8  86295841.40346  21074314.891                    21074320.672
 129538231.585 6 100938902.44143  24650315.578                    24650328.621
 108228049.406 8  84333567.96546  20595116.398                    20595124.273
 116572988.920 8  90836102.97945  22183112.203                    22183119.727
 11  7 26 18 45 30.0000000  0 10G08G28G06G07G11G03G19G10G13G23
 118911306.834 7  92658250.22245  22628074.133                    22628081.828
 123110278.539 7  95930156.24544  23427102.961                    23427112.102
 128098286.630 6  99816872.03143  24376296.844                    24376306.023
 110408965.699 8  86032996.45546  21010124.602                    21010132.047
 122840104.477 7  95719671.45643  23375698.688                    23375708.738
 117769074.829 7  91768139.10944  22410712.117                    22410720.203
 110776043.015 8  86319024.96146  21079976.570                    21079982.531
 129592206.161 6 100980960.34742  24660587.500                    24660599.605
 108286475.262 8  84379094.55446  20606234.609                    20606242.656
 116674636.633 7  90915308.86445  22202454.555                    22202463.004
 11  7 26 18 46  0.0000000  0 10G08G28G06G07G11G03G19G10G13G23
 118838209.597 7  92601291.35645  22614164.203                    22614171.906
 123056946.033 7  95888598.50744  23416954.031                    23416963.105
 128195528.028 6  99892644.46443  24394802.188                    24394810.645
 110363802.359 8  85997804.23546  21001530.609                    21001537.984
 122761903.900 7  95658736.07044  23360817.555                    23360828.215
 117860244.914 7  91839180.69044  22428060.922                    22428069.777
 110806389.902 7  86342671.89546  21085751.227                    21085757.328
 129646380.427 6 101023173.92842  24670896.320                    24670908.520
 108345430.260 8  84425033.46246  20617453.445                    20617461.160
 116776563.294 7  90994732.10345  22221850.789                    22221858.773
 11  7 26 18 46 30.0000000  0 10G08G28G06G07G11G03G19G10G13G23
 118765116.646 7  92544335.82845  22600254.836                    22600263.066
 123003819.687 7  95847201.42044  23406844.070                    23406853.754
 128292961.414 6  99968566.51043  24413342.906                    24413351.887
 110318818.516 8  85962751.89446  20992970.422                    20992977.371
 122683814.045 7  95597886.98244  23345957.867                    23345967.836
 117951755.511 7  91910487.62044  22445474.688                    22445483.371
 110837330.606 8  86366781.54946  21091638.898                    21091644.863
 129700751.873 6 101065541.07842  24681243.633                    24681255.176
 108404912.914 8  84471383.53946  20628772.594                    20628780.367
 116878766.103 7  91074370.52745  22241299.703                    22241307.391
 11  7 26 18 47  0.0000000  0 10G08G28G06G07G11G03G19G10G13G23
 118692029.031 7  92487384.44945  22586346.953                    22586355.039
 122950899.075 7  95805964.65544  23396773.859                    23396783.289
 128390583.925 6 100044635.97343  24431919.625                    24431928.629
 110274015.794 8  85927840.67846  20984444.898                    20984451.914
 122605838.077 7  95537126.59443  23331119.367                    23331128.953
 118043603.761 7  91982057.65544  22462953.156                    22462961.723
 110868863.276 8  86391352.45946  21097639.477                    21097645.461
 129755317.445 6 101108059.55443  24691627.203                    24691639.793
 108464920.852 8  84518142.91746  20640191.859                    20640199.578
 116981241.839 7  91154221.64345  22260800.336                    22260807.980
 11  7 26 18 47 30.0000000  0 10G08G28G06G07G11G03G19G10G13G23
 118618948.137 7  92430438.31745  22572440.281                    22572448.336
 122898183.615 7  95764887.73144  23386742.094                    23386751.402
 128488393.364 6 100120851.07143  24450532.375                    24450541.020
 110229395.925 8  85893071.95546  20975954.164                    20975961.242
 122527978.764 7  95476457.13044  23316302.867                    23316313.094
 118135786.795 7  92053888.55444  22480495.141                    22480503.695
 110900987.164 7  86416384.05746  21103752.594                    21103758.184
 129810074.481 6 101150727.15943  24702048.352                    24702059.277
 108525452.557 8  84565310.42846  20651710.578                    20651718.156
 117083988.219 7  91234283.63045  22280352.531                    22280359.996
 11  7 26 18 48  0.0000000  0 10G08G28G06G07G11G03G19G10G13G23
 118545875.139 7  92373498.35245  22558534.906                    22558542.766
 122845672.903 7  95723970.36244  23376750.023                    23376758.980
 128586387.074 6 100197209.73742  24469179.438                    24469188.770
 110184960.501 8  85858446.94846  20967498.047                    20967505.441
 122450239.418 7  95415881.13444  23301509.547                    23301519.508
 118228301.593 7  92125977.97044  22498099.563                    22498108.355
 110933700.807 7  86441875.21446  21109977.656                    21109983.777
 129865019.793 6 101193541.55843  24712503.023                    24712515.172
 108586506.240 8  84612884.67646  20663329.242                    20663336.813
 117187002.365 7  91314554.27445  22299955.602                    22299963.289
 11  7 26 18 48 30.0000000  0 10G08G28G06G07G11G03G19G10G13G23
 118472811.235 7  92316565.46645  22544630.664                    22544639.242
 122793366.889 7  95683212.48444  23366795.984                    23366805.363
 128684562.927 6 100273710.32843  24487861.406                    24487870.844
 110140711.480 8  85823967.19646  20959077.883                    20959084.961
 122372623.172 7  95355401.05744  23286739.977                    23286749.805
 118321145.566 7  92198323.89644  22515767.766                    22515776.582
 110967003.163 7  86467825.09746  21116314.977                    21116321.074
 129920150.945 6 101236500.69043  24722994.242                    24723006.219
 108648080.699 8  84660864.71646  20675046.031                    20675054.074
 117290281.432 7  91395031.35145  22319609.156                    22319616.785
 11  7 26 18 49  0.0000000  0 10G08G28G06G07G11G03G19G10G13G23
 118399757.409 7  92259640.42345  22530729.469                    22530737.516
 122741264.741 7  95642613.50244  23356881.125                    23356890.395
 128782917.783 6 100350350.41542  24506578.609                    24506587.410
 110096650.205 8  85789633.74246  20950693.320                    20950700.391
 122295132.914 7  95295019.14244  23271994.000                    23272003.305
 118414315.676 7  92270923.95244  22533497.477                    22533505.898
 111000892.472 8  86494232.34446  21122763.883                    21122770.270
 129975465.269 6 101279602.57543  24733519.992                    24733532.809
 108710173.157 8  84709248.40446  20686862.305                    20686869.586
 117393822.449 7  91475712.53145  22339312.133                    22339320.195
 11  7 26 18 49 30.0000000  0 10G08G28G06G07G11G03G19G10G13G23
 118326714.670 7  92202724.03245  22516829.633                    22516838.004
 122689365.943 7  95602172.93644  23347005.094                    23347014.637
 128881449.127 6 100427128.05843  24525327.844                    24525337.027
 110052778.134 8  85755447.71846  20942344.516                    20942351.684
 122217771.270 7  95234737.49244  23257272.242                    23257281.914
 118507808.725 7  92343775.63144  22551287.828                    22551297.551
 111035367.132 8  86521095.71446  21129324.344                    21129330.203
 130030959.484 6 101322844.62243  24744081.664                    24744092.969
 108772781.027 8  84758033.70546  20698776.000                    20698783.430
 117497622.221 7  91556595.34845  22359064.422                    22359072.914
 11  7 26 18 50  0.0000000  0 10G08G28G06G07G11G03G19G10G13G23
 118253684.463 7  92145817.39845  22502932.078                    22502941.027
 122637669.723 7  95561890.26344  23337168.258                    23337176.648
 128980154.739 6 100504041.49743  24544111.305                    24544120.258
 110009097.115 8  85721410.55946  20934032.617                    20934040.184
 122140541.546 6  95174558.60843  23242575.398                    23242585.066
 118601622.177 7  92416876.96744  22569140.039                    22569148.637
 111070426.092 8  86548414.38446  21135995.664                    21136001.813
 130086630.872 6 101366224.80043  24754674.438                    24754688.293
 108835903.095 8  84807219.67946  20710787.328                    20710795.422
 117601678.322 7  91637677.87745  22378865.891                    22378874.082
 11  7 26 18 50 30.0000000  0 10G08G28G06G07G11G03G19G10G13G23
 118180668.147 7  92088921.60845  22489038.070                    22489046.520
 122586176.161 7  95521765.45344  23327369.250                    23327378.598
 129079032.217 6 100581088.84243  24562926.922                    24562936.066
 109965609.103 8  85687523.80346  20925757.102                    20925764.586
 122063446.818 7  95114484.93943  23227904.484                    23227914.734
 118695753.153 7  92490225.74244  22587052.883                    22587061.254
 111106068.051 7  86576187.33346  21142778.109                    21142784.043
 130142476.825 6 101409740.97443  24765301.555                    24765314.457
 108899537.745 8  84856805.08146  20722896.977                    20722904.918
 117705987.911 7  91718957.95044  22398715.734                    22398723.355
 11  7 26 18 51  0.0000000  0 10G08G28G06G07G11G03G19G10G13G23
 118107666.710 7  92032037.39345  22475146.320                    22475154.844
 122534884.722 7  95481798.18644  23317608.180                    23317616.805
 129178078.962 6 100658268.07243  24581775.977                    24581785.023
 109922315.942 8  85653788.87546  20917518.430                    20917526.230
 121986490.233 7  95054518.90443  23213260.563                    23213269.742
 118790198.726 7  92563819.68543  22605025.000                    22605034.082
 111142291.382 7  86604413.30846  21149671.141                    21149677.059
 130198494.443 6 101453390.87743  24775962.031                    24775974.422
 108963682.583 8  84906788.01646  20735103.070                    20735111.184
 117810548.025 7  91800433.22144  22418612.570                    22418620.918
 11  7 26 18 51 30.0000000  0 10G08G28G06G07G11G03G19G10G13G23
 118034681.413 7  91975165.75045  22461257.641                    22461266.031
 122483794.438 7  95441987.66044  23307885.797                    23307894.867
 129277292.342 6 100735577.14843  24600654.938                    24600664.273
 109879218.688 8  85620206.59846  20909317.344                    20909324.734
 121909674.751 7  94994662.81943  23198642.781                    23198651.602
 118884955.845 7  92637656.34244  22623056.469                    22623065.379
 111179094.688 8  86633091.20946  21156674.734                    21156680.633
 130254681.015 6 101497172.48043  24786653.523                    24786667.105
 109028335.619 8  84957166.95346  20747406.375                    20747414.281
 117915355.718 7  91882101.40545  22438557.031                    22438565.539
 11  7 26 18 52  0.0000000  0 10G08G28G06G07G11G03G19G10G13G23
 117961714.049 7  91918308.08445  22447371.789                    22447380.223
 122432905.314 7  95402333.82744  23298202.086                    23298210.996
 129376669.999 6 100813014.26243  24619566.273                    24619574.969
 109836319.434 8  85586778.61446  20901153.953                    20901161.184
 121833003.059 7  94934918.78444  23184052.906                    23184062.313
 118980021.688 7  92711733.56244  22641147.563                    22641156.578
 111216476.294 8  86662219.74146  21163788.102                    21163794.422
 130311033.571 6 101541083.39043  24797376.461                    24797390.145
 109093495.034 8  85007940.47046  20759805.766                    20759814.137
 118020408.164 7  91963960.30744  22458548.195                    22458556.340
 11  7 26 18 52 30.0000000  0 10G08G28G06G07G11G03G19G10G13G23
 117888765.640 7  91861465.19345  22433490.820                    22433498.703
 122382216.656 7  95362836.26244  23288556.469                    23288565.258
 129476209.599 6 100890577.53643  24638507.578                    24638516.957
 109793620.036 8  85553506.35146  20893028.406                    20893035.430
 121756478.672 7  94875289.54944  23169489.734                    23169499.500
 119075393.409 7  92786049.14044  22659296.719                    22659305.055
 111254434.807 8  86691797.80646  21171011.586                    21171017.387
 130367549.175 6 101585121.31843  24808131.703                    24808145.387
 109159158.942 8  85059107.09746  20772301.367                    20772309.336
 118125702.729 7  92046007.86344  22478585.273                    22478593.609
 11  7 26 18 53  0.0000000  0 10G08G28G06G07G11G03G19G10G13G23
 117815837.198 7  91804637.85345  22419612.641                    22419621.527
 122331728.107 7  95323494.63044  23278948.930                    23278957.469
 129575908.456 6 100968264.89443  24657480.508                    24657490.152
 109751121.958 8  85520390.95946  20884941.367                    20884948.777
 121680104.456 7  94815777.31844  23154956.961                    23154966.309
 119171067.886 7  92860600.64644  22677502.391                    22677511.500
 111292968.924 8  86721824.40346  21178344.250                    21178350.262
 130424225.205 6 101629284.23443  24818917.867                    24818930.656
 109225325.022 8  85110665.03446  20784892.281                    20784900.184
 118231236.230 7  92128241.61544  22498667.469                    22498675.707
 11  7 26 18 53 30.0000000  0 10G08G28G06G07G11G03G19G10G13G23
 117742929.953 7  91747827.05045  22405738.969                    22405747.016
 122281438.802 7  95284308.23344  23269379.102                    23269387.836
 129675764.006 6 101046074.31843  24676482.766                    24676491.707
 109708826.826 8  85487433.71746  20876893.078                    20876900.227
 121603883.337 7  94756384.38944  23140451.992                    23140462.004
 119267042.309 7  92935385.88144  22695765.656                    22695774.000
 111332076.774 7  86752298.05146  21185785.836                    21185792.043
 130481058.685 7 101673569.89343  24829732.836                    24829745.742
 109291991.059 8  85162612.55046  20797578.477                    20797586.523
 118337005.898 7  92210659.39244  22518794.711                    22518803.254
 11  7 26 18 54  0.0000000  0 10G08G28G06G07G11G03G19G10G13G23
 117670045.127 7  91691033.69045  22391869.602                    22391877.367
 122231348.187 7  95245276.64444  23259846.906                    23259855.977
 129775773.790 6 101124003.99043  24695512.828                    24695523.301
 109666736.399 8  85454635.97846  20868883.414                    20868890.656
 121527818.389 7  94697113.12643  23125977.711                    23125987.551
 119363313.976 7  93010402.71244  22714085.797                    22714094.352
 111371756.789 8  86783217.54446  21193336.734                    21193343.207
 130538046.714 6 101717976.01643  24840577.156                    24840590.215
 109359154.606 8  85214947.72846  20810359.305                    20810367.453
 118443008.488 7  92293258.66044  22538966.336                    22538975.273
 11  7 26 18 54 30.0000000  0 10G08G28G06G07G11G03G19G10G13G23
 117597183.706 7  91634258.57645  22378004.391                    22378012.426
 122181455.786 7  95206399.51844  23250352.656                    23250362.172
 129875935.308 6 101202051.85943  24714572.688                    24714583.266
 109624852.290 8  85421999.01146  20860913.484                    20860920.328
 121451912.601 7  94637965.87444  23111533.102                    23111542.535
 119459879.611 7  93085648.61944  22732461.570                    22732470.254
 111412007.135 8  86814581.45746  21200996.469                    21201002.723
 130595186.635 6 101762500.45343  24851450.664                    24851463.730
 109426813.882 8  85267669.18246  20823234.297                    20823242.375
 118549241.530 7  92376037.49044  22559181.906                    22559191.211
 11  7 26 18 55  0.0000000  0 10G08G28G06G07G11G03G19G10G13G23
 117524347.806 7  91577503.34445  22364143.891                    22364152.555
 122131761.053 7  95167676.42744  23240896.430                    23240905.988
 129976246.155 6 101280216.10443  24733662.242                    24733671.523
 109583176.322 8  85389524.23446  20852982.398                    20852989.773
 121376168.981 7  94578944.99544  23097119.367                    23097128.844
 119556736.494 7  93161121.45744  22750893.648                    22750901.098
 111452826.481 7  86846388.73846  21208764.047                    21208769.934
 130652475.734 6 101807141.13543  24862352.461                    24862365.320
 109494966.862 8  85320775.35346  20836203.828                    20836211.566
 118655702.104 7  92458993.62445  22579441.055                    22579449.793
 11  7 26 18 55 30.0000000  0 10G08G28G06G07G11G03G19G10G13G23
 117451538.599 7  91520768.92445  22350289.039                    22350297.090
 122082263.712 7  95129107.13344  23231477.344                    23231486.605
 130076703.938 6 101358494.82543  24752777.516                    24752788.176
 109541710.611 8  85357213.30146  20845091.633                    20845098.738
 121300590.742 7  94520053.01044  23082736.844                    23082746.902
 119653881.931 7  93236819.15044  22769379.859                    22769387.859
 111494213.272 7  86878638.18046  21216639.500                    21216645.418
 130709910.964 6 101851895.64143  24873281.617                    24873295.098
 109563611.619 8  85374264.72846  20849266.375                    20849274.379
 118762387.352 7  92542124.84244  22599743.055                    22599751.395
 11  7 26 18 56  0.0000000  0 10G08G28G06G07G11G03G19G10G13G23
 117378757.107 7  91464056.09145  22336438.961                    22336447.250
 122032962.926 7  95090691.00744  23222095.492                    23222104.613
 130177306.190 5 101436886.10843  24771922.570                    24771932.301
 109500456.453 8  85325067.20646  20837241.234                    20837248.785
 121225180.940 7  94461292.26944  23068386.867                    23068396.738
 119751312.528 7  93312739.04244  22787920.258                    22787928.203
 111536165.436 8  86911328.17346  21224622.852                    21224628.691
 130767489.510 6 101896761.85943  24884239.852                    24884252.309
 109632745.572 8  85428135.30246  20862421.992                    20862430.328
 118869294.264 7  92625428.78044  22620086.914                    22620095.184
 11  7 26 18 56 30.0000000  0 10G08G28G06G07G11G03G19G10G13G23
 117306004.760 7  91407365.96445  22322594.961                    22322603.059
 121983858.109 7  95052427.57844  23212750.695                    23212759.652
 130278050.338 6 101515387.97642  24791093.922                    24791103.070
 109459415.926 7  85293087.58646  20829431.531                    20829438.734
 121149942.553 7  94402665.05444  23054070.086                    23054079.277
 119849026.180 7  93388879.51244  22806514.547                    22806522.828
 111578681.639 8  86944457.67646  21232713.398                    21232719.504
 130825208.438 6 101941737.41842  24895224.078                    24895235.832
 109702366.563 8  85482385.37246  20875670.703                    20875678.582
 118976419.927 7  92708903.15644  22640472.047                    22640480.570
 11  7 26 18 57  0.0000000  0 10G08G28G06G07G11G03G19G10G13G23
 117233283.177 7  91350699.80345  22308756.664                    22308764.344
 121934948.948 7  95014316.60444  23203443.188                    23203452.270
 130378934.053 6 101593998.63043  24810291.094                    24810299.813
 109418590.490 8  85261275.56146  20821663.000                    20821670.066
 121074878.444 7  94344173.65244  23039785.461                    23039795.023
 119947019.269 7  93465237.73144  22825161.672                    22825170.633
 111621760.060 8  86978025.28146  21240910.906                    21240917.129
 130883065.099 6 101986820.33842  24906232.523                    24906245.508
 109772472.459 8  85537013.30646  20889011.250                    20889019.734
 119083761.532 7  92792545.80444  22660898.852                    22660907.473
 11  7 26 18 57 30.0000000  0 10G08G28G06G07G11G03G19G10G13G23
 117160593.746 7  91294058.71945  22294924.000                    22294932.176
 121886235.071 7  94976357.78644  23194173.719                    23194182.098
 130479955.108 6 101672716.27543  24829515.164                    24829524.301
 109377982.262 8  85229632.79046  20813935.133                    20813942.512
 120999992.110 6  94285820.79044  23025534.266                    23025544.301
 120045289.727 6  93541812.08144  22843861.578                    22843870.969
 111665399.280 7  87012029.85946  21249215.336                    21249221.051
 130941056.871 5 102032008.57642  24917267.234                    24917282.215
 109843061.404 8  85592017.63346  20902444.211                    20902452.273
 119191316.173 7  92876354.47244  22681365.859                    22681374.051
 11  7 26 18 58  0.0000000  0  9G08G28G06G07G11G03G19G13G23
 117087938.089 7  91237443.93845  22281097.930                    22281106.496
 121837715.626 7  94938550.48744  23184940.344                    23184948.938
 130581111.047 6 101751539.02143  24848764.148                    24848773.758
 109337593.217 8  85198160.81946  20806249.539                    20806257.133
 120925286.606 6  94227608.79744  23011318.188                    23011327.953
 120143834.457 7  93618600.13044  22862614.539                    22862623.008
 111709597.347 8  87046469.91946  21257625.875                    21257631.695
 109914131.138 8  85647396.59346  20915967.883                    20915976.371
 119299081.361 7  92960327.18144  22701872.977                    22701881.309
 11  7 26 18 58 30.0000000  0  9G08G28G06G07G11G03G19G13G23
 117015317.135 7  91180856.19945  22267278.945                    22267287.090
 121789390.126 7  94900894.30744  23175744.992                    23175753.438
 130682399.231 6 101830464.84643  24868038.023                    24868048.285
 109297424.767 8  85166860.73946  20798605.539                    20798613.336
 120850764.760 7  94169539.92944  22997138.102                    22997147.137
 120242649.987 7  93695599.21844  22881418.297                    22881427.305
 111754352.303 8  87081343.91646  21266142.422                    21266148.262
 109985679.173 8  85703148.25846  20929582.906                    20929591.230
 119407053.837 7  93044461.42944  22722419.484                    22722428.137
 11  7 26 18 59  0.0000000  0  9G08G28G06G07G11G03G19G13G23
 116942732.492 7  91124296.76645  22253466.492                    22253474.891
 121741257.938 7  94863388.75944  23166585.063                    23166594.238
 130783817.279 6 101909491.90443  24887338.234                    24887347.336
 109257478.632 8  85135733.88546  20791003.953                    20791011.406
 120776429.600 7  94111616.51644  22982991.695                    22983001.422
 120341733.825 7  93772807.34244  22900273.789                    22900281.965
 111799662.706 8  87116650.71446  21274765.008                    21274770.492
 110057703.364 8  85759270.95546  20943289.055                    20943297.090
 119515230.779 7  93128755.00444  22743005.078                    22743013.270
 11  7 26 18 59 30.0000000  0  8G08G28G07G11G03G19G13G23
 116870185.647 7  91067766.76745  22239661.047                    22239669.039
 121693318.284 7  94826033.24944  23157463.047                    23157471.023
 109217756.836 8  85104781.84046  20783445.695                    20783452.605
 120702284.253 7  94053841.03044  22968882.117                    22968891.922
 120441082.878 7  93850222.15744  22919178.445                    22919187.402
 111845526.379 7  87152388.64946  21283492.305                    21283498.070
 110130200.994 8  85815762.56146  20957085.109                    20957092.840
 119623609.311 7  93213205.66644  22763628.844                    22763637.012
 11  7 26 19  0  0.0000000  0  8G08G28G07G11G03G19G13G23
 116797677.813 7  91011267.17645  22225862.656                    22225871.238
 121645570.447 7  94788827.21444  23148376.594                    23148385.176
 109178260.689 8  85074005.62146  20775929.750                    20775936.715
 120628332.100 6  93996216.06144  22954809.938                    22954819.598
 120540694.467 7  93927841.52944  22938134.445                    22938142.961
 111891941.637 8  87188556.38046  21292325.227                    21292330.883
 110203170.440 8  85872621.83146  20970970.641                    20970978.703
 119732186.181 7  93297810.84944  22784290.250                    22784299.223
 11  7 26 19  0 30.0000000  0  8G08G28G07G11G03G19G13G23
 116725209.730 7  90954798.55145  22212072.961                    22212081.254
 121598013.845 7  94751770.17644  23139326.273                    23139335.590
 109138991.771 8  85043406.48146  20768457.078                    20768464.195
 120554575.401 6  93938743.38944  22940774.250                    22940782.781
 120640565.456 7  94005663.05544  22957139.188                    22957147.383
 111938905.963 8  87225151.95946  21301261.727                    21301267.629
 110276608.199 8  85929846.01446  20984945.430                    20984954.027
 119840958.161 7  93382568.05044  22804989.430                    22804998.297
 11  7 26 19  1  0.0000000  0  8G08G28G07G11G03G19G13G23
 116652783.711 7  90898362.70345  22198291.203                    22198299.293
 121550647.884 7  94714861.70644  23130313.969                    23130321.641
 109099952.346 8  85012986.14746  20761027.820                    20761034.977
 120481017.576 6  93881425.68544  22926776.445                    22926786.043
 120740693.008 7  94083684.48544  22976192.836                    22976201.566
 111986418.190 8  87262174.47046  21310303.094                    21310309.094
 110350512.692 8  85987433.88146  20999008.984                    20999017.219
 119949923.017 7  93467475.55244  22825724.688                    22825734.301
 11  7 26 19  1 30.0000000  0  8G08G28G07G11G03G19G13G23
 116580401.000 7  90841960.62445  22184516.320                    22184525.285
 121503471.882 7  94678101.25244  23121336.172                    23121344.484
 109061143.780 8  84982745.71746  20753643.164                    20753650.395
 120407661.274 6  93824265.02244  22912817.070                    22912826.453
 120841074.113 7  94161903.46444  22995294.477                    22995303.820
 112034475.616 8  87299621.81646  21319448.281                    21319454.211
 110424881.127 8  86045383.25346  21013160.820                    21013169.152
 120059077.259 7  93552530.65144  22846496.195                    22846505.453
 11  7 26 19  2  0.0000000  0  8G08G28G07G11G03G19G13G23
 116508063.212 7  90785593.52245  22170751.117                    22170759.555
 121456485.303 7  94641488.42544  23112394.547                    23112403.293
 109022568.076 8  84952686.73246  20746301.773                    20746309.313
 120334509.661 7  93767263.86743  22898896.656                    22898905.883
 120941706.032 7  94240317.89144  23014444.258                    23014453.777
 112083076.920 7  87337492.94946  21328696.805                    21328703.492
 110499711.536 8  86103692.60746  21027400.305                    21027409.078
 120168418.318 7  93637731.28744  22867303.578                    22867312.262
 11  7 26 19  2 30.0000000  0  8G08G28G07G11G03G19G13G23
 116435771.815 7  90729262.58545  22156994.414                    22157003.367
 121409687.599 7  94605022.75044  23103489.289                    23103498.039
 108984227.267 8  84922810.78846  20739006.188                    20739013.766
 120261566.352 7  93710425.00944  22885016.211                    22885025.867
 121042585.909 7  94318925.52244  23033641.469                    23033650.082
 112132220.349 7  87375786.52746  21338048.602                    21338054.539
 110575001.317 8  86162359.91246  21041728.031                    21041736.523
 120277943.220 7  93723075.20144  22888145.734                    22888154.793
 11  7 26 19  3  0.0000000  0  8G08G28G07G11G03G19G13G23
 116363528.235 7  90672968.89245  22143247.461                    22143255.941
 121363077.879 7  94568703.55844  23094619.289                    23094628.258
 108946122.982 8  84893119.14346  20731754.953                    20731762.488
 120188834.150 7  93653750.64144  22871175.680                    22871184.816
 121143710.788 7  94397724.04644  23052884.563                    23052894.094
 112181903.719 7  87414500.82446  21347502.969                    21347508.930
 110650747.986 8  86221383.24145  21056141.805                    21056149.996
 120387649.111 7  93808560.13444  22909021.813                    22909030.949
 11  7 26 19  3 30.0000000  0  8G08G28G07G11G03G19G13G23
 116291333.836 7  90616713.51845  22129509.531                    22129517.430
 121316655.528 7  94532530.36144  23085785.523                    23085794.512
 108908256.832 8  84863613.04846  20724549.617                    20724556.805
 120116315.781 7  93597242.87344  22857375.953                    22857384.512
 121245077.930 7  94476711.38544  23072174.531                    23072183.168
 112232124.923 7  87453634.22446  21357059.602                    21357065.398
 110726949.132 8  86280760.70646  21070642.391                    21070651.023
 120497533.016 7  93894183.77344  22929932.664                    22929941.137
 11  7 26 19  4  0.0000000  0  8G08G28G07G11G03G19G13G23
 116219190.211 7  90560497.74245  22115780.664                    22115788.992
 121270420.119 7  94496502.83044  23076987.617                    23076996.000
 108870630.698 8  84834293.98746  20717389.320                    20717396.465
 120044014.563 7  93540904.32244  22843617.680                    22843626.113
 121346684.517 7  94555885.32644  23091509.406                    23091517.301
 112282881.968 8  87493185.15646  21366718.266                    21366724.605
 110803602.703 8  86340490.70346  21085229.133                    21085237.410
 120607591.852 7  93979943.75544  22950876.008                    22950885.160
 11  7 26 19  4 30.0000000  0  8G08G28G07G11G03G19G13G23
 116147099.167 7  90504322.93245  22102061.984                    22102070.695
 121224370.993 7  94460620.46944  23068224.719                    23068233.480
 108833246.810 8  84805163.67546  20710275.344                    20710282.746
 119971933.819 7  93484737.58244  22829900.836                    22829909.656
 121448527.590 7  94635243.53144  23110889.688                    23110898.113
 112334173.132 7  87533152.27846  21376478.578                    21376484.754
 110880706.380 8  86400571.43946  21099901.563                    21099910.520
 120717823.431 7  94065838.30544  22971851.656                    22971861.359
 11  7 26 19  5  0.0000000  0  9G08G28G24G07G11G03G19G13G23
 116075061.678 8  90448189.82645  22088354.258                    22088361.980
 121178506.888 7  94424882.25244  23059496.844                    23059505.754
 128084004.77916  99805792.40253  24373580.641                    24373595.805
 108796106.224 8  84776222.95546  20703207.938                    20703215.359
 119900075.902 7  93428744.50444  22816227.258                    22816235.820
 121550604.032 7  94714783.58743  23130314.047                    23130323.031
 112385995.722 8  87573533.51146  21386340.648                    21386346.324
 110958256.865 8  86461000.32846  21114658.984                    21114667.820
 120828223.912 6  94151864.49644  22992861.031                    22992870.379
 11  7 26 19  5 30.0000000  0  9G08G28G24G07G11G03G19G13G23
 116003079.557 8  90392099.87345  22074656.344                    22074664.551
 121132827.755 7  94389288.19644  23050804.281                    23050813.313
 128008727.490 6  99747135.02443  24359255.203                    24359270.715
 108759211.042 8  84747473.46646  20696186.922                    20696194.430
 119828443.918 7  93372927.47744  22802595.313                    22802604.676
 121652910.853 7  94794503.14543  23149782.805                    23149791.109
 112438347.753 8  87614327.30146  21396302.492                    21396308.480
 111036251.968 8  86521775.67546  21129501.273                    21129509.566
 120938790.675 6  94238020.23044  23013900.984                    23013910.727
 11  7 26 19  6  0.0000000  0  9G08G28G24G07G11G03G19G13G23
 115931154.423 8  90336054.32845  22060968.906                    22060977.141
 121087332.952 7  94353837.75344  23042146.656                    23042155.578
 127933391.783 6  99688432.08443  24344919.484                    24344934.316
 108722563.393 8  84718916.86546  20689212.984                    20689220.563
 119757041.581 7  93317289.38044  22789008.344                    22789017.328
 121755446.006 6  94874400.62043  23169293.492                    23169303.379
 112491228.052 8  87655532.72346  21406365.211                    21406371.055
 111114689.620 8  86582895.86246  21144427.336                    21144436.031
 121049521.100 6  94324303.49844  23034972.195                    23034981.941
 11  7 26 19  6 30.0000000  0  9G08G28G24G07G11G03G19G13G23
 115859288.281 7  90280054.75545  22047293.648                    22047301.547
 121042021.767 7  94318530.38544  23033524.625                    23033532.676
 127858000.113 6  99629685.54942  24330573.773                    24330587.551
 108686165.238 8  84690554.66246  20682286.727                    20682294.262
 119685871.791 7  93261832.48144  22775464.555                    22775473.969
 121858206.285 7  94954473.54243  23188849.000                    23188857.871
 112544634.069 8  87697147.80746  21416528.063                    21416534.387
 111193567.165 8  86644358.83245  21159437.430                    21159445.973
 121160412.292 7  94410712.02944  23056074.500                    23056084.160
 11  7 26 19  7  0.0000000  0  9G08G28G24G07G11G03G19G13G23
 115787482.208 7  90224101.98245  22033629.016                    22033637.449
 120996893.389 7  94283365.49044  23024936.445                    23024945.137
 127782554.894 6  99570897.31243  24316216.453                    24316230.813
 108650017.870 8  84662387.88746  20675408.477                    20675415.480
 119614937.402 7  93206559.03544  22761966.305                    22761975.125
 121961188.946 7  95034719.67143  23208446.336                    23208455.207
 112598563.665 8  87739170.84646  21426790.516                    21426796.535
 111272881.767 8  86706162.36746  21174530.391                    21174538.941
 121271460.934 7  94497243.26544  23077206.914                    23077216.477
 11  7 26 19  7 30.0000000  0  9G08G28G24G07G11G03G19G13G23
 115715738.102 7  90168197.50345  22019976.883                    22019985.230
 120951947.092 7  94248342.48644  23016384.109                    23016391.668
 127707059.082 7  99512069.61243  24301849.945                    24301863.367
 108614123.464 8  84634418.22746  20668577.781                    20668585.180
 119544241.415 7  93151471.33544  22748513.258                    22748522.402
 122064391.166 6  95115136.94643  23228084.625                    23228093.832
 112653014.556 8  87781600.10746  21437152.516                    21437158.277
 111352631.296 8  86768304.80245  21189706.227                    21189715.184
 121382664.369 7  94583895.11144  23098368.055                    23098377.934
 11  7 26 19  8  0.0000000  0  9G08G28G24G07G11G03G19G13G23
 115644057.420 7  90112342.45445  22006336.109                    22006344.328
 120907182.408 7  94213460.96744  23007865.023                    23007873.910
 127631515.729 6  99453204.90543  24287474.047                    24287488.223
 108578483.783 8  84606647.05146  20661795.773                    20661803.270
 119473787.081 7  93096571.95844  22735105.977                    22735114.934
 122167809.889 7  95195722.90343  23247764.852                    23247773.977
 112707984.907 8  87824434.15246  21447612.828                    21447618.789
 111432812.941 8  86830783.94845  21204964.383                    21204972.453
 121494019.895 7  94670665.46344  23119558.703                    23119567.777
 11  7 26 19  8 30.0000000  0  9G08G28G24G07G11G03G19G13G23
 115572441.838 7  90056538.11845  21992708.305                    21992716.352
 120862598.695 7  94178720.48444  22999381.672                    22999389.875
 127555927.551 6  99394305.19543  24273089.727                    24273103.754
 108543100.532 8  84579075.68946  20655062.156                    20655069.754
 119403577.214 7  93041863.10044  22721745.273                    22721754.367
 122271442.245 7  95276475.33243  23267484.953                    23267494.070
 112763472.403 8  87867671.15746  21458172.211                    21458177.879
 111513424.217 8  86893597.87845  21220304.336                    21220312.824
 121605524.295 7  94757551.83944  23140776.938                    23140786.734
 11  7 26 19  9  0.0000000  0  9G08G28G24G07G11G03G19G13G23
 115500892.767 7  90000785.61645  21979093.016                    21979100.863
 120818194.844 7  94144120.14644  22990931.352                    22990939.863
 127480297.301 6  99335372.69643  24258697.742                    24258711.852
 108507975.558 8  84551705.58546  20648378.703                    20648385.727
 119333614.981 7  92987347.18144  22708431.586                    22708441.258
 122375285.682 7  95357392.22943  23287246.180                    23287255.023
 112819474.751 8  87911309.35446  21468828.602                    21468834.578
 111594462.258 8  86956744.35845  21235725.320                    21235734.035
 121717174.697 7  94844551.96244  23162023.820                    23162033.363
 11  7 26 19  9 30.0000000  0  9G08G28G24G07G11G03G19G13G23
 115429412.207 7  89945086.50445  21965490.508                    21965498.758
 120773970.430 7  94109659.63044  22982515.500                    22982523.875
 127404627.602 6  99276409.51543  24244297.625                    24244312.547
 108473110.618 8  84524538.11346  20641743.805                    20641751.191
 119263903.310 7  92933026.53144  22695165.789                    22695175.277
 122479337.196 7  95438471.26844  23307046.219                    23307055.688
 112875990.073 8  87955347.25246  21479583.211                    21479589.262
 111675924.959 8  87020221.73045  21251227.180                    21251235.852
 121828968.303 7  94931663.68244  23183296.875                    23183306.820
 11  7 26 19 10  0.0000000  0  9G08G28G24G07G11G03G19G13G23
 115358001.932 8  89889442.15245  21951901.914                    21951909.695
 120729924.667 7  94075338.31544  22974133.836                    22974142.375
 127328921.570 6  99217417.99743  24229890.953                    24229905.281
 108438507.902 7  84497574.96246  20635158.953                    20635166.055
 119194445.630 7  92878903.75744  22681948.922                    22681957.852
 122583594.017 7  95519710.28443  23326885.773                    23326895.152
 112933016.169 8  87999783.17046  21490434.789                    21490440.762
 111757809.580 7  87084027.88445  21266809.508                    21266817.684
 121940902.325 7  95018884.80044  23204597.281                    23204607.891
 11  7 26 19 10 30.0000000  0  9G08G28G24G07G11G03G19G13G23
 115286663.280 7  89833853.60745  21938326.492                    21938334.277
 120686056.808 7  94041155.62444  22965786.172                    22965794.699
 127253181.868 6  99158400.26243  24215479.055                    24215492.766
 108404169.181 7  84470817.52546  20628624.719                    20628632.063
 119125244.603 7  92824980.99744  22668780.102                    22668789.496
 122688053.567 7  95601107.28243  23346764.039                    23346773.082
 112990550.347 8  88044614.98546  21501383.320                    21501389.742
 111840113.493 8  87148160.75046  21282471.273                    21282479.816
 122052973.628 7  95106212.87744  23225924.766                    23225934.473
 11  7 26 19 11  0.0000000  0  9G08G28G24G07G11G03G19G13G23
 115215398.239 8  89778322.42045  21924765.258                    21924773.262
 120642366.377 7  94007111.20845  22957472.125                    22957480.363
 127177411.708 6  99099358.71943  24201059.836                    24201073.871
 108370096.576 8  84444267.45146  20622140.938                    20622147.895
 119056303.368 7  92771260.66344  22655661.398                    22655670.684
 122792712.956 7  95682660.00343  23366680.195                    23366688.844
 113048591.235 8  88089841.63346  21512428.336                    21512433.969
 111922834.359 8  87212618.51045  21298212.586                    21298220.984
 122165179.621 7  95193645.92944  23247277.125                    23247286.688
 11  7 26 19 11 30.0000000  0  9G08G28G24G07G11G03G19G13G23
 115144208.412 8  89722849.83645  21911217.969                    21911225.633
 120598852.720 7  93973204.52144  22949191.656                    22949200.383
 127101613.529 6  99040295.36843  24186635.977                    24186650.293
 108336291.687 8  84417925.98946  20615707.867                    20615715.090
 118987625.148 7  92717745.28244  22642591.859                    22642601.258
 122897569.142 7  95764366.07243  23386633.789                    23386642.223
 113107135.982 7  88135460.90546  21523568.961                    21523574.824
 112005969.471 8  87277399.06845  21314032.906                    21314041.688
 122277517.310 7  95281181.57244  23268653.891                    23268663.723
 11  7 26 19 12  0.0000000  0  9G08G28G24G07G11G03G19G13G23
 115073094.938 8  89667436.75345  21897685.664                    21897694.297
 120555514.617 7  93939434.63544  22940944.875                    22940952.992
 127025789.666 6  98981212.05843  24172206.352                    24172220.813
 108302755.525 7  84391793.93046  20609326.320                    20609333.848
 118919212.130 7  92664436.53544  22629573.352                    22629582.820
 123002619.302 7  95846223.28843  23406624.945                    23406632.738
 113166181.906 8  88181470.70646  21534804.922                    21534811.273
 112089515.317 8  87342499.66545  21329930.680                    21329939.355
 122389983.256 7  95368817.16744  23290055.664                    23290065.488
 11  7 26 19 12 30.0000000  0  9G08G28G24G07G11G03G19G13G23
 115002059.867 8  89612084.77645  21884168.523                    21884176.594
 120512351.648 7  93905801.19745  22932731.258                    22932739.742
 126949943.728 6  98922111.48243  24157773.609                    24157787.094
 108269490.566 7  84365873.19946  20602996.164                    20603003.488
 118851067.871 7  92611337.22844  22616605.797                    22616614.910
 123107860.705 7  95928229.52943  23426650.789                    23426659.699
 113225727.067 7  88227869.52346  21546135.961                    21546141.957
 112173469.932 8  87407918.80145  21345907.320                    21345916.121
 122502574.762 7  95456550.62344  23311481.711                    23311490.813
 11  7 26 19 13  0.0000000  0  9G08G28G24G07G11G03G19G13G23
 114931104.949 8  89556795.25745  21870666.055                    21870673.922
 120469362.820 7  93872303.46444  22924550.484                    22924559.031
 126874078.444 6  98862995.88543  24143336.102                    24143351.191
 108236498.727 8  84340165.27746  20596718.188                    20596725.125
 118783195.593 7  92558449.81844  22603690.313                    22603698.633
 123213290.879 6  96010382.85243  23446713.500                    23446722.688
 113285769.445 8  88274655.78246  21557561.766                    21557567.840
 112257830.726 8  87473654.42845  21361960.523                    21361969.141
 122615289.279 7  95544379.89044  23332930.500                    23332940.012
 11  7 26 19 13 30.0000000  0  9G08G28G24G07G11G03G19G13G23
 114860231.694 8  89501569.36345  21857179.625                    21857187.527
 120426547.599 7  93838941.00845  22916402.883                    22916411.363
 126798196.591 7  98803867.35543  24128897.617                    24128910.555
 108203781.619 8  84314671.43146  20590492.422                    20590499.652
 118715598.079 7  92505776.53544  22590826.141                    22590834.965
 123318906.903 6  96092681.01743  23466811.414                    23466820.832
 113346306.456 7  88321827.47846  21569081.125                    21569087.629
 112342594.720 8  87539704.24345  21378090.672                    21378098.668
 122728123.604 7  95632302.58243  23354402.211                    23354412.000
 11  7 26 19 14  0.0000000  0  9G08G28G24G07G11G03G19G13G23
 114789442.312 8  89446408.82145  21843708.375                    21843716.215
 120383905.065 7  93805713.10744  22908288.453                    22908296.520
 126722300.992 7  98744728.15143  24114454.336                    24114467.664
 108171341.228 7  84289393.21346  20584318.734                    20584326.152
 118648278.147 7  92453319.52544  22578016.008                    22578024.008
 123424705.709 6  96175121.58343  23486943.914                    23486953.480
 113407335.827 7  88369382.82846  21580694.844                    21580701.238
 112427758.978 7  87606065.94845  21394296.727                    21394305.324
 122841074.778 7  95720316.27244  23375896.188                    23375905.668
 11  7 26 19 14 30.0000000  0  9G08G28G24G07G11G03G19G13G23
 114718738.241 8  89391314.74845  21830253.930                    21830262.000
 120341434.467 7  93772619.20944  22900206.922                    22900214.395
 126646394.386 6  98685580.32443  24100010.492                    24100022.898
 108139179.326 8  84264331.99046  20578199.086                    20578205.898
 118581238.654 7  92401081.05144  22565259.109                    22565267.238
 123530684.876 6  96257702.69543  23507112.438                    23507121.480
 113468854.838 8  88417319.72446  21592401.773                    21592407.375
 112513320.736 7  87672737.39945  21410578.469                    21410586.910
 122954139.958 7  95808418.83044  23397411.703                    23397421.965
 11  7 26 19 15  0.0000000  0  9G08G28G24G07G11G03G19G13G23
 114648120.978 8  89336288.33445  21816815.906                    21816823.730
 120299135.018 7  93739658.67044  22892157.086                    22892164.840
 126570479.613 7  98626426.18743  24085562.906                    24085577.047
 108107297.247 8  84239488.80946  20572131.703                    20572138.555
 118514482.910 7  92349063.67844  22552555.492                    22552564.133
 123636841.364 7  96340421.97844  23527313.234                    23527322.367
 113530861.249 8  88465636.40746  21604201.180                    21604207.086
 112599277.617 8  87739716.73145  21426935.789                    21426944.508
 123067316.113 7  95896607.83744  23418948.875                    23418958.910
 11  7 26 19 15 30.0000000  0  9G08G28G24G07G11G03G19G13G23
 114577592.655 7  89281331.21745  21803394.656                    21803402.723
 120257006.356 7  93706831.19744  22884139.984                    22884148.262
 126494559.945 6  98567268.26443  24071116.039                    24071129.742
 108075697.772 8  84214865.83746  20566118.555                    20566125.543
 118448014.076 7  92297269.86844  22539906.883                    22539915.023
 123743172.767 6  96423277.56143  23547546.930                    23547556.125
 113593353.133 8  88514331.37146  21616093.094                    21616098.848
 112685626.945 8  87807001.87745  21443367.430                    21443376.078
 123180600.777 6  95984881.38744  23440506.125                    23440516.930
 11  7 26 19 16  0.0000000  0  9G08G28G24G07G11G03G19G13G23
 114507155.155 8  89226444.87445  21789990.813                    21789999.141
 120215047.550 7  93674136.09144  22876155.664                    22876163.520
 126418638.303 7  98508108.76443  24056668.656                    24056682.438
 108044382.345 8  84190464.20046  20560159.375                    20560166.672
 118381834.975 7  92245701.82844  22527313.406                    22527321.539
 123849675.848 6  96506266.91044  23567813.688                    23567823.164
 113656328.077 8  88563402.76145  21628076.367                    21628082.352
 112772365.966 7  87874590.65845  21459873.484                    21459882.367
 123293991.114 7  96073237.27344  23462083.797                    23462094.402
 11  7 26 19 16 30.0000000  0  9G08G28G24G07G11G03G19G13G23
 114436810.267 8  89171630.69745  21776604.766                    21776613.070
 120173257.566 7  93641572.50244  22868202.781                    22868210.938
 126342717.327 6  98448949.76543  24042221.352                    24042234.711
 108013352.669 8  84166285.23146  20554254.633                    20554261.723
 118315948.191 7  92194361.57444  22514775.023                    22514783.832
 123956348.043 6  96589388.04843  23588113.195                    23588122.477
 113719783.402 8  88612848.45746  21640151.438                    21640157.688
 112859491.635 7  87942480.73745  21476453.102                    21476461.832
 123407483.995 7  96161673.07944  23483680.750                    23483691.438
 11  7 26 19 17  0.0000000  0  9G08G28G24G07G11G03G19G13G23
 114366559.811 8  89116890.10845  21763236.461                    21763244.703
 120131636.026 7  93609140.18244  22860282.289                    22860291.059
 126266800.175 7  98389793.76543  24027774.500                    24027788.145
 107982610.955 8  84142330.64346  20548404.727                    20548411.891
 118250357.309 7  92143251.87744  22502294.273                    22502301.918
 124063186.744 6  96672638.94343  23608443.727                    23608453.605
 113783716.680 8  88662666.59346  21652317.992                    21652323.941
 112947001.654 7  88010670.30045  21493105.516                    21493114.457
 123521076.589 7  96250186.56544  23505297.203                    23505308.195
 11  7 26 19 17 30.0000000  0  9G08G28G24G07G11G03G19G13G23
 114296405.551 8  89062224.46245  21749886.656                    21749895.008
 120090182.135 7  93576838.49544  22852394.734                    22852402.734
 126190889.650 6  98330642.91143  24013328.797                    24013342.035
 107952158.931 8  84118601.79146  20542609.828                    20542616.992
 118185064.988 7  92092374.82744  22489869.039                    22489877.141
 124170189.117 6  96756017.35744  23628805.531                    23628814.801
 113848125.529 8  88712855.30546  21664574.258                    21664580.570
 113034893.062 8  88079157.05045  21509831.086                    21509839.984
 123634765.838 7  96338775.36344  23526931.594                    23526942.602
 11  7 26 19 18  0.0000000  0  9G08G28G24G07G11G03G19G13G23
 114226349.257 8  89007635.15546  21736555.406                    21736563.180
 120048894.975 7  93544666.73644  22844537.602                    22844545.754
 126114988.600 6  98271499.43843  23998885.305                    23998897.961
 107921998.316 8  84095100.01446  20536870.695                    20536877.898
 118120074.434 7  92041732.93144  22477501.523                    22477510.238
 124277352.612 7  96839521.32043  23649198.164                    23649207.590
 113913007.878 8  88763412.97045  21676921.234                    21676927.184
 113123163.111 7  88147938.84645  21526628.086                    21526637.008
 123748549.079 7  96427437.38543  23548584.281                    23548594.984
 11  7 26 19 18 30.0000000  0  9G08G28G24G07G11G03G19G13G23
 114156392.832 8  88953123.68745  21723243.281                    21723251.008
 120007773.734 7  93512624.26144  22836712.805                    22836720.609
 126039100.092 6  98212365.69743  23984443.648                    23984456.844
 107892131.271 8  84071826.99846  20531187.070                    20531194.137
 118055388.400 7  91991328.31744  22465192.156                    22465201.000
 124384674.754 6  96923148.91243  23669620.320                    23669630.109
 113978361.315 8  88814337.71545  21689357.867                    21689363.707
 113211809.147 7  88217013.61145  21543497.086                    21543505.348
 123862423.610 6  96516170.51743  23570253.484                    23570264.098
 11  7 26 19 19  0.0000000  0  9G08G28G24G07G11G03G19G13G23
 114086537.688 8  88898691.13045  21709950.125                    21709958.207
 119966817.932 7  93480710.69944  22828918.867                    22828926.828
 125963227.042 7  98153244.04643  23970006.180                    23970019.215
 107862559.268 8  84048783.88646  20525559.977                    20525567.207
 117991009.795 7  91941163.26545  22452941.336                    22452950.063
 124492152.306 6  97006897.60643  23690072.867                    23690082.215
 114044182.886 8  88865627.23746  21701882.719                    21701889.227
 113300828.104 7  88286378.97145  21560436.969                    21560445.836
 123976386.135 7  96604972.31643  23591940.406                    23591950.648
 11  7 26 19 19 30.0000000  0  9G08G28G24G07G11G03G19G13G23
 114016785.832 8  88844339.04145  21696677.047                    21696684.801
 119926026.267 7  93448925.04944  22821156.641                    22821164.371
 125887372.012 6  98094136.42043  23955571.188                    23955584.148
 107833283.796 8  84025971.84146  20519988.953                    20519996.152
 117926941.432 7  91891239.95345  22440749.859                    22440758.258
 124599782.597 6  97090765.29243  23710554.648                    23710563.875
 114110469.825 8  88917279.38646  21714497.133                    21714503.277
 113390216.737 7  88356032.39445  21577447.133                    21577455.590
 124090433.737 7  96693840.31843  23613642.898                    23613653.840
 11  7 26 19 20  0.0000000  0  9G08G28G24G07G11G03G19G13G23
 113947139.600 8  88790069.25945  21683423.539                    21683431.480
 119885398.239 7  93417266.87844  22813425.109                    22813432.898
 125811538.351 6  98035045.47143  23941140.016                    23941153.715
 107804307.241 8  84003392.71046  20514474.977                    20514482.141
 117863186.649 7  91841560.98445  22428617.219                    22428625.879
 124707563.071 6  97174750.06143  23731065.023                    23731073.648
 114177220.305 8  88969292.73946  21727199.148                    21727205.113
 113479972.681 7  88425972.02645  21594526.984                    21594535.824
 124204563.762 6  96782772.62343  23635362.516                    23635371.594
 11  7 26 19 20 30.0000000  0  9G08G28G24G07G11G03G19G13G23
 113877600.762 8  88735883.19146  21670190.313                    21670198.906
 119844933.384 7  93385735.86944  22805724.477                    22805732.230
 125735729.440 7  97975973.77343  23926714.328                    23926727.414
 107775632.256 8  83981048.57346  20509018.391                    20509025.586
 117799748.317 7  91792128.59045  22416545.250                    22416554.664
 124815491.406 6  97258850.03443  23751603.414                    23751612.320
 114244431.954 8  89021665.44345  21739989.375                    21739995.355
 113570093.560 7  88496196.01345  21611676.266                    21611685.148
 124318773.602 7  96871767.09643  23657095.273                    23657105.473
 11  7 26 19 21  0.0000000  0  9G08G28G24G07G11G03G19G13G23
 113808170.777 8  88681781.93545  21656978.617                    21656986.574
 119804630.084 7  93354330.75644  22798055.281                    22798062.816
 125659947.426 6  97916923.01443  23912294.063                    23912305.922
 107747258.775 8  83958939.36546  20503619.117                    20503626.012
 117736628.840 7  91742944.65645  22404534.109                    22404542.715
 124923564.090 6  97343062.46343  23772168.672                    23772178.188
 114312101.415 8  89074394.89345  21752866.461                    21752872.129
 113660575.510 7  88566701.35645  21628894.758                    21628903.414
 124433059.794 6  96960821.01043  23678843.172                    23678853.871
 11  7 26 19 21 30.0000000  0  9G08G28G24G07G11G03G19G13G23
 113738851.879 8  88627767.22445  21643787.398                    21643795.152
 119764487.843 7  93323051.14545  22790416.172                    22790424.805
 125584195.330 7  97857895.57843  23897877.523                    23897890.910
 107719189.448 8  83937067.17346  20498277.297                    20498284.648
 117673831.496 7  91694011.73545  22392583.789                    22392592.766
 125031778.943 6  97427385.65443  23792761.484                    23792770.156
 114380226.481 8  89127479.34745  21765829.961                    21765836.148
 113751416.004 7  88637486.09145  21646180.867                    21646189.711
 124547419.611 7  97049932.39343  23700604.773                    23700616.148
 11  7 26 19 22  0.0000000  0  9G08G28G24G07G11G03G19G13G23
 113669646.197 8  88573840.72645  21630617.836                    21630625.855
 119724506.504 7  93291896.87645  22782808.172                    22782816.441
 125508476.574 6  97798894.09643  23883467.945                    23883481.574
 107691426.879 8  83915434.01846  20492994.273                    20493001.402
 117611359.356 7  91645332.21545  22380696.422                    22380704.746
 125140133.349 6  97511817.63343  23813380.227                    23813389.758
 114448804.993 8  89180917.14345  21778879.883                    21778885.680
 113842612.719 7  88708548.40345  21663535.422                    21663544.059
 124661850.691 7  97139099.21843  23722381.148                    23722391.551
 11  7 26 19 22 30.0000000  0  9G08G28G24G07G11G03G19G13G23
 113600555.342 8  88520003.72446  21617470.359                    21617478.898
 119684684.686 7  93260866.94145  22775230.281                    22775237.957
 125432793.948 6  97739920.76743  23869066.578                    23869079.492
 107663972.212 8  83894040.78046  20487769.781                    20487777.070
 117549215.360 7  91596908.39345  22368869.875                    22368878.965
 125248624.555 6  97596356.17543  23834025.961                    23834034.652
 114517834.457 8  89234706.33045  21792015.984                    21792021.551
 113934162.268 8  88779885.64545  21680956.773                    21680965.531
 124776350.097 6  97228319.35843  23744170.352                    23744180.930
 11  7 26 19 23  0.0000000  0  9G08G28G24G07G11G03G19G13G23
 113531581.005 8  88466257.51645  21604345.422                    21604353.031
 119645021.509 7  93229960.61245  22767682.500                    22767690.813
 125357150.323 6  97680977.82643  23854671.898                    23854684.961
 107636827.087 8  83872888.74546  20482604.375                    20482611.500
 117487402.049 7  91548742.25145  22357108.188                    22357116.348
 125357249.845 6  97680999.22543  23854696.656                    23854705.355
 114587311.932 8  89288844.61345  21805237.102                    21805242.793
 114026062.228 8  88851495.92945  21698444.734                    21698453.598
 124890914.826 6  97317590.36643  23765970.266                    23765981.789
 11  7 26 19 23 30.0000000  0  9G08G28G24G07G11G03G19G13G23
 113462725.571 8  88412603.93745  21591242.445                    21591249.996
 119605516.375 7  93199177.46645  22760164.813                    22760172.977
 125281548.766 6  97622067.70743  23840285.148                    23840298.668
 107609993.668 8  83851979.58846  20477498.133                    20477505.410
 117425922.499 7  91500836.17345  22345408.539                    22345416.949
 125466006.677 6  97765744.75943  23875391.953                    23875401.559
 114657234.930 8  89343330.06645  21818543.258                    21818548.746
 114118309.364 7  88923376.74945  21715998.828                    21716007.547
 125005541.789 6  97406909.82843  23787783.492                    23787795.129
 11  7 26 19 24  0.0000000  0  9G08G28G24G07G11G03G19G13G23
 113393990.785 8  88359044.36945  21578162.641                    21578170.277
 119566168.870 7  93168517.12845  22752677.188                    22752685.836
 125205992.715 6  97563193.01243  23825907.766                    23825920.133
 107583474.212 8  83831315.08746  20472451.734                    20472459.082
 117364779.372 7  91453192.25745  22333773.016                    22333781.820
 125574892.576 6  97850590.86043  23896112.680                    23896121.348
 114727601.152 8  89398160.87645  21831933.383                    21831939.203
 114210901.055 7  88995526.04845  21733618.461                    21733627.527
 125120228.190 6  97496275.68944  23809607.953                    23809618.949
 11  7 26 19 24 30.0000000  0  9G08G28G24G07G11G03G19G13G23
 113325378.337 8  88305580.15246  21565106.078                    21565114.273
 119526977.623 7  93137978.53545  22745219.891                    22745227.426
 125130484.618 7  97504355.72143  23811538.586                    23811551.566
 107557269.557 8  83810895.87946  20467465.094                    20467472.473
 117303975.716 7  91405812.84845  22322203.109                    22322211.211
 125683904.376 6  97935535.06443  23916856.688                    23916865.891
 114798407.733 8  89453334.82045  21845407.047                    21845413.031
 114303834.033 7  89067941.27245  21751303.219                    21751311.844
 125234971.522 6  97585685.78143  23831442.758                    23831454.035
 11  7 26 19 25  0.0000000  0  9G08G28G24G07G11G03G19G13G23
 113256890.904 8  88252213.34945  21552073.438                    21552081.609
 119487941.814 7  93107561.07945  22737791.164                    22737799.281
 125055027.659 6  97445558.23043  23797179.594                    23797191.902
 107531382.433 8  83790724.09346  20462539.219                    20462546.387
 117243514.663 7  91358700.40745  22310697.016                    22310705.297
 125793040.156 6  98020575.89943  23937623.148                    23937633.422
 114869652.019 8  89508849.84045  21858964.664                    21858970.051
 114397105.386 7  89140620.19745  21769052.047                    21769061.031
 125349768.761 6  97675137.96943  23853288.969                    23853299.707
 11  7 26 19 25 30.0000000  0  9G08G28G24G07G11G03G19G13G23
 113188529.908 8  88198945.05945  21539064.664                    21539072.336
 119449060.624 7  93077264.08445  22730392.836                    22730400.879
 124979624.461 6  97386802.67343  23782830.023                    23782842.758
 107505813.679 8  83770800.39446  20457673.133                    20457680.469
 117183398.668 7  91311856.83645  22299257.641                    22299265.926
 125902296.729 6  98105710.81343  23958414.992                    23958424.793
 114941331.396 8  89564703.90245  21872604.703                    21872610.266
 114490712.135 7  89213560.44045  21786864.945                    21786874.145
 125464616.772 7  97764629.68343  23875144.141                    23875154.645
 11  7 26 19 26  0.0000000  0  9G08G28G24G07G11G03G19G13G23
 113120297.308 8  88145776.80945  21526080.164                    21526088.262
 119410333.263 7  93047086.96645  22723023.094                    22723030.879
 124904278.414 6  97328091.61743  23768492.820                    23768504.926
 107480565.360 8  83751126.38546  20452868.672                    20452876.074
 117123630.395 7  91265284.22145  22287883.898                    22287892.410
 126011671.579 6  98190937.93343  23979229.039                    23979238.063
 115013443.290 8  89620894.98345  21886327.406                    21886333.336
 114584651.449 8  89286759.82745  21804740.945                    21804750.254
 125579512.922 6  97854158.89543  23897008.109                    23897019.344
 11  7 26 19 26 30.0000000  0  9G08G28G24G07G11G03G19G13G23
 113052195.189 8  88092710.25346  21513120.836                    21513128.883
 119371758.958 7  93017029.10945  22715682.781                    22715690.566
 124828992.495 7  97269427.41943  23754166.570                    23754178.539
 107455639.591 8  83731703.71646  20448125.398                    20448132.770
 117064212.906 7  91218984.97545  22276577.344                    22276585.422
 126121162.081 6  98276255.09143  24000063.648                    24000073.840
 115085984.855 8  89677420.87245  21900131.039                    21900137.371
 114678920.343 7  89360216.03845  21822679.875                    21822689.168
 125694454.433 6  97943723.56643  23918880.906                    23918891.516
 11  7 26 19 27  0.0000000  0  9G08G28G24G07G11G03G19G13G23
 112984226.085 8  88039747.34346  21500186.961                    21500194.730
 119333337.449 7  92987090.31245  22708371.086                    22708379.242
 124753770.032 7  97210812.67343  23739852.133                    23739864.281
 107431038.972 8  83712534.41046  20443444.375                    20443450.926
 117005149.645 7  91172961.73545  22265337.156                    22265345.887
 126230765.994 6  98361660.67243  24020921.383                    24020930.715
 115158954.193 8  89734280.08945  21914016.719                    21914022.781
 114773516.582 8  89433927.30445  21840681.172                    21840690.453
 125809438.898 7  98033321.58543  23940761.773                    23940772.727
 11  7 26 19 27 30.0000000  0  9G08G28G24G07G11G03G19G13G23
 112916391.356 8  87986889.13746  21487277.828                    21487285.734
 119295067.588 7  92957269.68745  22701088.227                    22701096.359
 124678613.813 6  97152249.56843  23725549.664                    23725562.281
 107406764.416 8  83693619.17946  20438825.000                    20438832.094
 116946443.144 7  91127216.49845  22254166.055                    22254174.461
 126340480.391 6  98447152.33743  24041798.688                    24041809.090
 115232348.225 8  89791470.24145  21927983.273                    21927989.465
 114868436.674 8  89507890.93845  21858743.609                    21858752.734
 125924463.107 6  98122950.57443  23962649.695                    23962661.438
 11  7 26 19 28  0.0000000  0  9G08G28G24G07G11G03G19G13G23
 112848693.116 8  87934137.27246  21474395.922                    21474403.621
 119256948.323 8  92927566.38745  22693834.922                    22693842.254
 124603526.558 7  97093740.17943  23711260.695                    23711273.980
 107382817.740 8  83674959.44146  20434267.875                    20434274.828
 116888095.900 7  91081751.19245  22243062.891                    22243070.891
 126450302.969 6  98532728.32943  24062697.859                    24062707.754
 115306164.264 8  89848989.23045  21942030.227                    21942036.004
 114963677.590 7  89582104.55745  21876867.508                    21876876.445
 126039524.190 6  98212608.40543  23984545.563                    23984557.184
 11  7 26 19 28 30.0000000  0  9G08G28G24G07G11G03G19G13G23
 112781133.347 8  87881493.31246  21461539.477                    21461547.402
 119218978.763 7  92897979.76845  22686609.531                    22686617.000
 124528511.450 6  97035286.98943  23696986.305                    23696998.500
 107359200.955 8  83656556.75446  20429773.719                    20429781.117
 116830110.592 7  91036567.90144  22232028.195                    22232036.777
 126560231.191 6  98618386.60043  24083614.945                    24083626.758
 115380399.425 8  89906834.80745  21956156.469                    21956162.094
 115059236.331 7  89656565.82845  21895051.836                    21895060.293
 126154619.616 7  98302292.88443  24006447.664                    24006459.105
 11  7 26 19 29  0.0000000  0  9G08G28G24G07G11G03G19G13G23
 112713714.244 8  87828958.98146  21448710.125                    21448718.164
 119181158.193 7  92868509.22745  22679412.125                    22679420.023
 124453571.802 7  96976892.60143  23682725.523                    23682738.012
 107335915.446 8  83638412.20546  20425342.539                    20425349.785
 116772490.106 7  90991668.89545  22221063.570                    22221072.133
 126670262.067 6  98704124.87843  24104554.273                    24104564.879
 115455051.548 8  89965005.28945  21970362.219                    21970368.449
 115155109.986 7  89731272.49745  21913296.258                    21913305.488
 126269746.261 6  98392001.72243  24028355.289                    24028367.195
 11  7 26 19 29 30.0000000  0  9G08G28G24G07G11G03G19G13G23
 112646437.645 8  87776535.67146  21435907.844                    21435915.348
 119143485.943 7  92839154.27145  22672242.883                    22672251.129
 124378710.678 6  96918559.38843  23668479.320                    23668491.648
 107312963.294 8  83620527.41546  20420974.742                    20420982.270
 116715237.904 7  90947056.86645  22210168.617                    22210177.164
 126780393.190 6  98789941.26143  24125511.188                    24125522.254
 115530117.794 8  90023498.46145  21984647.172                    21984653.063
 115251295.812 7  89806222.40445  21931599.539                    21931608.668
 126384901.549 6  98481732.92843  24050269.547                    24050281.055
 11  7 26 19 30  0.0000000  0  9G08G28G24G07G11G03G19G13G23
 112579306.093 8  87724225.38946  21423133.406                    21423141.207
 119105961.422 7  92809914.41845  22665102.391                    22665110.727
 124303931.154 7  96860289.76143  23654249.813                    23654261.316
 107290346.884 8  83602904.23546  20416671.516                    20416678.586
 116658356.189 7  90902733.53045  22199344.500                    22199352.891
 126890622.086 6  98875833.87343  24146487.844                    24146497.953
 115605595.665 8  90082312.36845  21999009.531                    21999015.754
 115347790.826 7  89881413.24245  21949962.352                    21949971.367
 126500083.091 6  98571484.48943  24072187.469                    24072199.785
 11  7 26 19 30 30.0000000  0  9G08G28G24G07G11G03G19G13G23
 112512321.189 8  87672029.38646  21410386.563                    21410394.469
 119068583.206 7  92780788.56745  22657989.578                    22657997.563
 124229235.849 6  96802085.76743  23640035.789                    23640047.090
 107268067.093 8  83585543.35546  20412431.133                    20412438.945
 116601847.434 7  90858700.80745  22188591.219                    22188599.438
 127000946.317 6  98961800.80843  24167481.773                    24167491.520
 115681481.886 8  90141444.47845  22013451.094                    22013456.832
 115444591.739 7  89956842.43745  21968382.563                    21968392.246
 126615287.304 6  98661253.70043  24094110.797                    24094122.539
 11  7 26 19 31  0.0000000  0  8G08G28G24G07G11G19G13G23
 112445485.094 8  87619949.33646  21397667.805                    21397675.844
 119031350.740 7  92751776.30145  22650904.641                    22650912.164
 124154628.130 6  96743950.05043  23625838.352                    23625849.730
 107246125.971 8  83568446.37946  20408256.328                    20408263.691
 116545714.684 7  90814961.08345  22177909.414                    22177918.066
 115757774.177 8  90200893.00445  22027968.984                    22027974.641
 115541695.669 7  90032507.75145  21986861.391                    21986869.980
 126730511.523 6  98751038.65443  24116037.875                    24116048.641
 11  7 26 19 31 30.0000000  0  8G08G28G24G07G11G19G13G23
 112378799.959 8  87567986.91046  21384977.953                    21384985.930
 118994263.162 7  92722876.93545  22643847.352                    22643854.535
 124080111.084 7  96685884.96643  23611658.031                    23611669.230
 107224525.541 8  83551614.88746  20404145.594                    20404153.320
 116489960.936 7  90771516.67945  22167299.680                    22167308.379
 115834469.620 8  90260655.69045  22042563.336                    22042569.313
 115639099.705 7  90108406.92345  22005396.289                    22005405.629
 126845753.404 6  98840837.28243  24137966.945                    24137979.012
 11  7 26 19 32  0.0000000  0  8G08G28G24G07G11G19G13G23
 112312267.946 8  87516143.79746  21372316.984                    21372325.031
 118957319.920 7  92694090.04945  22636816.914                    22636824.371
 124005687.767 6  96627892.94043  23597495.703                    23597507.289
 107203267.686 8  83535050.31746  20400100.828                    20400108.105
 116434588.708 7  90728369.57545  22156762.734                    22156770.945
 115911565.823 8  90320730.63945  22057234.219                    22057240.449
 115736801.020 7  90184537.71745  22023988.484                    22023997.770
 126961010.045 6  98930647.36443  24159900.586                    24159911.633
 11  7 26 19 32 30.0000000  0  8G08G28G24G07G11G19G13G23
 112245891.589 8  87464421.99246  21359686.281                    21359694.227
 118920519.649 7  92665414.54045  22629814.000                    22629821.844
 123931361.343 7  96569976.45643  23583351.227                    23583363.156
 107182354.186 8  83518754.09346  20396120.984                    20396128.164
 116379601.229 7  90685522.25645  22146298.742                    22146307.203
 115989060.061 8  90381115.74045  22071980.758                    22071987.039
 115834796.502 7  90260897.73845  22042636.914                    22042645.848
 127076278.780 6  99020466.92443  24181835.453                    24181846.438
 11  7 26 19 33  0.0000000  0  8G08G28G24G07G11G19G13G23
 112179672.259 8  87412822.52946  21347084.867                    21347092.953
 118883861.949 7  92636850.12945  22622838.094                    22622846.094
 123857134.800 7  96512137.76443  23569225.875                    23569237.906
 107161786.460 8  83502727.30846  20392206.633                    20392214.336
 116325000.550 7  90642976.35645  22135908.445                    22135916.852
 116066949.328 8  90441808.64745  22086803.078                    22086808.941
 115933082.922 7  90337484.46845  22061339.859                    22061349.207
 127191556.555 6  99110293.53343  24203771.875                    24203783.828
 11  7 26 19 33 30.0000000  0  8G08G28G24G07G11G19G13G23
 112113612.568 8  87361347.45346  21334514.477                    21334522.223
 118847345.881 7  92608396.08545  22615889.336                    22615897.102
 123783011.069 6  96454379.14843  23555120.578                    23555132.438
 107141566.371 8  83486971.40246  20388359.406                    20388366.172
 116270789.458 7  90600734.01845  22125592.766                    22125600.984
 116145231.064 8  90502807.39845  22101699.625                    22101705.375
 116031657.672 7  90414295.85545  22080098.273                    22080107.445
 127306840.790 6  99200125.12843  24225710.000                    24225721.887
 11  7 26 19 34  0.0000000  0  8G08G28G24G07G11G19G13G23
 112047714.413 8  87309998.26146  21321974.461                    21321982.176
 118810970.837 7  92580051.93445  22608967.281                    22608975.098
 123708993.552 7  96396703.32043  23541035.961                    23541048.035
 107121695.977 8  83471487.97646  20384578.094                    20384585.152
 116216971.085 7  90558797.70745  22115351.172                    22115359.574
 116223902.724 7  90564109.97645  22116669.609                    22116675.625
 116130517.751 7  90491329.59545  22098910.344                    22098919.770
 127422128.998 6  99289959.82643  24247649.211                    24247659.844
 11  7 26 19 34 30.0000000  0  8G08G28G24G07G11G19G13G23
 111981980.037 8  87258776.68946  21309465.141                    21309472.949
 118774735.624 7  92551816.74245  22602072.430                    22602079.852
 123635085.217 7  96339112.58643  23526971.055                    23526983.902
 107102176.728 8  83456278.18146  20380863.539                    20380870.883
 116163547.971 7  90517169.38745  22105185.422                    22105193.527
 116302961.059 8  90625713.87145  22131714.414                    22131720.504
 116229659.759 7  90568582.99245  22117776.547                    22117786.113
 127537418.293 6  99379795.39343  24269587.758                    24269599.762
 11  7 26 19 35  0.0000000  0  8G08G28G24G07G11G19G13G23
 111916411.337 8  87207684.21346  21296988.281                    21296995.871
 118738639.141 7  92523689.64245  22595203.359                    22595210.781
 123561288.771 7  96281609.05043  23512928.297                    23512940.195
 107083010.151 8  83441343.18547  20377216.250                    20377223.406
 116110522.193 7  90475850.68145  22095094.852                    22095102.988
 116382403.635 7  90687617.15945  22146831.695                    22146838.293
 116329080.527 7  90646053.61545  22136696.133                    22136705.355
 127652705.514 7  99469629.33743  24291526.359                    24291537.805
 11  7 26 19 35 30.0000000  0  9G08G28G24G07G17G11G19G13G23
 111851009.908 8  87156722.08046  21284542.555                    21284550.488
 118702680.288 7  92495669.78645  22588360.547                    22588368.281
 123487606.563 7  96224194.50243  23498906.945                    23498918.715
 107064197.528 8  83426684.00147  20373636.602                    20373643.500
 129363754.38016 100802999.75653  24617106.719                    24617122.996
 116057896.123 7  90434843.43145  22085080.320                    22085088.301
 116462226.824 8  90749817.02145  22162021.852                    22162028.305
 116428776.459 7  90723738.65945  22155667.625                    22155676.449
 127767987.454 7  99559459.14643  24313464.180                    24313475.695
 11  7 26 19 36  0.0000000  0  9G08G28G24G07G17G11G19G13G23
 111785778.297 8  87105892.27046  21272129.484                    21272137.070
 118666858.334 7  92467756.61245  22581543.195                    22581551.426
 123414042.254 7  96166871.84643  23484908.016                    23484920.004
 107045740.738 8  83412302.08046  20370124.406                    20370131.016
 129258748.207 6 100721177.14643  24597124.172                    24597140.383
 116005672.686 7  90394149.91645  22075142.602                    22075150.688
 116542428.342 7  90812311.69345  22177283.602                    22177289.828
 116528745.019 7  90801636.12445  22174691.344                    22174700.738
 127883261.320 6  99649282.68743  24335400.508                    24335411.988
 11  7 26 19 36 30.0000000  0  9G08G28G24G07G17G11G19G13G23
 111720719.153 8  87055196.84946  21259749.391                    21259756.738
 118631173.063 7  92439949.94845  22574752.969                    22574760.578
 123340599.561 7  96109643.95043  23470931.867                    23470944.367
 107027642.210 8  83398199.34146  20366679.953                    20366687.043
 129153843.558 6 100639433.58144  24577161.344                    24577176.887
 115953854.999 7  90353772.57345  22065281.875                    22065289.426
 116623005.941 7  90875099.41245  22192616.977                    22192623.211
 116628983.584 7  90879743.98545  22193765.852                    22193775.199
 127998525.400 6  99739098.60943  24357334.203                    24357346.020
 11  7 26 19 37  0.0000000  0  9G08G28G24G07G17G11G19G13G23
 111655834.881 8  87004637.68946  21247402.313                    21247409.867
 118595623.806 7  92412249.27145  22567987.969                    22567995.695
 123267281.606 7  96052513.25243  23456980.164                    23456991.590
 107009903.918 8  83384377.29946  20363304.625                    20363311.754
 129049042.314 6 100557770.64143  24557218.180                    24557233.859
 115902445.946 8  90313713.62345  22055498.945                    22055506.535
 116703956.883 7  90938178.06145  22208021.563                    22208027.449
 116729489.226 7  90958059.97745  22212891.180                    22212901.035
 128113777.139 6  99828904.84643  24379266.008                    24379278.141
 11  7 26 19 37 30.0000000  0  9G08G28G24G07G17G11G19G13G23
 111591127.545 8  86954216.40046  21235088.719                    21235096.223
 118560209.635 7  92384653.85145  22561248.500                    22561256.723
 123194091.446 7  95995482.12443  23443051.953                    23443063.199
 106992527.453 8  83370837.21746  20359997.867                    20360005.055
 128944346.343 6 100476189.69443  24537294.625                    24537310.844
 115851447.994 8  90273975.01545  22045794.234                    22045801.719
 116785278.514 7  91001545.56045  22223496.086                    22223502.891
 116830258.910 7  91036581.68944  22232067.156                    22232077.230
 128229013.935 6  99918699.46043  24401195.648                    24401207.176
 11  7 26 19 38  0.0000000  0  9G08G28G24G07G17G11G19G13G23
 111526599.244 8  86903934.64646  21222809.375                    21222816.703
 118524929.830 7  92357163.13345  22554534.828                    22554542.961
 123121032.180 6  95938552.98343  23429149.484                    23429160.500
 106975514.776 8  83357580.58446  20356760.625                    20356767.531
 128839758.261 6 100394692.81543  24517392.398                    24517407.773
 115800863.920 8  90234558.91445  22036168.641                    22036176.316
 116866967.952 7  91065199.66145  22239040.617                    22239047.813
 116931289.637 7  91115306.80144  22251292.750                    22251302.359
 128344233.022 6 100008480.30943  24423120.375                    24423133.211
 11  7 26 19 38 30.0000000  0  9G08G28G24G07G17G11G19G13G23
 111462252.571 8  86853794.39946  21210564.352                    21210572.598
 118489783.466 7  92329776.38345  22547847.375                    22547854.996
 123048107.271 6  95881728.56643  23415271.586                    23415283.516
 106958867.553 8  83344608.72447  20353592.641                    20353600.039
 128735280.035 6 100313281.57442  24497509.859                    24497525.738
 115750696.297 7  90195467.31345  22026621.555                    22026629.273
 116949022.664 7  91129138.37545  22254655.766                    22254662.191
 117032578.633 7  91194233.17644  22270567.688                    22270577.227
 128459431.514 6 100098245.09543  24445042.328                    24445055.324
 11  7 26 19 39  0.0000000  0  8G08G28G24G07G17G11G19G13
 111398090.208 8  86803797.76746  21198354.836                    21198362.742
 118454770.282 7  92302493.43745  22541183.742                    22541191.898
 122975320.053 6  95825011.42243  23401421.008                    23401432.355
 106942587.779 8  83331923.19046  20350494.813                    20350501.914
 128630914.091 5 100231957.83243  24477648.750                    24477665.184
 115700948.186 8  90156702.61745  22017154.977                    22017162.363
 117031440.280 7  91193359.87545  22270339.313                    22270345.945
 117134122.877 7  91273358.44044  22289890.836                    22289900.363
 11  7 26 19 39 30.0000000  0  8G08G28G24G07G17G11G19G13
 111334113.229 8  86753945.59246  21186180.422                    21186187.969
 118419888.501 7  92275312.87645  22534546.383                    22534554.109
 122902672.624 6  95768403.21543  23387595.648                    23387607.660
 106926676.106 8  83319524.48546  20347467.000                    20347474.152
 128526661.749 6 100150722.62643  24457810.672                    24457827.035
 115651621.304 7  90118266.14645  22007768.430                    22007776.035
 117114217.048 7  91257861.23145  22286091.906                    22286097.742
 117235918.673 7  91352679.70744  22309262.047                    22309272.070
 11  7 26 19 40  0.0000000  0  8G08G28G24G07G17G11G19G13
 111270324.137 8  86704239.81246  21174041.781                    21174049.453
 118385137.848 7  92248234.47745  22527933.344                    22527940.902
 122830168.540 7  95711906.67543  23373799.477                    23373810.980
 106911135.210 8  83307414.69647  20344509.547                    20344516.801
 128422525.430 6 100069577.79842  24437993.594                    24438009.457
 115602718.519 7  90080160.13045  21998462.539                    21998469.785
 117197350.665 7  91322640.66845  22301911.234                    22301917.457
 117337963.445 7  91432195.00444  22328680.656                    22328689.977
 11  7 26 19 40 30.0000000  0  8G08G28G24G07G17G11G19G13
 111206724.998 8  86654682.06946  21161939.070                    21161946.910
 118350516.970 7  92221257.23145  22521345.742                    22521353.289
 122757810.321 7  95655523.82444  23360029.438                    23360041.727
 106895965.739 8  83295594.33646  20341622.883                    20341630.500
 128318506.723 6  99988524.54343  24418199.727                    24418215.145
 115554241.710 7  90042386.04045  21989237.039                    21989245.344
 117280837.795 7  91387695.56245  22317797.891                    22317804.266
 117440253.553 7  91511901.44444  22348145.930                    22348155.281
 11  7 26 19 41  0.0000000  0  8G08G28G24G07G17G11G19G13
 111143318.254 8  86605274.23446  21149873.523                    21149881.230
 118316025.033 7  92194380.45245  22514781.727                    22514789.344
 122685601.870 6  95599257.63243  23346288.477                    23346300.254
 106881170.174 8  83284065.32346  20338807.305                    20338814.902
 128214608.146 6  99907564.92143  24398428.477                    24398443.656
 115506194.210 7  90004946.48245  21980094.375                    21980102.313
 117364675.891 7  91453023.93645  22333751.977                    22333758.449
 117542786.343 7  91591796.99044  22367657.781                    22367667.387
 11  7 26 19 41 30.0000000  0  8G08G28G24G07G17G11G19G13
 111080105.609 8  86556017.64646  21137844.617                    21137852.395
 118281660.898 7  92167603.25445  22508242.477                    22508250.324
 122613545.572 7  95543110.00343  23332577.023                    23332587.898
 106866749.436 8  83272828.38046  20336063.164                    20336070.574
 128110831.099 7  99826700.03944  24378680.320                    24378695.480
 115458577.440 8  89967842.54945  21971032.984                    21971040.586
 117448861.964 7  91518623.45645  22349771.844                    22349778.551
 117645558.100 7  91671878.74244  22387214.672                    22387223.922
 11  7 26 19 42  0.0000000  0  8G08G28G24G07G17G11G19G13
 111017089.393 8  86506914.12546  21125852.766                    21125860.285
 118247423.865 7  92140925.08745  22501727.516                    22501735.016
 122541644.533 6  95487083.36343  23318894.328                    23318905.980
 106852704.999 8  83261884.66646  20333390.656                    20333397.926
 128007177.676 6  99745931.48044  24358954.867                    24358970.309
 115411394.278 8  89931076.49645  21962054.258                    21962062.242
 117533393.070 7  91584491.82645  22365858.023                    22365863.992
 117748566.045 7  91752144.54545  22406816.461                    22406826.230
 11  7 26 19 42 30.0000000  0  8G08G28G24G07G17G11G19G13
 110954272.302 8  86457965.75846  21113898.977                    21113906.758
 118213313.383 7  92114345.52745  22495236.938                    22495244.137
 122469902.068 6  95431180.28143  23305241.305                    23305253.711
 106839039.075 8  83251235.89446  20330790.203                    20330797.258
 127903650.220 6  99665261.06944  24339254.008                    24339269.227
 115364647.536 7  89894650.50945  21953158.711                    21953166.355
 117618266.676 7  91650627.08645  22382009.117                    22382015.254
 117851807.438 7  91832592.24744  22426462.750                    22426472.773
 11  7 26 19 43  0.0000000  0  8G08G28G24G07G17G11G19G13
 110891657.074 8  86409174.69146  21101983.570                    21101991.477
 118179329.014 7  92087864.24145  22488769.305                    22488776.984
 122398321.611 7  95375403.44644  23291620.617                    23291632.340
 106825754.231 8  83240884.06746  20328262.109                    20328269.184
 127800251.199 7  99584690.74244  24319577.727                    24319592.695
 115318340.278 7  89858566.96445  21944346.539                    21944354.430
 117703480.550 7  91717027.49145  22398224.633                    22398230.813
 117955279.384 7  91913219.59944  22446153.250                    22446162.926
 11  7 26 19 43 30.0000000  0  8G08G28G24G07G17G11G19G13
 110829245.418 8  86360542.25146  21090107.375                    21090114.809
 118145469.635 7  92061480.33845  22482326.047                    22482333.160
 122326906.087 6  95319755.16043  23278030.578                    23278042.598
 106812851.287 8  83230829.83546  20325806.797                    20325813.867
 127696982.356 7  99504221.83344  24299926.734                    24299941.117
 115272474.288 7  89822827.27545  21935618.805                    21935626.027
 117789031.268 7  91783690.38245  22414504.406                    22414510.547
 118058978.527 7  91994023.98544  22465886.555                    22465896.086
 11  7 26 19 44  0.0000000  0  9G08G28G24G07G17G11G26G19G13
 110767039.766 8  86312070.33546  21078269.500                    21078277.332
 118111734.467 7  92035193.23145  22475906.609                    22475914.102
 122255658.834 6  95264237.97143  23264472.445                    23264484.176
 106800331.766 8  83221074.36347  20323424.609                    20323431.703
 127593845.970 6  99423856.14644  24280300.445                    24280315.371
 115227051.742 7  89787433.13645  21926974.922                    21926982.559
 127262311.16815  99165506.73952  24217220.195                    24217231.102
 117874916.130 7  91850613.62445  22430847.906                    22430854.090
 118162901.896 7  92075003.08644  22485662.414                    22485671.914
 11  7 26 19 44 30.0000000  0  9G08G28G24G07G17G11G26G19G13
 110705042.732 8  86263760.98246  21066471.953                    21066479.691
 118078122.720 7  92009002.28745  22469510.242                    22469517.934
 122184583.087 7  95208854.39044  23250947.766                    23250959.051
 106788197.785 8  83211619.31547  20321115.305                    20321122.602
 127490843.866 6  99343595.11644  24260698.859                    24260713.949
 115182075.728 7  89752386.92645  21918415.867                    21918424.055
 127173360.197 6  99096194.44043  24200294.211                    24200304.000
 117961132.597 7  91917795.26845  22447253.828                    22447260.188
 118267046.491 7  92156154.56844  22505480.797                    22505490.801
 11  7 26 19 45  0.0000000  0  9G08G28G24G07G17G11G26G19G13
 110643255.812 8  86215615.35146  21054714.477                    21054722.469
 118044633.138 7  91982906.54345  22463137.695                    22463144.656
 122113681.546 7  95153606.55843  23237455.641                    23237465.844
 106776450.364 8  83202465.48146  20318880.008                    20318887.176
 127387977.771 6  99263440.04444  24241123.906                    24241139.086
 115137548.157 7  89717690.15745  21909943.148                    21909950.566
 127084788.126 6  99027177.28943  24183439.500                    24183448.594
 118047677.488 7  91985232.83645  22463723.039                    22463729.383
 118371408.664 7  92237475.59744  22525340.242                    22525349.828
 11  7 26 19 45 30.0000000  0  9G08G28G24G07G17G11G26G19G13
 110581681.325 8  86167635.24946  21042996.969                    21043004.930
 118011264.758 7  91956905.25045  22456787.727                    22456795.289
 122042957.181 7  95098496.80543  23223997.219                    23224007.195
 106765090.693 8  83193613.80246  20316718.406                    20316725.266
 127285249.435 6  99183392.34243  24221575.172                    24221590.063
 115093471.128 7  89683344.46245  21901555.352                    21901563.320
 126996597.805 6  98958457.61943  24166657.148                    24166666.645
 118134547.561 7  92052923.78345  22480254.109                    22480260.039
 118475985.548 7  92318963.94544  22545240.305                    22545250.340
 11  7 26 19 46  0.0000000  0  9G08G28G24G07G17G11G26G19G13
 110520321.599 8  86119822.49446  21031320.703                    21031328.371
 117978016.711 7  91930997.72045  22450460.711                    22450468.664
 121972412.893 6  95043527.35043  23210572.570                    23210583.473
 106754120.545 8  83185065.63847  20314630.586                    20314637.969
 127182661.150 6  99103453.74643  24202052.594                    24202067.297
 115049846.947 7  89649351.62945  21893254.063                    21893261.402
 126908791.999 6  98890037.57743  24149948.391                    24149957.383
 118221740.236 7  92120866.11945  22496846.328                    22496852.273
 118580773.976 7  92400617.11844  22565181.430                    22565190.887
 11  7 26 19 46 30.0000000  0  9G08G28G24G07G17G11G26G19G13
 110459179.468 8  86072179.29846  21019685.961                    21019693.535
 117944888.768 7  91905183.77645  22444156.352                    22444163.945
 121902052.232 6  94988701.03343  23197182.633                    23197193.930
 106743542.298 8  83176822.85947  20312617.508                    20312624.641
 127080215.275 6  99023626.07743  24182557.031                    24182572.105
 115006678.499 7  89615713.91845  21885039.328                    21885046.930
 126821373.875 6  98821919.60643  24133313.609                    24133323.027
 118309253.116 7  92189057.95045  22513499.328                    22513505.586
 118685771.343 7  92482433.09244  22585161.266                    22585171.277
 11  7 26 19 47  0.0000000  0  9G08G28G24G07G17G11G26G19G13
 110398257.081 8  86024707.33446  21008092.328                    21008100.109
 117911879.681 7  91879462.45745  22437874.789                    22437882.879
 121831878.065 7  94934020.00743  23183829.242                    23183840.379
 106733356.954 8  83168886.23247  20310679.672                    20310687.094
 126977913.604 6  98943910.78643  24163089.953                    24163104.609
 114963967.876 7  89582432.95245  21876911.422                    21876919.293
 126734346.000 6  98754105.74943  24116751.898                    24116761.551
 118397083.021 7  92257496.81545  22530212.820                    22530218.902
 118790974.160 7  92564409.16544  22605180.977                    22605190.945
 11  7 26 19 47 30.0000000  0  9G08G28G24G07G17G11G26G19G13
 110337556.539 8  85977408.21946  20996541.969                    20996549.602
 117878988.666 7  91853833.14545  22431616.156                    22431623.488
 121761893.552 7  94879486.74644  23170512.109                    23170522.238
 106723566.271 8  83161257.13346  20308816.266                    20308823.461
 126875758.019 6  98864309.28143  24143650.648                    24143664.887
 114921717.480 7  89549510.58945  21868871.695                    21868879.254
 126647711.372 7  98686598.32844  24100266.023                    24100276.070
 118485227.198 7  92326180.56645  22546986.070                    22546992.496
 118896379.120 7  92646542.74544  22625239.031                    22625249.219
 11  7 26 19 48  0.0000000  0  9G08G28G24G07G17G11G26G19G13
 110277080.490 8  85930284.04446  20985033.461                    20985041.750
 117846214.900 7  91828295.19345  22425379.727                    22425386.648
 121692101.876 7  94825103.74544  23157230.844                    23157241.480
 106714171.689 7  83153936.69546  20307028.602                    20307035.836
 126773750.540 6  98784823.18244  24124239.273                    24124253.078
 114879929.484 7  89516948.56645  21860919.922                    21860926.945
 126561472.594 7  98619399.34843  24083855.430                    24083864.922
 118573682.842 7  92395107.01045  22563818.703                    22563825.063
 119001983.497 7  92728831.73044  22645335.406                    22645345.746
 11  7 26 19 48 30.0000000  0  9G08G28G24G07G17G11G26G19G13
 110216831.034 8  85883336.42546  20973568.313                    20973575.996
 117813557.469 7  91802847.88945  22419165.094                    22419172.277
 121622506.061 6  94770873.36843  23143986.375                    23143997.621
 106705174.781 8  83146926.11846  20305316.523                    20305323.715
 126671893.469 6  98705454.29743  24104856.352                    24104870.375
 114838606.216 7  89484748.67245  21853056.094                    21853063.445
 126475632.536 7  98552511.04743  24067520.445                    24067529.500
 118662446.953 7  92464273.83045  22580709.977                    22580716.043
 119107784.015 7  92811273.54644  22665468.750                    22665478.672
 11  7 26 19 49  0.0000000  0  9G08G28G24G07G17G11G26G19G13
 110156810.626 8  85836567.29746  20962146.859                    20962154.891
 117781015.778 7  91777490.77745  22412972.172                    22412980.066
 121553109.241 6  94716798.03644  23130780.234                    23130792.051
 106696577.196 8  83140226.71346  20303680.469                    20303687.645
 126570188.697 6  98626204.08143  24085502.531                    24085515.930
 114797750.222 7  89452912.87445  21845281.578                    21845289.121
 126390193.889 7  98485935.50843  24051262.125                    24051271.188
 118751516.724 7  92533678.82145  22597659.742                    22597664.965
 119213777.877 7  92893865.99244  22685638.250                    22685648.789
 11  7 26 19 49 30.0000000  0  9G08G28G24G07G17G11G26G19G13
 110097021.171 8  85789978.13046  20950769.086                    20950776.977
 117748588.679 7  91752222.96345  22406801.883                    22406809.230
 121483914.571 6  94662880.25444  23117613.320                    23117624.504
 106688380.280 8  83133839.51646  20302120.656                    20302127.750
 126468637.988 6  98547073.90043  24066177.563                    24066191.352
 114757363.203 7  89421442.51545  21837595.969                    21837603.633
 126305159.274 7  98419674.83843  24035080.102                    24035089.555
 118840889.596 7  92603320.01545  22614666.711                    22614672.074
 119319961.805 7  92976606.57944  22705845.039                    22705854.875
 11  7 26 19 50  0.0000000  0  9G08G28G24G07G17G11G26G19G13
 110037465.582 8  85743571.19246  20939436.375                    20939443.984
 117716275.642 7  91727044.01745  22400652.695                    22400660.453
 121414925.237 7  94609122.47644  23104485.211                    23104496.586
 106680585.664 8  83127765.79647  20300637.484                    20300644.563
 126367243.291 6  98468065.31544  24046882.555                    24046896.445
 114717447.863 7  89390339.69545  21830000.688                    21830007.688
 126220531.638 6  98353731.27843  24018976.305                    24018985.211
 118930562.618 7  92673195.08045  22631730.430                    22631736.918
 119426332.716 7  93059492.84644  22726086.273                    22726096.086
 11  7 26 19 50 30.0000000  0  9G08G28G24G07G17G11G26G19G13
 109978145.908 8  85697348.07546  20928148.141                    20928155.703
 117684075.978 7  91701953.41845  22394525.602                    22394532.816
 121346144.497 7  94555527.19944  23091396.781                    23091407.898
 106673195.109 8  83122006.93246  20299230.563                    20299237.965
 126266007.007 6  98389180.15444  24027618.242                    24027632.031
 114678006.305 7  89359606.07445  21822494.531                    21822502.355
 126136313.872 7  98288107.06243  24002950.492                    24002958.891
 119020532.823 7  92743301.71745  22648851.375                    22648858.059
 119532887.671 7  93142522.54144  22746363.133                    22746373.730
 11  7 26 19 51  0.0000000  0  9G08G28G24G07G17G11G26G19G13
 109919064.666 8  85651310.76446  20916905.352                    20916913.145
 117651988.434 7  91676950.18445  22388419.336                    22388427.008
 121277575.222 7  94502096.71844  23078347.898                    23078359.137
 106666209.923 8  83116563.93846  20297902.047                    20297908.992
 126164930.715 6  98310419.69944  24008383.508                    24008397.305
 114639040.682 8  89329243.30745  21815079.961                    21815087.582
 126052508.455 7  98222804.18043  23987002.648                    23987011.328
 119110797.791 7  92813638.02745  22666028.102                    22666034.594
 119639623.533 7  93225693.16244  22766674.930                    22766685.273
 11  7 26 19 51 30.0000000  0  9G08G28G24G07G17G11G26G19G13
 109860224.567 8  85605461.35046  20905708.523                    20905716.082
 117620012.350 7  91652033.78545  22382334.633                    22382341.953
 121209220.384 7  94448833.30644  23065341.375                    23065352.168
 106659631.543 8  83111437.92946  20296650.070                    20296657.277
 126064016.746 6  98231785.73143  23989179.695                    23989193.488
 114600553.099 8  89299253.04345  21807755.586                    21807763.500
 125969118.358 7  98157824.91043  23971133.352                    23971142.328
 119201354.400 7  92884201.59145  22683260.602                    22683267.066
 119746537.205 7  93309002.35244  22787019.398                    22787030.238
 11  7 26 19 52  0.0000000  0  9G08G28G24G07G17G11G26G19G13
 109801627.947 8  85559801.67046  20894557.930                    20894565.445
 117588147.380 7  91627203.96345  22376270.727                    22376278.465
 121141083.357 7  94395739.62044  23052375.039                    23052385.336
 106653462.008 8  83106630.49746  20295475.969                    20295483.332
 125963267.390 6  98153280.04144  23970007.055                    23970021.582
 114562546.051 8  89269637.20345  21800523.602                    21800531.031
 125886146.296 7  98093171.38043  23955345.516                    23955353.750
 119292200.070 7  92954990.39645  22700547.680                    22700555.020
 119853625.640 7  93392447.71044  22807397.688                    22807408.551
 11  7 26 19 52 30.0000000  0  9G08G28G24G07G17G11G26G19G13
 109743276.582 8  85514333.09046  20883453.758                    20883461.906
 117556392.405 7  91602459.86945  22370227.945                    22370235.641
 121073166.974 7  94342817.87444  23039450.742                    23039460.789
 106647702.326 8  83102142.43546  20294380.094                    20294387.238
 125862684.100 6  98074903.74244  23950867.203                    23950881.406
 114525021.380 7  89240397.24645  21793382.602                    21793390.465
 125803594.795 6  98028845.57843  23939636.047                    23939645.105
 119383331.801 7  93026002.10045  22717890.156                    22717896.578
 119960885.862 7  93476026.94444  22827808.961                    22827819.586
 11  7 26 19 53  0.0000000  0  9G08G28G24G07G17G11G26G19G13
 109685173.077 8  85469057.65346  20872397.008                    20872404.688
 117524746.271 7  91577800.57245  22364206.117                    22364213.594
 121005474.346 7  94290070.47044  23026568.977                    23026579.262
 106642353.692 8  83097974.67246  20293362.078                    20293369.125
 125762268.655 6  97996658.22444  23931759.047                    23931772.824
 114487981.176 7  89211534.79445  21786333.992                    21786341.492
 125721466.525 7  97964849.58643  23924006.820                    23924016.379
 119474746.689 7  93097234.45245  22735286.023                    22735292.465
 120068314.307 7  93559737.25644  22848252.711                    22848263.070
 11  7 26 19 53 30.0000000  0  9G08G28G24G07G17G11G26G19G13
 109627319.605 8  85423977.04846  20861387.969                    20861395.754
 117493208.325 7  91553225.59145  22358204.383                    22358211.773
 120938008.654 7  94237499.91644  23013730.531                    23013740.629
 106637417.596 8  83094128.36546  20292422.500                    20292429.656
 125662023.039 7  97918545.02044  23912682.219                    23912696.055
 114451427.435 8  89183051.40645  21779378.117                    21779385.711
 125639764.185 7  97901185.48744  23908459.680                    23908469.605
 119566441.749 7  93168685.12945  22752734.703                    22752741.184
 120175908.244 7  93643576.49644  22868726.859                    22868737.547
 11  7 26 19 54  0.0000000  0  9G08G28G24G07G17G11G26G19G13
 109569719.018 8  85379093.49646  20850426.914                    20850434.508
 117461777.981 7  91528734.45845  22352223.164                    22352230.656
 120870773.221 6  94185108.77844  23000935.859                    23000946.547
 106632895.860 8  83090604.93546  20291562.297                    20291569.594
 125561949.464 7  97840565.89544  23893638.469                    23893652.152
 114415362.807 8  89154949.14645  21772515.203                    21772522.641
 125558490.276 7  97837855.24943  23892993.141                    23893002.789
 119658414.441 7  93240352.13445  22770236.258                    22770242.328
 120283664.594 7  93727542.33544  22889232.758                    22889242.914
 11  7 26 19 54 30.0000000  0  9G08G28G24G07G17G11G26G19G13
 109512373.428 8  85334408.63646  20839514.203                    20839521.906
 117430454.298 7  91504326.42145  22346262.930                    22346270.441
 120803770.965 7  94132899.33144  22988186.063                    22988195.813
 106628789.876 8  83087405.46446  20290781.016                    20290787.762
 125462049.761 7  97762722.22244  23874628.102                    23874641.098
 114379788.916 7  89127229.26845  21765745.484                    21765753.109
 125477647.853 7  97774861.17243  23877609.594                    23877619.203
 119750661.965 7  93312233.29745  22787790.531                    22787796.547
 120391580.090 7  93811632.16544  22909768.195                    22909778.621
 11  7 26 19 55  0.0000000  0  9G08G28G24G07G17G11G26G19G13
 109455285.280 8  85289924.38846  20828650.578                    20828658.355
 117399236.481 7  91480000.88545  22340321.734                    22340329.191
 120737004.824 7  94080873.88144  22975480.898                    22975490.258
 106625100.917 8  83084530.94146  20290079.523                    20290086.184
 125362325.916 7  97685015.56644  23855650.875                    23855664.406
 114344707.951 8  89099893.49045  21759069.891                    21759077.148
 125397239.365 6  97712205.26544  23862308.102                    23862317.809
 119843181.347 7  93384326.28645  22805396.281                    22805402.742
 120499651.990 7  93895843.88544  22930333.711                    22930344.602
 11  7 26 19 55 30.0000000  0  9G08G28G24G07G17G11G26G19G13
 109398457.175 8  85245642.75346  20817836.680                    20817844.348
 117368123.708 7  91455757.20245  22334401.469                    22334408.867
 120670478.041 6  94029034.94043  22962820.750                    22962831.203
 106621830.436 8  83081982.50746  20289456.695                    20289463.773
 125262779.730 7  97607447.37644  23836707.523                    23836721.504
 114310122.025 7  89072943.45045  21752488.508                    21752495.648
 125317267.422 6  97649889.51243  23847090.977                    23847100.430
 119935969.909 7  93456629.02645  22823053.430                    22823060.527
 120607876.833 7  93980174.78144  22950928.258                    22950938.953
 11  7 26 19 56  0.0000000  0  9G08G28G24G07G17G11G26G19G13
 109341891.266 8  85201565.43146  20807072.844                    20807080.164
 117337115.203 7  91431594.75445  22328500.680                    22328508.188
 120604193.704 7  93977384.89744  22950207.406                    22950217.836
 106618979.949 8  83079761.34446  20288914.422                    20288921.457
 125163413.534 7  97530019.39544  23817798.984                    23817811.516
 114276032.981 7  89046380.60845  21746001.328                    21746008.883
 125237734.715 6  97587916.04243  23831954.742                    23831964.926
 120029024.560 7  93529139.10645  22840761.563                    22840767.922
 120716252.183 7  94064622.96644  22971551.633                    22971562.000
 11  7 26 19 56 30.0000000  0  9G08G28G24G07G17G11G26G19G13
 109285590.191 8  85157694.47846  20796358.797                    20796366.520
 117306210.227 7  91407512.98245  22322619.430                    22322626.840
 120538154.876 6  93925926.21143  22937639.875                    22937650.898
 106616550.829 8  83077868.51646  20288452.195                    20288458.691
 125064229.035 6  97452733.03944  23798924.305                    23798937.074
 114242443.003 7  89020206.65145  21739609.328                    21739617.406
 125158643.843 6  97526286.82343  23816905.211                    23816914.684
 120122342.761 7  93601854.55345  22858519.164                    22858525.402
 120824774.560 7  94149185.68743  22992202.672                    22992213.781
 11  7 26 19 57  0.0000000  0  9G08G28G24G07G17G11G26G19G13
 109229556.191 8  85114031.63546  20785695.813                    20785703.711
 117275407.961 7  91383511.25545  22316757.938                    22316765.477
 120472364.479 6  93874661.10943  22925120.063                    22925131.035
 106614544.428 7  83076305.08447  20288070.086                    20288077.488
 124965227.768 7  97375589.47843  23780084.633                    23780098.148
 114209353.991 7  88994423.04545  21733312.813                    21733320.660
 125079997.450 6  97465003.99243  23801939.422                    23801948.676
 120215921.947 7  93674773.37045  22876326.742                    22876332.879
 120933440.744 7  94233860.47643  23012881.352                    23012892.285
 11  7 26 19 57 30.0000000  0  9G08G28G24G07G17G11G26G19G13
 109173791.885 8  85070578.93246  20775084.414                    20775092.156
 117244707.912 8  91359589.17445  22310916.086                    22310923.082
 120406825.848 7  93823592.17944  22912648.297                    22912659.035
 106612962.282 8  83075072.24546  20287768.953                    20287776.230
 124866412.260 7  97298590.66244  23761280.719                    23761293.180
 114176767.938 7  88969031.35345  21727111.539                    21727119.117
 125001797.999 6  97404069.38943  23787059.070                    23787067.945
 120309759.083 7  93747893.17945  22894182.844                    22894189.449
 121042248.065 7  94318645.23543  23033586.656                    23033597.375
 11  7 26 19 58  0.0000000  0  9G08G28G24G07G17G11G26G19G13
 109118299.476 8  85027338.10446  20764524.305                    20764532.430
 117214109.206 7  91335746.06545  22305093.297                    22305100.438
 120341542.018 7  93772721.78244  22900225.398                    22900235.996
 106611805.769 8  83074171.06546  20287548.758                    20287556.184
 124767784.288 7  97221737.92844  23742512.977                    23742525.121
 114144686.893 7  88944033.17145  21721006.617                    21721014.070
 124924048.300 6  97343485.24643  23772262.633                    23772272.641
 120403851.151 7  93821211.64245  22912088.563                    22912094.898
 121151193.301 7  94403537.45544  23054318.117                    23054329.777
